<?xml version="1.0" encoding="UTF-8" standalone="no" ?>
<gpx xmlns="http://www.topografix.com/GPX/1/1" xmlns:xsi="http://www.w3.org/2001/XMLSchema-instance" xsi:schemaLocation="http://www.topografix.com/GPX/1/1 http://www.topografix.com/GPX/1/1/gpx.xsd" version="1.1" creator="VisuGPX - https://www.visugpx.com">
  <metadata>
    <name>Trail Tétras Lyre 2013</name>
    <desc><![CDATA[Trail du tétras lyre le 21/09/2013]]></desc>
  </metadata>
  <trk>
    <name><![CDATA[trail tetras lyre]]></name>
    <trkseg>
      <trkpt lat="44.96152" lon="5.55335">
        <ele>1024.1999511719</ele>
        <time>2013-09-21T07:16:10.000Z</time>
      </trkpt>
      <trkpt lat="44.96164" lon="5.55326">
        <ele>1026</ele>
        <time>2013-09-21T07:16:14.000Z</time>
      </trkpt>
      <trkpt lat="44.96172" lon="5.55308">
        <ele>1028</ele>
        <time>2013-09-21T07:16:19.000Z</time>
      </trkpt>
      <trkpt lat="44.96174" lon="5.55283">
        <ele>1030.4000244141</ele>
        <time>2013-09-21T07:16:24.000Z</time>
      </trkpt>
      <trkpt lat="44.96171" lon="5.55254">
        <ele>1032.4000244141</ele>
        <time>2013-09-21T07:16:30.000Z</time>
      </trkpt>
      <trkpt lat="44.96169" lon="5.55233">
        <ele>1035.1999511719</ele>
        <time>2013-09-21T07:16:35.000Z</time>
      </trkpt>
      <trkpt lat="44.96164" lon="5.55213">
        <ele>1037.4000244141</ele>
        <time>2013-09-21T07:16:40.000Z</time>
      </trkpt>
      <trkpt lat="44.9616" lon="5.55195">
        <ele>1039.4000244141</ele>
        <time>2013-09-21T07:16:44.000Z</time>
      </trkpt>
      <trkpt lat="44.96153" lon="5.55168">
        <ele>1041.8000488281</ele>
        <time>2013-09-21T07:16:51.000Z</time>
      </trkpt>
      <trkpt lat="44.96145" lon="5.55141">
        <ele>1044.1999511719</ele>
        <time>2013-09-21T07:16:58.000Z</time>
      </trkpt>
      <trkpt lat="44.96133" lon="5.55116">
        <ele>1045.1999511719</ele>
        <time>2013-09-21T07:17:05.000Z</time>
      </trkpt>
      <trkpt lat="44.96124" lon="5.55096">
        <ele>1045.8000488281</ele>
        <time>2013-09-21T07:17:11.000Z</time>
      </trkpt>
      <trkpt lat="44.96112" lon="5.55069">
        <ele>1046.4000244141</ele>
        <time>2013-09-21T07:17:18.000Z</time>
      </trkpt>
      <trkpt lat="44.96105" lon="5.5505">
        <ele>1046.5999755859</ele>
        <time>2013-09-21T07:17:23.000Z</time>
      </trkpt>
      <trkpt lat="44.96096" lon="5.55025">
        <ele>1046.8000488281</ele>
        <time>2013-09-21T07:17:29.000Z</time>
      </trkpt>
      <trkpt lat="44.96089" lon="5.55003">
        <ele>1047</ele>
        <time>2013-09-21T07:17:34.000Z</time>
      </trkpt>
      <trkpt lat="44.96081" lon="5.54976">
        <ele>1047.5999755859</ele>
        <time>2013-09-21T07:17:40.000Z</time>
      </trkpt>
      <trkpt lat="44.9608" lon="5.54949">
        <ele>1051</ele>
        <time>2013-09-21T07:17:46.000Z</time>
      </trkpt>
      <trkpt lat="44.96079" lon="5.54922">
        <ele>1054.1999511719</ele>
        <time>2013-09-21T07:17:52.000Z</time>
      </trkpt>
      <trkpt lat="44.96078" lon="5.54901">
        <ele>1056</ele>
        <time>2013-09-21T07:17:57.000Z</time>
      </trkpt>
      <trkpt lat="44.96077" lon="5.5488">
        <ele>1057.4000244141</ele>
        <time>2013-09-21T07:18:02.000Z</time>
      </trkpt>
      <trkpt lat="44.96076" lon="5.5486">
        <ele>1059</ele>
        <time>2013-09-21T07:18:07.000Z</time>
      </trkpt>
      <trkpt lat="44.96076" lon="5.5484">
        <ele>1060.4000244141</ele>
        <time>2013-09-21T07:18:12.000Z</time>
      </trkpt>
      <trkpt lat="44.96073" lon="5.54814">
        <ele>1062.8000488281</ele>
        <time>2013-09-21T07:18:19.000Z</time>
      </trkpt>
      <trkpt lat="44.96071" lon="5.54787">
        <ele>1065.4000244141</ele>
        <time>2013-09-21T07:18:26.000Z</time>
      </trkpt>
      <trkpt lat="44.96069" lon="5.54769">
        <ele>1067.1999511719</ele>
        <time>2013-09-21T07:18:31.000Z</time>
      </trkpt>
      <trkpt lat="44.96066" lon="5.5475">
        <ele>1069</ele>
        <time>2013-09-21T07:18:36.000Z</time>
      </trkpt>
      <trkpt lat="44.96059" lon="5.54735">
        <ele>1070.4000244141</ele>
        <time>2013-09-21T07:18:41.000Z</time>
      </trkpt>
      <trkpt lat="44.96045" lon="5.54719">
        <ele>1071.1999511719</ele>
        <time>2013-09-21T07:18:48.000Z</time>
      </trkpt>
      <trkpt lat="44.96032" lon="5.54709">
        <ele>1071.1999511719</ele>
        <time>2013-09-21T07:18:54.000Z</time>
      </trkpt>
      <trkpt lat="44.96017" lon="5.547">
        <ele>1070.5999755859</ele>
        <time>2013-09-21T07:19:00.000Z</time>
      </trkpt>
      <trkpt lat="44.96005" lon="5.54692">
        <ele>1070.4000244141</ele>
        <time>2013-09-21T07:19:05.000Z</time>
      </trkpt>
      <trkpt lat="44.9599" lon="5.54685">
        <ele>1070.8000488281</ele>
        <time>2013-09-21T07:19:11.000Z</time>
      </trkpt>
      <trkpt lat="44.95973" lon="5.54675">
        <ele>1072.1999511719</ele>
        <time>2013-09-21T07:19:18.000Z</time>
      </trkpt>
      <trkpt lat="44.95969" lon="5.5467">
        <ele>1073</ele>
        <time>2013-09-21T07:19:20.000Z</time>
      </trkpt>
      <trkpt lat="44.9597" lon="5.54651">
        <ele>1076.1999511719</ele>
        <time>2013-09-21T07:19:25.000Z</time>
      </trkpt>
      <trkpt lat="44.95979" lon="5.54643">
        <ele>1078</ele>
        <time>2013-09-21T07:19:29.000Z</time>
      </trkpt>
      <trkpt lat="44.96001" lon="5.54636">
        <ele>1080.1999511719</ele>
        <time>2013-09-21T07:19:37.000Z</time>
      </trkpt>
      <trkpt lat="44.96015" lon="5.54633">
        <ele>1082.8000488281</ele>
        <time>2013-09-21T07:19:42.000Z</time>
      </trkpt>
      <trkpt lat="44.9603" lon="5.5463">
        <ele>1085.1999511719</ele>
        <time>2013-09-21T07:19:47.000Z</time>
      </trkpt>
      <trkpt lat="44.96048" lon="5.54626">
        <ele>1088.5999755859</ele>
        <time>2013-09-21T07:19:53.000Z</time>
      </trkpt>
      <trkpt lat="44.96069" lon="5.54617">
        <ele>1093.1999511719</ele>
        <time>2013-09-21T07:20:00.000Z</time>
      </trkpt>
      <trkpt lat="44.96087" lon="5.54618">
        <ele>1096.1999511719</ele>
        <time>2013-09-21T07:20:06.000Z</time>
      </trkpt>
      <trkpt lat="44.96105" lon="5.54635">
        <ele>1097.8000488281</ele>
        <time>2013-09-21T07:20:13.000Z</time>
      </trkpt>
      <trkpt lat="44.96119" lon="5.54642">
        <ele>1100.8000488281</ele>
        <time>2013-09-21T07:20:18.000Z</time>
      </trkpt>
      <trkpt lat="44.96133" lon="5.54648">
        <ele>1104</ele>
        <time>2013-09-21T07:20:23.000Z</time>
      </trkpt>
      <trkpt lat="44.96142" lon="5.54659">
        <ele>1105</ele>
        <time>2013-09-21T07:20:28.000Z</time>
      </trkpt>
      <trkpt lat="44.96149" lon="5.54682">
        <ele>1104</ele>
        <time>2013-09-21T07:20:34.000Z</time>
      </trkpt>
      <trkpt lat="44.96153" lon="5.54698">
        <ele>1103.4000244141</ele>
        <time>2013-09-21T07:20:39.000Z</time>
      </trkpt>
      <trkpt lat="44.96162" lon="5.54715">
        <ele>1104.5999755859</ele>
        <time>2013-09-21T07:20:45.000Z</time>
      </trkpt>
      <trkpt lat="44.96167" lon="5.54733">
        <ele>1104</ele>
        <time>2013-09-21T07:20:50.000Z</time>
      </trkpt>
      <trkpt lat="44.96169" lon="5.54751">
        <ele>1102.8000488281</ele>
        <time>2013-09-21T07:20:55.000Z</time>
      </trkpt>
      <trkpt lat="44.96174" lon="5.54768">
        <ele>1105</ele>
        <time>2013-09-21T07:20:59.000Z</time>
      </trkpt>
      <trkpt lat="44.9618" lon="5.54791">
        <ele>1107.4000244141</ele>
        <time>2013-09-21T07:21:05.000Z</time>
      </trkpt>
      <trkpt lat="44.9618" lon="5.5481">
        <ele>1107.1999511719</ele>
        <time>2013-09-21T07:21:10.000Z</time>
      </trkpt>
      <trkpt lat="44.9618" lon="5.5483">
        <ele>1107</ele>
        <time>2013-09-21T07:21:15.000Z</time>
      </trkpt>
      <trkpt lat="44.96185" lon="5.54845">
        <ele>1107.5999755859</ele>
        <time>2013-09-21T07:21:20.000Z</time>
      </trkpt>
      <trkpt lat="44.96185" lon="5.54851">
        <ele>1107.4000244141</ele>
        <time>2013-09-21T07:21:22.000Z</time>
      </trkpt>
      <trkpt lat="44.9619" lon="5.5487">
        <ele>1107.4000244141</ele>
        <time>2013-09-21T07:21:28.000Z</time>
      </trkpt>
      <trkpt lat="44.96193" lon="5.54883">
        <ele>1107</ele>
        <time>2013-09-21T07:21:32.000Z</time>
      </trkpt>
      <trkpt lat="44.96196" lon="5.54896">
        <ele>1106.8000488281</ele>
        <time>2013-09-21T07:21:36.000Z</time>
      </trkpt>
      <trkpt lat="44.962" lon="5.54913">
        <ele>1106.1999511719</ele>
        <time>2013-09-21T07:21:41.000Z</time>
      </trkpt>
      <trkpt lat="44.96206" lon="5.54923">
        <ele>1106.8000488281</ele>
        <time>2013-09-21T07:21:45.000Z</time>
      </trkpt>
      <trkpt lat="44.96216" lon="5.54943">
        <ele>1106.4000244141</ele>
        <time>2013-09-21T07:21:52.000Z</time>
      </trkpt>
      <trkpt lat="44.96227" lon="5.54953">
        <ele>1108</ele>
        <time>2013-09-21T07:21:57.000Z</time>
      </trkpt>
      <trkpt lat="44.96238" lon="5.54961">
        <ele>1109.8000488281</ele>
        <time>2013-09-21T07:22:02.000Z</time>
      </trkpt>
      <trkpt lat="44.96246" lon="5.54975">
        <ele>1109.4000244141</ele>
        <time>2013-09-21T07:22:07.000Z</time>
      </trkpt>
      <trkpt lat="44.96252" lon="5.54971">
        <ele>1111</ele>
        <time>2013-09-21T07:22:11.000Z</time>
      </trkpt>
      <trkpt lat="44.96258" lon="5.54961">
        <ele>1112.4000244141</ele>
        <time>2013-09-21T07:22:15.000Z</time>
      </trkpt>
      <trkpt lat="44.96262" lon="5.5495">
        <ele>1114.4000244141</ele>
        <time>2013-09-21T07:22:19.000Z</time>
      </trkpt>
      <trkpt lat="44.96269" lon="5.54931">
        <ele>1117.8000488281</ele>
        <time>2013-09-21T07:22:25.000Z</time>
      </trkpt>
      <trkpt lat="44.96272" lon="5.54925">
        <ele>1118.8000488281</ele>
        <time>2013-09-21T07:22:28.000Z</time>
      </trkpt>
      <trkpt lat="44.96277" lon="5.54914">
        <ele>1121</ele>
        <time>2013-09-21T07:22:33.000Z</time>
      </trkpt>
      <trkpt lat="44.96284" lon="5.54902">
        <ele>1122.5999755859</ele>
        <time>2013-09-21T07:22:37.000Z</time>
      </trkpt>
      <trkpt lat="44.96292" lon="5.54888">
        <ele>1125.1999511719</ele>
        <time>2013-09-21T07:22:42.000Z</time>
      </trkpt>
      <trkpt lat="44.96301" lon="5.54866">
        <ele>1129.8000488281</ele>
        <time>2013-09-21T07:22:48.000Z</time>
      </trkpt>
      <trkpt lat="44.96311" lon="5.5485">
        <ele>1133.4000244141</ele>
        <time>2013-09-21T07:22:53.000Z</time>
      </trkpt>
      <trkpt lat="44.96321" lon="5.54833">
        <ele>1138</ele>
        <time>2013-09-21T07:22:59.000Z</time>
      </trkpt>
      <trkpt lat="44.96331" lon="5.54817">
        <ele>1142.1999511719</ele>
        <time>2013-09-21T07:23:05.000Z</time>
      </trkpt>
      <trkpt lat="44.96341" lon="5.54799">
        <ele>1144.8000488281</ele>
        <time>2013-09-21T07:23:10.000Z</time>
      </trkpt>
      <trkpt lat="44.96345" lon="5.54791">
        <ele>1145.4000244141</ele>
        <time>2013-09-21T07:23:14.000Z</time>
      </trkpt>
      <trkpt lat="44.96354" lon="5.54781">
        <ele>1145.5999755859</ele>
        <time>2013-09-21T07:23:19.000Z</time>
      </trkpt>
      <trkpt lat="44.96366" lon="5.54767">
        <ele>1146.1999511719</ele>
        <time>2013-09-21T07:23:25.000Z</time>
      </trkpt>
      <trkpt lat="44.96372" lon="5.5476">
        <ele>1146.5999755859</ele>
        <time>2013-09-21T07:23:28.000Z</time>
      </trkpt>
      <trkpt lat="44.96381" lon="5.54746">
        <ele>1148.5999755859</ele>
        <time>2013-09-21T07:23:33.000Z</time>
      </trkpt>
      <trkpt lat="44.96391" lon="5.54728">
        <ele>1152.8000488281</ele>
        <time>2013-09-21T07:23:40.000Z</time>
      </trkpt>
      <trkpt lat="44.96404" lon="5.54718">
        <ele>1153.8000488281</ele>
        <time>2013-09-21T07:23:45.000Z</time>
      </trkpt>
      <trkpt lat="44.96419" lon="5.54709">
        <ele>1155</ele>
        <time>2013-09-21T07:23:51.000Z</time>
      </trkpt>
      <trkpt lat="44.96435" lon="5.54699">
        <ele>1157.1999511719</ele>
        <time>2013-09-21T07:23:57.000Z</time>
      </trkpt>
      <trkpt lat="44.96442" lon="5.54696">
        <ele>1157.4000244141</ele>
        <time>2013-09-21T07:24:00.000Z</time>
      </trkpt>
      <trkpt lat="44.96447" lon="5.54696">
        <ele>1157</ele>
        <time>2013-09-21T07:24:03.000Z</time>
      </trkpt>
      <trkpt lat="44.96461" lon="5.54686">
        <ele>1159</ele>
        <time>2013-09-21T07:24:09.000Z</time>
      </trkpt>
      <trkpt lat="44.96477" lon="5.54674">
        <ele>1161</ele>
        <time>2013-09-21T07:24:15.000Z</time>
      </trkpt>
      <trkpt lat="44.96484" lon="5.54671">
        <ele>1161</ele>
        <time>2013-09-21T07:24:18.000Z</time>
      </trkpt>
      <trkpt lat="44.96492" lon="5.54663">
        <ele>1162.4000244141</ele>
        <time>2013-09-21T07:24:22.000Z</time>
      </trkpt>
      <trkpt lat="44.96507" lon="5.54659">
        <ele>1163.5999755859</ele>
        <time>2013-09-21T07:24:28.000Z</time>
      </trkpt>
      <trkpt lat="44.96522" lon="5.54657">
        <ele>1166.5999755859</ele>
        <time>2013-09-21T07:24:33.000Z</time>
      </trkpt>
      <trkpt lat="44.96534" lon="5.54668">
        <ele>1165.5999755859</ele>
        <time>2013-09-21T07:24:37.000Z</time>
      </trkpt>
      <trkpt lat="44.96544" lon="5.54686">
        <ele>1163</ele>
        <time>2013-09-21T07:24:41.000Z</time>
      </trkpt>
      <trkpt lat="44.96552" lon="5.54703">
        <ele>1160.5999755859</ele>
        <time>2013-09-21T07:24:46.000Z</time>
      </trkpt>
      <trkpt lat="44.96562" lon="5.54726">
        <ele>1158</ele>
        <time>2013-09-21T07:24:53.000Z</time>
      </trkpt>
      <trkpt lat="44.96572" lon="5.54742">
        <ele>1157.4000244141</ele>
        <time>2013-09-21T07:24:58.000Z</time>
      </trkpt>
      <trkpt lat="44.96577" lon="5.54752">
        <ele>1156.5999755859</ele>
        <time>2013-09-21T07:25:01.000Z</time>
      </trkpt>
      <trkpt lat="44.9658" lon="5.54764">
        <ele>1154</ele>
        <time>2013-09-21T07:25:04.000Z</time>
      </trkpt>
      <trkpt lat="44.96591" lon="5.54785">
        <ele>1149</ele>
        <time>2013-09-21T07:25:11.000Z</time>
      </trkpt>
      <trkpt lat="44.96602" lon="5.54801">
        <ele>1145</ele>
        <time>2013-09-21T07:25:16.000Z</time>
      </trkpt>
      <trkpt lat="44.96613" lon="5.54811">
        <ele>1142.5999755859</ele>
        <time>2013-09-21T07:25:20.000Z</time>
      </trkpt>
      <trkpt lat="44.96626" lon="5.5482">
        <ele>1140.5999755859</ele>
        <time>2013-09-21T07:25:25.000Z</time>
      </trkpt>
      <trkpt lat="44.96637" lon="5.54813">
        <ele>1143</ele>
        <time>2013-09-21T07:25:30.000Z</time>
      </trkpt>
      <trkpt lat="44.96647" lon="5.54804">
        <ele>1145.8000488281</ele>
        <time>2013-09-21T07:25:34.000Z</time>
      </trkpt>
      <trkpt lat="44.96658" lon="5.54786">
        <ele>1151</ele>
        <time>2013-09-21T07:25:39.000Z</time>
      </trkpt>
      <trkpt lat="44.96672" lon="5.54769">
        <ele>1154.1999511719</ele>
        <time>2013-09-21T07:25:44.000Z</time>
      </trkpt>
      <trkpt lat="44.96683" lon="5.54755">
        <ele>1154.4000244141</ele>
        <time>2013-09-21T07:25:48.000Z</time>
      </trkpt>
      <trkpt lat="44.96695" lon="5.54735">
        <ele>1156</ele>
        <time>2013-09-21T07:25:53.000Z</time>
      </trkpt>
      <trkpt lat="44.9671" lon="5.54719">
        <ele>1156.5999755859</ele>
        <time>2013-09-21T07:25:58.000Z</time>
      </trkpt>
      <trkpt lat="44.96732" lon="5.54694">
        <ele>1158.4000244141</ele>
        <time>2013-09-21T07:26:06.000Z</time>
      </trkpt>
      <trkpt lat="44.96748" lon="5.54682">
        <ele>1158</ele>
        <time>2013-09-21T07:26:12.000Z</time>
      </trkpt>
      <trkpt lat="44.96759" lon="5.54674">
        <ele>1157.5999755859</ele>
        <time>2013-09-21T07:26:16.000Z</time>
      </trkpt>
      <trkpt lat="44.96773" lon="5.54664">
        <ele>1157</ele>
        <time>2013-09-21T07:26:21.000Z</time>
      </trkpt>
      <trkpt lat="44.96795" lon="5.54651">
        <ele>1155.1999511719</ele>
        <time>2013-09-21T07:26:27.000Z</time>
      </trkpt>
      <trkpt lat="44.9681" lon="5.54645">
        <ele>1152.5999755859</ele>
        <time>2013-09-21T07:26:32.000Z</time>
      </trkpt>
      <trkpt lat="44.96825" lon="5.54631">
        <ele>1153.1999511719</ele>
        <time>2013-09-21T07:26:37.000Z</time>
      </trkpt>
      <trkpt lat="44.96838" lon="5.54619">
        <ele>1154.1999511719</ele>
        <time>2013-09-21T07:26:42.000Z</time>
      </trkpt>
      <trkpt lat="44.96849" lon="5.54616">
        <ele>1152.5999755859</ele>
        <time>2013-09-21T07:26:45.000Z</time>
      </trkpt>
      <trkpt lat="44.96863" lon="5.54602">
        <ele>1154</ele>
        <time>2013-09-21T07:26:50.000Z</time>
      </trkpt>
      <trkpt lat="44.96878" lon="5.54579">
        <ele>1158.4000244141</ele>
        <time>2013-09-21T07:26:56.000Z</time>
      </trkpt>
      <trkpt lat="44.96893" lon="5.54562">
        <ele>1162.1999511719</ele>
        <time>2013-09-21T07:27:01.000Z</time>
      </trkpt>
      <trkpt lat="44.96902" lon="5.54556">
        <ele>1162.8000488281</ele>
        <time>2013-09-21T07:27:03.000Z</time>
      </trkpt>
      <trkpt lat="44.96918" lon="5.54556">
        <ele>1159</ele>
        <time>2013-09-21T07:27:07.000Z</time>
      </trkpt>
      <trkpt lat="44.96938" lon="5.54564">
        <ele>1152.1999511719</ele>
        <time>2013-09-21T07:27:14.000Z</time>
      </trkpt>
      <trkpt lat="44.96949" lon="5.54556">
        <ele>1152.5999755859</ele>
        <time>2013-09-21T07:27:18.000Z</time>
      </trkpt>
      <trkpt lat="44.96963" lon="5.54542">
        <ele>1154.4000244141</ele>
        <time>2013-09-21T07:27:23.000Z</time>
      </trkpt>
      <trkpt lat="44.96972" lon="5.54532">
        <ele>1155.4000244141</ele>
        <time>2013-09-21T07:27:27.000Z</time>
      </trkpt>
      <trkpt lat="44.96984" lon="5.54517">
        <ele>1156.8000488281</ele>
        <time>2013-09-21T07:27:32.000Z</time>
      </trkpt>
      <trkpt lat="44.96996" lon="5.54506">
        <ele>1156.5999755859</ele>
        <time>2013-09-21T07:27:36.000Z</time>
      </trkpt>
      <trkpt lat="44.97014" lon="5.54483">
        <ele>1158</ele>
        <time>2013-09-21T07:27:43.000Z</time>
      </trkpt>
      <trkpt lat="44.97029" lon="5.54468">
        <ele>1158.4000244141</ele>
        <time>2013-09-21T07:27:48.000Z</time>
      </trkpt>
      <trkpt lat="44.97043" lon="5.54454">
        <ele>1158.1999511719</ele>
        <time>2013-09-21T07:27:53.000Z</time>
      </trkpt>
      <trkpt lat="44.97056" lon="5.54444">
        <ele>1157</ele>
        <time>2013-09-21T07:27:57.000Z</time>
      </trkpt>
      <trkpt lat="44.97068" lon="5.54433">
        <ele>1156.1999511719</ele>
        <time>2013-09-21T07:28:01.000Z</time>
      </trkpt>
      <trkpt lat="44.97082" lon="5.54416">
        <ele>1155.5999755859</ele>
        <time>2013-09-21T07:28:06.000Z</time>
      </trkpt>
      <trkpt lat="44.97093" lon="5.54405">
        <ele>1154.5999755859</ele>
        <time>2013-09-21T07:28:10.000Z</time>
      </trkpt>
      <trkpt lat="44.97108" lon="5.54393">
        <ele>1152.8000488281</ele>
        <time>2013-09-21T07:28:15.000Z</time>
      </trkpt>
      <trkpt lat="44.97121" lon="5.5438">
        <ele>1151.4000244141</ele>
        <time>2013-09-21T07:28:20.000Z</time>
      </trkpt>
      <trkpt lat="44.97139" lon="5.54366">
        <ele>1148.4000244141</ele>
        <time>2013-09-21T07:28:25.000Z</time>
      </trkpt>
      <trkpt lat="44.97157" lon="5.54347">
        <ele>1146</ele>
        <time>2013-09-21T07:28:31.000Z</time>
      </trkpt>
      <trkpt lat="44.97162" lon="5.54337">
        <ele>1145.8000488281</ele>
        <time>2013-09-21T07:28:33.000Z</time>
      </trkpt>
      <trkpt lat="44.97169" lon="5.54321">
        <ele>1148.1999511719</ele>
        <time>2013-09-21T07:28:36.000Z</time>
      </trkpt>
      <trkpt lat="44.97182" lon="5.54298">
        <ele>1151.8000488281</ele>
        <time>2013-09-21T07:28:41.000Z</time>
      </trkpt>
      <trkpt lat="44.97199" lon="5.54282">
        <ele>1152.5999755859</ele>
        <time>2013-09-21T07:28:47.000Z</time>
      </trkpt>
      <trkpt lat="44.97217" lon="5.54281">
        <ele>1149</ele>
        <time>2013-09-21T07:28:51.000Z</time>
      </trkpt>
      <trkpt lat="44.97232" lon="5.54287">
        <ele>1144.8000488281</ele>
        <time>2013-09-21T07:28:54.000Z</time>
      </trkpt>
      <trkpt lat="44.97249" lon="5.54298">
        <ele>1139.4000244141</ele>
        <time>2013-09-21T07:28:58.000Z</time>
      </trkpt>
      <trkpt lat="44.97258" lon="5.54317">
        <ele>1137.8000488281</ele>
        <time>2013-09-21T07:29:02.000Z</time>
      </trkpt>
      <trkpt lat="44.97262" lon="5.54335">
        <ele>1135.8000488281</ele>
        <time>2013-09-21T07:29:05.000Z</time>
      </trkpt>
      <trkpt lat="44.97267" lon="5.54356">
        <ele>1134.1999511719</ele>
        <time>2013-09-21T07:29:09.000Z</time>
      </trkpt>
      <trkpt lat="44.9728" lon="5.54379">
        <ele>1134.1999511719</ele>
        <time>2013-09-21T07:29:15.000Z</time>
      </trkpt>
      <trkpt lat="44.97284" lon="5.54381">
        <ele>1135</ele>
        <time>2013-09-21T07:29:16.000Z</time>
      </trkpt>
      <trkpt lat="44.97298" lon="5.54385">
        <ele>1138.1999511719</ele>
        <time>2013-09-21T07:29:21.000Z</time>
      </trkpt>
      <trkpt lat="44.97305" lon="5.54387">
        <ele>1139.5999755859</ele>
        <time>2013-09-21T07:29:24.000Z</time>
      </trkpt>
      <trkpt lat="44.97317" lon="5.54386">
        <ele>1143</ele>
        <time>2013-09-21T07:29:28.000Z</time>
      </trkpt>
      <trkpt lat="44.97333" lon="5.54398">
        <ele>1145.4000244141</ele>
        <time>2013-09-21T07:29:34.000Z</time>
      </trkpt>
      <trkpt lat="44.9734" lon="5.5441">
        <ele>1146.5999755859</ele>
        <time>2013-09-21T07:29:38.000Z</time>
      </trkpt>
      <trkpt lat="44.97348" lon="5.54428">
        <ele>1148</ele>
        <time>2013-09-21T07:29:43.000Z</time>
      </trkpt>
      <trkpt lat="44.97351" lon="5.54443">
        <ele>1147.4000244141</ele>
        <time>2013-09-21T07:29:47.000Z</time>
      </trkpt>
      <trkpt lat="44.97358" lon="5.54456">
        <ele>1148.8000488281</ele>
        <time>2013-09-21T07:29:51.000Z</time>
      </trkpt>
      <trkpt lat="44.97364" lon="5.54472">
        <ele>1149.8000488281</ele>
        <time>2013-09-21T07:29:55.000Z</time>
      </trkpt>
      <trkpt lat="44.97368" lon="5.54486">
        <ele>1150</ele>
        <time>2013-09-21T07:29:59.000Z</time>
      </trkpt>
      <trkpt lat="44.97373" lon="5.54505">
        <ele>1150.5999755859</ele>
        <time>2013-09-21T07:30:04.000Z</time>
      </trkpt>
      <trkpt lat="44.97377" lon="5.54523">
        <ele>1150.8000488281</ele>
        <time>2013-09-21T07:30:09.000Z</time>
      </trkpt>
      <trkpt lat="44.97384" lon="5.54545">
        <ele>1151.5999755859</ele>
        <time>2013-09-21T07:30:15.000Z</time>
      </trkpt>
      <trkpt lat="44.97384" lon="5.54562">
        <ele>1150.4000244141</ele>
        <time>2013-09-21T07:30:20.000Z</time>
      </trkpt>
      <trkpt lat="44.97385" lon="5.5458">
        <ele>1149.1999511719</ele>
        <time>2013-09-21T07:30:25.000Z</time>
      </trkpt>
      <trkpt lat="44.97385" lon="5.54584">
        <ele>1149</ele>
        <time>2013-09-21T07:30:26.000Z</time>
      </trkpt>
      <trkpt lat="44.97389" lon="5.54609">
        <ele>1147</ele>
        <time>2013-09-21T07:30:33.000Z</time>
      </trkpt>
      <trkpt lat="44.9739" lon="5.54613">
        <ele>1147</ele>
        <time>2013-09-21T07:30:34.000Z</time>
      </trkpt>
      <trkpt lat="44.97395" lon="5.54628">
        <ele>1147.5999755859</ele>
        <time>2013-09-21T07:30:39.000Z</time>
      </trkpt>
      <trkpt lat="44.97397" lon="5.54645">
        <ele>1146.4000244141</ele>
        <time>2013-09-21T07:30:44.000Z</time>
      </trkpt>
      <trkpt lat="44.97403" lon="5.54661">
        <ele>1146.8000488281</ele>
        <time>2013-09-21T07:30:49.000Z</time>
      </trkpt>
      <trkpt lat="44.97407" lon="5.5468">
        <ele>1146.1999511719</ele>
        <time>2013-09-21T07:30:55.000Z</time>
      </trkpt>
      <trkpt lat="44.97411" lon="5.54697">
        <ele>1146</ele>
        <time>2013-09-21T07:31:00.000Z</time>
      </trkpt>
      <trkpt lat="44.97418" lon="5.54709">
        <ele>1147.5999755859</ele>
        <time>2013-09-21T07:31:05.000Z</time>
      </trkpt>
      <trkpt lat="44.97424" lon="5.54725">
        <ele>1147.1999511719</ele>
        <time>2013-09-21T07:31:10.000Z</time>
      </trkpt>
      <trkpt lat="44.97425" lon="5.54728">
        <ele>1147.1999511719</ele>
        <time>2013-09-21T07:31:11.000Z</time>
      </trkpt>
      <trkpt lat="44.97436" lon="5.54739">
        <ele>1148.8000488281</ele>
        <time>2013-09-21T07:31:17.000Z</time>
      </trkpt>
      <trkpt lat="44.97449" lon="5.54742">
        <ele>1151.8000488281</ele>
        <time>2013-09-21T07:31:22.000Z</time>
      </trkpt>
      <trkpt lat="44.97464" lon="5.54747">
        <ele>1154.8000488281</ele>
        <time>2013-09-21T07:31:27.000Z</time>
      </trkpt>
      <trkpt lat="44.97476" lon="5.54756">
        <ele>1156.5999755859</ele>
        <time>2013-09-21T07:31:32.000Z</time>
      </trkpt>
      <trkpt lat="44.97493" lon="5.54767">
        <ele>1159.1999511719</ele>
        <time>2013-09-21T07:31:38.000Z</time>
      </trkpt>
      <trkpt lat="44.97507" lon="5.54782">
        <ele>1159</ele>
        <time>2013-09-21T07:31:44.000Z</time>
      </trkpt>
      <trkpt lat="44.97518" lon="5.54791">
        <ele>1158.1999511719</ele>
        <time>2013-09-21T07:31:49.000Z</time>
      </trkpt>
      <trkpt lat="44.97529" lon="5.54793">
        <ele>1158.8000488281</ele>
        <time>2013-09-21T07:31:53.000Z</time>
      </trkpt>
      <trkpt lat="44.97545" lon="5.54788">
        <ele>1160.8000488281</ele>
        <time>2013-09-21T07:31:59.000Z</time>
      </trkpt>
      <trkpt lat="44.97557" lon="5.54789">
        <ele>1161.4000244141</ele>
        <time>2013-09-21T07:32:04.000Z</time>
      </trkpt>
      <trkpt lat="44.97571" lon="5.54792">
        <ele>1162</ele>
        <time>2013-09-21T07:32:09.000Z</time>
      </trkpt>
      <trkpt lat="44.97575" lon="5.54794">
        <ele>1162</ele>
        <time>2013-09-21T07:32:11.000Z</time>
      </trkpt>
      <trkpt lat="44.97591" lon="5.54787">
        <ele>1163.5999755859</ele>
        <time>2013-09-21T07:32:18.000Z</time>
      </trkpt>
      <trkpt lat="44.97603" lon="5.54774">
        <ele>1165.8000488281</ele>
        <time>2013-09-21T07:32:23.000Z</time>
      </trkpt>
      <trkpt lat="44.97613" lon="5.54764">
        <ele>1167.5999755859</ele>
        <time>2013-09-21T07:32:28.000Z</time>
      </trkpt>
      <trkpt lat="44.97623" lon="5.54754">
        <ele>1169.5999755859</ele>
        <time>2013-09-21T07:32:33.000Z</time>
      </trkpt>
      <trkpt lat="44.97634" lon="5.54744">
        <ele>1172</ele>
        <time>2013-09-21T07:32:38.000Z</time>
      </trkpt>
      <trkpt lat="44.97648" lon="5.54733">
        <ele>1175</ele>
        <time>2013-09-21T07:32:44.000Z</time>
      </trkpt>
      <trkpt lat="44.97659" lon="5.54731">
        <ele>1175.8000488281</ele>
        <time>2013-09-21T07:32:49.000Z</time>
      </trkpt>
      <trkpt lat="44.97668" lon="5.54729">
        <ele>1176.5999755859</ele>
        <time>2013-09-21T07:32:52.000Z</time>
      </trkpt>
      <trkpt lat="44.97678" lon="5.54727">
        <ele>1178.1999511719</ele>
        <time>2013-09-21T07:32:57.000Z</time>
      </trkpt>
      <trkpt lat="44.97691" lon="5.54729">
        <ele>1179</ele>
        <time>2013-09-21T07:33:02.000Z</time>
      </trkpt>
      <trkpt lat="44.97708" lon="5.54733">
        <ele>1180.1999511719</ele>
        <time>2013-09-21T07:33:08.000Z</time>
      </trkpt>
      <trkpt lat="44.9772" lon="5.54737">
        <ele>1180.8000488281</ele>
        <time>2013-09-21T07:33:13.000Z</time>
      </trkpt>
      <trkpt lat="44.9773" lon="5.54747">
        <ele>1179.8000488281</ele>
        <time>2013-09-21T07:33:18.000Z</time>
      </trkpt>
      <trkpt lat="44.9774" lon="5.5476">
        <ele>1179.4000244141</ele>
        <time>2013-09-21T07:33:23.000Z</time>
      </trkpt>
      <trkpt lat="44.97752" lon="5.54776">
        <ele>1180.1999511719</ele>
        <time>2013-09-21T07:33:29.000Z</time>
      </trkpt>
      <trkpt lat="44.97762" lon="5.54789">
        <ele>1182.5999755859</ele>
        <time>2013-09-21T07:33:34.000Z</time>
      </trkpt>
      <trkpt lat="44.97769" lon="5.54806">
        <ele>1183.8000488281</ele>
        <time>2013-09-21T07:33:39.000Z</time>
      </trkpt>
      <trkpt lat="44.97772" lon="5.54824">
        <ele>1183.5999755859</ele>
        <time>2013-09-21T07:33:44.000Z</time>
      </trkpt>
      <trkpt lat="44.97777" lon="5.54843">
        <ele>1185.1999511719</ele>
        <time>2013-09-21T07:33:50.000Z</time>
      </trkpt>
      <trkpt lat="44.97778" lon="5.54865">
        <ele>1185</ele>
        <time>2013-09-21T07:33:56.000Z</time>
      </trkpt>
      <trkpt lat="44.97784" lon="5.54885">
        <ele>1186.8000488281</ele>
        <time>2013-09-21T07:34:02.000Z</time>
      </trkpt>
      <trkpt lat="44.97783" lon="5.54902">
        <ele>1186</ele>
        <time>2013-09-21T07:34:07.000Z</time>
      </trkpt>
      <trkpt lat="44.97781" lon="5.5492">
        <ele>1184.5999755859</ele>
        <time>2013-09-21T07:34:12.000Z</time>
      </trkpt>
      <trkpt lat="44.97779" lon="5.54941">
        <ele>1182.4000244141</ele>
        <time>2013-09-21T07:34:18.000Z</time>
      </trkpt>
      <trkpt lat="44.97779" lon="5.54962">
        <ele>1181.4000244141</ele>
        <time>2013-09-21T07:34:24.000Z</time>
      </trkpt>
      <trkpt lat="44.97778" lon="5.54983">
        <ele>1179.5999755859</ele>
        <time>2013-09-21T07:34:30.000Z</time>
      </trkpt>
      <trkpt lat="44.97778" lon="5.54986">
        <ele>1179.4000244141</ele>
        <time>2013-09-21T07:34:31.000Z</time>
      </trkpt>
      <trkpt lat="44.97776" lon="5.55009">
        <ele>1177.4000244141</ele>
        <time>2013-09-21T07:34:37.000Z</time>
      </trkpt>
      <trkpt lat="44.97778" lon="5.55028">
        <ele>1176.5999755859</ele>
        <time>2013-09-21T07:34:43.000Z</time>
      </trkpt>
      <trkpt lat="44.97781" lon="5.55035">
        <ele>1176.4000244141</ele>
        <time>2013-09-21T07:34:45.000Z</time>
      </trkpt>
      <trkpt lat="44.97789" lon="5.5504">
        <ele>1177.4000244141</ele>
        <time>2013-09-21T07:34:49.000Z</time>
      </trkpt>
      <trkpt lat="44.97803" lon="5.55036">
        <ele>1180.1999511719</ele>
        <time>2013-09-21T07:34:55.000Z</time>
      </trkpt>
      <trkpt lat="44.97817" lon="5.5502">
        <ele>1185</ele>
        <time>2013-09-21T07:35:01.000Z</time>
      </trkpt>
      <trkpt lat="44.9783" lon="5.55005">
        <ele>1190.1999511719</ele>
        <time>2013-09-21T07:35:07.000Z</time>
      </trkpt>
      <trkpt lat="44.97842" lon="5.54992">
        <ele>1192</ele>
        <time>2013-09-21T07:35:13.000Z</time>
      </trkpt>
      <trkpt lat="44.97854" lon="5.54976">
        <ele>1192.8000488281</ele>
        <time>2013-09-21T07:35:19.000Z</time>
      </trkpt>
      <trkpt lat="44.97863" lon="5.54963">
        <ele>1193.8000488281</ele>
        <time>2013-09-21T07:35:24.000Z</time>
      </trkpt>
      <trkpt lat="44.97874" lon="5.54949">
        <ele>1194.8000488281</ele>
        <time>2013-09-21T07:35:30.000Z</time>
      </trkpt>
      <trkpt lat="44.97884" lon="5.54932">
        <ele>1196.5999755859</ele>
        <time>2013-09-21T07:35:36.000Z</time>
      </trkpt>
      <trkpt lat="44.97892" lon="5.54918">
        <ele>1198.1999511719</ele>
        <time>2013-09-21T07:35:41.000Z</time>
      </trkpt>
      <trkpt lat="44.97903" lon="5.54898">
        <ele>1200.1999511719</ele>
        <time>2013-09-21T07:35:48.000Z</time>
      </trkpt>
      <trkpt lat="44.9791" lon="5.54883">
        <ele>1202.1999511719</ele>
        <time>2013-09-21T07:35:53.000Z</time>
      </trkpt>
      <trkpt lat="44.97917" lon="5.54864">
        <ele>1205.5999755859</ele>
        <time>2013-09-21T07:35:59.000Z</time>
      </trkpt>
      <trkpt lat="44.97925" lon="5.54846">
        <ele>1208.1999511719</ele>
        <time>2013-09-21T07:36:05.000Z</time>
      </trkpt>
      <trkpt lat="44.97931" lon="5.54828">
        <ele>1211.4000244141</ele>
        <time>2013-09-21T07:36:11.000Z</time>
      </trkpt>
      <trkpt lat="44.97938" lon="5.54815">
        <ele>1213.8000488281</ele>
        <time>2013-09-21T07:36:16.000Z</time>
      </trkpt>
      <trkpt lat="44.97945" lon="5.54801">
        <ele>1216</ele>
        <time>2013-09-21T07:36:21.000Z</time>
      </trkpt>
      <trkpt lat="44.97958" lon="5.54782">
        <ele>1218.1999511719</ele>
        <time>2013-09-21T07:36:29.000Z</time>
      </trkpt>
      <trkpt lat="44.97969" lon="5.54767">
        <ele>1219</ele>
        <time>2013-09-21T07:36:35.000Z</time>
      </trkpt>
      <trkpt lat="44.97983" lon="5.54755">
        <ele>1218.1999511719</ele>
        <time>2013-09-21T07:36:42.000Z</time>
      </trkpt>
      <trkpt lat="44.97994" lon="5.54746">
        <ele>1217.5999755859</ele>
        <time>2013-09-21T07:36:48.000Z</time>
      </trkpt>
      <trkpt lat="44.98004" lon="5.54737">
        <ele>1218.8000488281</ele>
        <time>2013-09-21T07:36:54.000Z</time>
      </trkpt>
      <trkpt lat="44.98013" lon="5.54728">
        <ele>1221.1999511719</ele>
        <time>2013-09-21T07:36:59.000Z</time>
      </trkpt>
      <trkpt lat="44.98018" lon="5.54716">
        <ele>1224.4000244141</ele>
        <time>2013-09-21T07:37:03.000Z</time>
      </trkpt>
      <trkpt lat="44.98028" lon="5.54705">
        <ele>1226.8000488281</ele>
        <time>2013-09-21T07:37:08.000Z</time>
      </trkpt>
      <trkpt lat="44.98039" lon="5.54696">
        <ele>1228.1999511719</ele>
        <time>2013-09-21T07:37:13.000Z</time>
      </trkpt>
      <trkpt lat="44.98046" lon="5.54688">
        <ele>1229.5999755859</ele>
        <time>2013-09-21T07:37:16.000Z</time>
      </trkpt>
      <trkpt lat="44.98056" lon="5.54691">
        <ele>1228.1999511719</ele>
        <time>2013-09-21T07:37:21.000Z</time>
      </trkpt>
      <trkpt lat="44.98071" lon="5.54698">
        <ele>1225.4000244141</ele>
        <time>2013-09-21T07:37:26.000Z</time>
      </trkpt>
      <trkpt lat="44.98073" lon="5.54701">
        <ele>1224.8000488281</ele>
        <time>2013-09-21T07:37:27.000Z</time>
      </trkpt>
      <trkpt lat="44.98085" lon="5.54718">
        <ele>1221.5999755859</ele>
        <time>2013-09-21T07:37:33.000Z</time>
      </trkpt>
      <trkpt lat="44.98102" lon="5.5473">
        <ele>1222.4000244141</ele>
        <time>2013-09-21T07:37:40.000Z</time>
      </trkpt>
      <trkpt lat="44.98113" lon="5.54736">
        <ele>1223.1999511719</ele>
        <time>2013-09-21T07:37:46.000Z</time>
      </trkpt>
      <trkpt lat="44.98124" lon="5.54736">
        <ele>1225.1999511719</ele>
        <time>2013-09-21T07:37:52.000Z</time>
      </trkpt>
      <trkpt lat="44.98133" lon="5.5474">
        <ele>1226.1999511719</ele>
        <time>2013-09-21T07:37:57.000Z</time>
      </trkpt>
      <trkpt lat="44.98135" lon="5.54741">
        <ele>1226.4000244141</ele>
        <time>2013-09-21T07:37:58.000Z</time>
      </trkpt>
      <trkpt lat="44.98144" lon="5.54756">
        <ele>1226.1999511719</ele>
        <time>2013-09-21T07:38:03.000Z</time>
      </trkpt>
      <trkpt lat="44.98156" lon="5.54774">
        <ele>1227</ele>
        <time>2013-09-21T07:38:09.000Z</time>
      </trkpt>
      <trkpt lat="44.98162" lon="5.54789">
        <ele>1226.8000488281</ele>
        <time>2013-09-21T07:38:14.000Z</time>
      </trkpt>
      <trkpt lat="44.9817" lon="5.54804">
        <ele>1227.5999755859</ele>
        <time>2013-09-21T07:38:20.000Z</time>
      </trkpt>
      <trkpt lat="44.98175" lon="5.54822">
        <ele>1228.1999511719</ele>
        <time>2013-09-21T07:38:26.000Z</time>
      </trkpt>
      <trkpt lat="44.98176" lon="5.54837">
        <ele>1228</ele>
        <time>2013-09-21T07:38:31.000Z</time>
      </trkpt>
      <trkpt lat="44.98173" lon="5.54856">
        <ele>1227.8000488281</ele>
        <time>2013-09-21T07:38:37.000Z</time>
      </trkpt>
      <trkpt lat="44.98175" lon="5.54879">
        <ele>1230</ele>
        <time>2013-09-21T07:38:44.000Z</time>
      </trkpt>
      <trkpt lat="44.98178" lon="5.54893">
        <ele>1232.4000244141</ele>
        <time>2013-09-21T07:38:48.000Z</time>
      </trkpt>
      <trkpt lat="44.98183" lon="5.54913">
        <ele>1236.5999755859</ele>
        <time>2013-09-21T07:38:54.000Z</time>
      </trkpt>
      <trkpt lat="44.98184" lon="5.54933">
        <ele>1239.1999511719</ele>
        <time>2013-09-21T07:39:00.000Z</time>
      </trkpt>
      <trkpt lat="44.98183" lon="5.5495">
        <ele>1240.4000244141</ele>
        <time>2013-09-21T07:39:05.000Z</time>
      </trkpt>
      <trkpt lat="44.98181" lon="5.54972">
        <ele>1242</ele>
        <time>2013-09-21T07:39:12.000Z</time>
      </trkpt>
      <trkpt lat="44.9818" lon="5.54986">
        <ele>1242.8000488281</ele>
        <time>2013-09-21T07:39:17.000Z</time>
      </trkpt>
      <trkpt lat="44.98179" lon="5.55004">
        <ele>1243.8000488281</ele>
        <time>2013-09-21T07:39:23.000Z</time>
      </trkpt>
      <trkpt lat="44.98175" lon="5.55018">
        <ele>1243</ele>
        <time>2013-09-21T07:39:28.000Z</time>
      </trkpt>
      <trkpt lat="44.9817" lon="5.55031">
        <ele>1241.4000244141</ele>
        <time>2013-09-21T07:39:32.000Z</time>
      </trkpt>
      <trkpt lat="44.98165" lon="5.55051">
        <ele>1240.5999755859</ele>
        <time>2013-09-21T07:39:38.000Z</time>
      </trkpt>
      <trkpt lat="44.9816" lon="5.55067">
        <ele>1239.5999755859</ele>
        <time>2013-09-21T07:39:43.000Z</time>
      </trkpt>
      <trkpt lat="44.98153" lon="5.55085">
        <ele>1238</ele>
        <time>2013-09-21T07:39:49.000Z</time>
      </trkpt>
      <trkpt lat="44.98145" lon="5.55104">
        <ele>1234.8000488281</ele>
        <time>2013-09-21T07:39:56.000Z</time>
      </trkpt>
      <trkpt lat="44.98137" lon="5.55124">
        <ele>1232.5999755859</ele>
        <time>2013-09-21T07:40:02.000Z</time>
      </trkpt>
      <trkpt lat="44.98137" lon="5.55128">
        <ele>1232.4000244141</ele>
        <time>2013-09-21T07:40:03.000Z</time>
      </trkpt>
      <trkpt lat="44.98143" lon="5.55144">
        <ele>1235.1999511719</ele>
        <time>2013-09-21T07:40:08.000Z</time>
      </trkpt>
      <trkpt lat="44.98154" lon="5.55143">
        <ele>1238.8000488281</ele>
        <time>2013-09-21T07:40:12.000Z</time>
      </trkpt>
      <trkpt lat="44.98173" lon="5.55137">
        <ele>1245.4000244141</ele>
        <time>2013-09-21T07:40:19.000Z</time>
      </trkpt>
      <trkpt lat="44.98189" lon="5.55138">
        <ele>1250.5999755859</ele>
        <time>2013-09-21T07:40:25.000Z</time>
      </trkpt>
      <trkpt lat="44.98199" lon="5.5515">
        <ele>1253.4000244141</ele>
        <time>2013-09-21T07:40:30.000Z</time>
      </trkpt>
      <trkpt lat="44.98201" lon="5.55164">
        <ele>1253.1999511719</ele>
        <time>2013-09-21T07:40:34.000Z</time>
      </trkpt>
      <trkpt lat="44.98203" lon="5.55182">
        <ele>1251.1999511719</ele>
        <time>2013-09-21T07:40:39.000Z</time>
      </trkpt>
      <trkpt lat="44.98204" lon="5.55199">
        <ele>1248</ele>
        <time>2013-09-21T07:40:44.000Z</time>
      </trkpt>
      <trkpt lat="44.98205" lon="5.55221">
        <ele>1244.1999511719</ele>
        <time>2013-09-21T07:40:50.000Z</time>
      </trkpt>
      <trkpt lat="44.98208" lon="5.55239">
        <ele>1242</ele>
        <time>2013-09-21T07:40:55.000Z</time>
      </trkpt>
      <trkpt lat="44.98216" lon="5.55255">
        <ele>1241.1999511719</ele>
        <time>2013-09-21T07:41:00.000Z</time>
      </trkpt>
      <trkpt lat="44.98228" lon="5.55261">
        <ele>1242.8000488281</ele>
        <time>2013-09-21T07:41:05.000Z</time>
      </trkpt>
      <trkpt lat="44.98244" lon="5.55264">
        <ele>1246.8000488281</ele>
        <time>2013-09-21T07:41:12.000Z</time>
      </trkpt>
      <trkpt lat="44.98263" lon="5.55265">
        <ele>1252.8000488281</ele>
        <time>2013-09-21T07:41:19.000Z</time>
      </trkpt>
      <trkpt lat="44.98279" lon="5.55272">
        <ele>1257.1999511719</ele>
        <time>2013-09-21T07:41:25.000Z</time>
      </trkpt>
      <trkpt lat="44.98287" lon="5.55283">
        <ele>1258.8000488281</ele>
        <time>2013-09-21T07:41:29.000Z</time>
      </trkpt>
      <trkpt lat="44.98295" lon="5.55297">
        <ele>1260.4000244141</ele>
        <time>2013-09-21T07:41:34.000Z</time>
      </trkpt>
      <trkpt lat="44.983" lon="5.55315">
        <ele>1260.1999511719</ele>
        <time>2013-09-21T07:41:39.000Z</time>
      </trkpt>
      <trkpt lat="44.98304" lon="5.55341">
        <ele>1259.4000244141</ele>
        <time>2013-09-21T07:41:46.000Z</time>
      </trkpt>
      <trkpt lat="44.98307" lon="5.55363">
        <ele>1258.8000488281</ele>
        <time>2013-09-21T07:41:52.000Z</time>
      </trkpt>
      <trkpt lat="44.9831" lon="5.55383">
        <ele>1258.8000488281</ele>
        <time>2013-09-21T07:41:58.000Z</time>
      </trkpt>
      <trkpt lat="44.98313" lon="5.55403">
        <ele>1258.5999755859</ele>
        <time>2013-09-21T07:42:04.000Z</time>
      </trkpt>
      <trkpt lat="44.9832" lon="5.55419">
        <ele>1260</ele>
        <time>2013-09-21T07:42:09.000Z</time>
      </trkpt>
      <trkpt lat="44.98328" lon="5.55428">
        <ele>1260.8000488281</ele>
        <time>2013-09-21T07:42:13.000Z</time>
      </trkpt>
      <trkpt lat="44.98334" lon="5.55444">
        <ele>1258.5999755859</ele>
        <time>2013-09-21T07:42:18.000Z</time>
      </trkpt>
      <trkpt lat="44.98345" lon="5.5545">
        <ele>1259.5999755859</ele>
        <time>2013-09-21T07:42:23.000Z</time>
      </trkpt>
      <trkpt lat="44.98345" lon="5.55451">
        <ele>1259.4000244141</ele>
        <time>2013-09-21T07:42:24.000Z</time>
      </trkpt>
      <trkpt lat="44.98359" lon="5.55453">
        <ele>1262.1999511719</ele>
        <time>2013-09-21T07:42:30.000Z</time>
      </trkpt>
      <trkpt lat="44.98371" lon="5.55454">
        <ele>1265.4000244141</ele>
        <time>2013-09-21T07:42:35.000Z</time>
      </trkpt>
      <trkpt lat="44.98388" lon="5.55456">
        <ele>1268.8000488281</ele>
        <time>2013-09-21T07:42:41.000Z</time>
      </trkpt>
      <trkpt lat="44.98399" lon="5.55465">
        <ele>1267.5999755859</ele>
        <time>2013-09-21T07:42:47.000Z</time>
      </trkpt>
      <trkpt lat="44.98402" lon="5.55469">
        <ele>1266</ele>
        <time>2013-09-21T07:42:50.000Z</time>
      </trkpt>
      <trkpt lat="44.98412" lon="5.55471">
        <ele>1267.1999511719</ele>
        <time>2013-09-21T07:42:54.000Z</time>
      </trkpt>
      <trkpt lat="44.9843" lon="5.55465">
        <ele>1273.5999755859</ele>
        <time>2013-09-21T07:42:59.000Z</time>
      </trkpt>
      <trkpt lat="44.98448" lon="5.55456">
        <ele>1281.4000244141</ele>
        <time>2013-09-21T07:43:03.000Z</time>
      </trkpt>
      <trkpt lat="44.98461" lon="5.55458">
        <ele>1282.1999511719</ele>
        <time>2013-09-21T07:43:08.000Z</time>
      </trkpt>
      <trkpt lat="44.98475" lon="5.55468">
        <ele>1279.1999511719</ele>
        <time>2013-09-21T07:43:14.000Z</time>
      </trkpt>
      <trkpt lat="44.9849" lon="5.55471">
        <ele>1280</ele>
        <time>2013-09-21T07:43:19.000Z</time>
      </trkpt>
      <trkpt lat="44.98506" lon="5.5547">
        <ele>1281.5999755859</ele>
        <time>2013-09-21T07:43:24.000Z</time>
      </trkpt>
      <trkpt lat="44.98519" lon="5.5547">
        <ele>1280.8000488281</ele>
        <time>2013-09-21T07:43:28.000Z</time>
      </trkpt>
      <trkpt lat="44.98524" lon="5.55472">
        <ele>1279.4000244141</ele>
        <time>2013-09-21T07:43:30.000Z</time>
      </trkpt>
      <trkpt lat="44.98533" lon="5.55485">
        <ele>1271.1999511719</ele>
        <time>2013-09-21T07:43:36.000Z</time>
      </trkpt>
      <trkpt lat="44.98552" lon="5.55488">
        <ele>1268.5999755859</ele>
        <time>2013-09-21T07:43:43.000Z</time>
      </trkpt>
      <trkpt lat="44.98569" lon="5.55487">
        <ele>1268</ele>
        <time>2013-09-21T07:43:48.000Z</time>
      </trkpt>
      <trkpt lat="44.98583" lon="5.55485">
        <ele>1268.1999511719</ele>
        <time>2013-09-21T07:43:52.000Z</time>
      </trkpt>
      <trkpt lat="44.98596" lon="5.55484">
        <ele>1269.8000488281</ele>
        <time>2013-09-21T07:43:57.000Z</time>
      </trkpt>
      <trkpt lat="44.98616" lon="5.55483">
        <ele>1272</ele>
        <time>2013-09-21T07:44:04.000Z</time>
      </trkpt>
      <trkpt lat="44.98633" lon="5.55477">
        <ele>1275.8000488281</ele>
        <time>2013-09-21T07:44:10.000Z</time>
      </trkpt>
      <trkpt lat="44.98645" lon="5.55475">
        <ele>1277.5999755859</ele>
        <time>2013-09-21T07:44:14.000Z</time>
      </trkpt>
      <trkpt lat="44.98658" lon="5.55476">
        <ele>1277.5999755859</ele>
        <time>2013-09-21T07:44:19.000Z</time>
      </trkpt>
      <trkpt lat="44.98671" lon="5.55478">
        <ele>1277.5999755859</ele>
        <time>2013-09-21T07:44:24.000Z</time>
      </trkpt>
      <trkpt lat="44.9868" lon="5.55478">
        <ele>1277.8000488281</ele>
        <time>2013-09-21T07:44:28.000Z</time>
      </trkpt>
      <trkpt lat="44.98695" lon="5.55472">
        <ele>1280.1999511719</ele>
        <time>2013-09-21T07:44:34.000Z</time>
      </trkpt>
      <trkpt lat="44.987" lon="5.55473">
        <ele>1280</ele>
        <time>2013-09-21T07:44:36.000Z</time>
      </trkpt>
      <trkpt lat="44.98708" lon="5.55471">
        <ele>1280.8000488281</ele>
        <time>2013-09-21T07:44:39.000Z</time>
      </trkpt>
      <trkpt lat="44.98724" lon="5.55463">
        <ele>1283.5999755859</ele>
        <time>2013-09-21T07:44:45.000Z</time>
      </trkpt>
      <trkpt lat="44.98738" lon="5.55461">
        <ele>1283.8000488281</ele>
        <time>2013-09-21T07:44:50.000Z</time>
      </trkpt>
      <trkpt lat="44.98756" lon="5.55461">
        <ele>1284.1999511719</ele>
        <time>2013-09-21T07:44:56.000Z</time>
      </trkpt>
      <trkpt lat="44.98768" lon="5.55459">
        <ele>1285.1999511719</ele>
        <time>2013-09-21T07:45:00.000Z</time>
      </trkpt>
      <trkpt lat="44.9878" lon="5.5547">
        <ele>1283.8000488281</ele>
        <time>2013-09-21T07:45:04.000Z</time>
      </trkpt>
      <trkpt lat="44.98794" lon="5.55491">
        <ele>1281</ele>
        <time>2013-09-21T07:45:10.000Z</time>
      </trkpt>
      <trkpt lat="44.98811" lon="5.55516">
        <ele>1280.8000488281</ele>
        <time>2013-09-21T07:45:16.000Z</time>
      </trkpt>
      <trkpt lat="44.98813" lon="5.55534">
        <ele>1280.4000244141</ele>
        <time>2013-09-21T07:45:20.000Z</time>
      </trkpt>
      <trkpt lat="44.98812" lon="5.55559">
        <ele>1279.5999755859</ele>
        <time>2013-09-21T07:45:25.000Z</time>
      </trkpt>
      <trkpt lat="44.98815" lon="5.55585">
        <ele>1279.4000244141</ele>
        <time>2013-09-21T07:45:30.000Z</time>
      </trkpt>
      <trkpt lat="44.98817" lon="5.55611">
        <ele>1280.1999511719</ele>
        <time>2013-09-21T07:45:35.000Z</time>
      </trkpt>
      <trkpt lat="44.98817" lon="5.55635">
        <ele>1280.4000244141</ele>
        <time>2013-09-21T07:45:40.000Z</time>
      </trkpt>
      <trkpt lat="44.98811" lon="5.55662">
        <ele>1279.5999755859</ele>
        <time>2013-09-21T07:45:46.000Z</time>
      </trkpt>
      <trkpt lat="44.98802" lon="5.55682">
        <ele>1277.1999511719</ele>
        <time>2013-09-21T07:45:50.000Z</time>
      </trkpt>
      <trkpt lat="44.98789" lon="5.55701">
        <ele>1273.5999755859</ele>
        <time>2013-09-21T07:45:55.000Z</time>
      </trkpt>
      <trkpt lat="44.98773" lon="5.55718">
        <ele>1269.1999511719</ele>
        <time>2013-09-21T07:46:00.000Z</time>
      </trkpt>
      <trkpt lat="44.98765" lon="5.55734">
        <ele>1266.4000244141</ele>
        <time>2013-09-21T07:46:05.000Z</time>
      </trkpt>
      <trkpt lat="44.98766" lon="5.5575">
        <ele>1266.4000244141</ele>
        <time>2013-09-21T07:46:09.000Z</time>
      </trkpt>
      <trkpt lat="44.98774" lon="5.55764">
        <ele>1266</ele>
        <time>2013-09-21T07:46:13.000Z</time>
      </trkpt>
      <trkpt lat="44.98786" lon="5.55776">
        <ele>1266.8000488281</ele>
        <time>2013-09-21T07:46:17.000Z</time>
      </trkpt>
      <trkpt lat="44.98801" lon="5.55798">
        <ele>1267.1999511719</ele>
        <time>2013-09-21T07:46:23.000Z</time>
      </trkpt>
      <trkpt lat="44.98818" lon="5.55818">
        <ele>1267.8000488281</ele>
        <time>2013-09-21T07:46:29.000Z</time>
      </trkpt>
      <trkpt lat="44.98832" lon="5.55838">
        <ele>1268</ele>
        <time>2013-09-21T07:46:35.000Z</time>
      </trkpt>
      <trkpt lat="44.98845" lon="5.55861">
        <ele>1270</ele>
        <time>2013-09-21T07:46:41.000Z</time>
      </trkpt>
      <trkpt lat="44.98855" lon="5.55886">
        <ele>1270.1999511719</ele>
        <time>2013-09-21T07:46:47.000Z</time>
      </trkpt>
      <trkpt lat="44.98864" lon="5.55898">
        <ele>1271.8000488281</ele>
        <time>2013-09-21T07:46:51.000Z</time>
      </trkpt>
      <trkpt lat="44.98877" lon="5.55907">
        <ele>1274.5999755859</ele>
        <time>2013-09-21T07:46:55.000Z</time>
      </trkpt>
      <trkpt lat="44.98884" lon="5.55926">
        <ele>1275.4000244141</ele>
        <time>2013-09-21T07:46:59.000Z</time>
      </trkpt>
      <trkpt lat="44.98877" lon="5.55948">
        <ele>1273.5999755859</ele>
        <time>2013-09-21T07:47:04.000Z</time>
      </trkpt>
      <trkpt lat="44.98873" lon="5.55965">
        <ele>1273.1999511719</ele>
        <time>2013-09-21T07:47:09.000Z</time>
      </trkpt>
      <trkpt lat="44.98872" lon="5.55977">
        <ele>1273</ele>
        <time>2013-09-21T07:47:13.000Z</time>
      </trkpt>
      <trkpt lat="44.98868" lon="5.55991">
        <ele>1272.5999755859</ele>
        <time>2013-09-21T07:47:17.000Z</time>
      </trkpt>
      <trkpt lat="44.98867" lon="5.55993">
        <ele>1272.4000244141</ele>
        <time>2013-09-21T07:47:18.000Z</time>
      </trkpt>
      <trkpt lat="44.98868" lon="5.55989">
        <ele>1272.4000244141</ele>
        <time>2013-09-21T07:47:22.000Z</time>
      </trkpt>
      <trkpt lat="44.98868" lon="5.55988">
        <ele>1272.5999755859</ele>
        <time>2013-09-21T07:47:23.000Z</time>
      </trkpt>
      <trkpt lat="44.98878" lon="5.5598">
        <ele>1274.1999511719</ele>
        <time>2013-09-21T07:47:29.000Z</time>
      </trkpt>
      <trkpt lat="44.98888" lon="5.55973">
        <ele>1276.1999511719</ele>
        <time>2013-09-21T07:47:34.000Z</time>
      </trkpt>
      <trkpt lat="44.98895" lon="5.55965">
        <ele>1277.8000488281</ele>
        <time>2013-09-21T07:47:39.000Z</time>
      </trkpt>
      <trkpt lat="44.98905" lon="5.55963">
        <ele>1280.1999511719</ele>
        <time>2013-09-21T07:47:45.000Z</time>
      </trkpt>
      <trkpt lat="44.98909" lon="5.55962">
        <ele>1281</ele>
        <time>2013-09-21T07:47:47.000Z</time>
      </trkpt>
      <trkpt lat="44.98917" lon="5.5597">
        <ele>1282.4000244141</ele>
        <time>2013-09-21T07:47:53.000Z</time>
      </trkpt>
      <trkpt lat="44.9892" lon="5.55977">
        <ele>1282.5999755859</ele>
        <time>2013-09-21T07:47:55.000Z</time>
      </trkpt>
      <trkpt lat="44.98916" lon="5.56003">
        <ele>1280.5999755859</ele>
        <time>2013-09-21T07:48:03.000Z</time>
      </trkpt>
      <trkpt lat="44.98917" lon="5.56014">
        <ele>1279.5999755859</ele>
        <time>2013-09-21T07:48:07.000Z</time>
      </trkpt>
      <trkpt lat="44.98925" lon="5.56022">
        <ele>1280.1999511719</ele>
        <time>2013-09-21T07:48:11.000Z</time>
      </trkpt>
      <trkpt lat="44.98927" lon="5.56022">
        <ele>1280.5999755859</ele>
        <time>2013-09-21T07:48:12.000Z</time>
      </trkpt>
      <trkpt lat="44.98935" lon="5.56025">
        <ele>1281.8000488281</ele>
        <time>2013-09-21T07:48:17.000Z</time>
      </trkpt>
      <trkpt lat="44.98944" lon="5.5603">
        <ele>1282.5999755859</ele>
        <time>2013-09-21T07:48:22.000Z</time>
      </trkpt>
      <trkpt lat="44.98955" lon="5.5603">
        <ele>1284.4000244141</ele>
        <time>2013-09-21T07:48:28.000Z</time>
      </trkpt>
      <trkpt lat="44.98959" lon="5.5603">
        <ele>1285</ele>
        <time>2013-09-21T07:48:30.000Z</time>
      </trkpt>
      <trkpt lat="44.98972" lon="5.56033">
        <ele>1286.8000488281</ele>
        <time>2013-09-21T07:48:37.000Z</time>
      </trkpt>
      <trkpt lat="44.98984" lon="5.56033">
        <ele>1289</ele>
        <time>2013-09-21T07:48:42.000Z</time>
      </trkpt>
      <trkpt lat="44.98994" lon="5.56036">
        <ele>1290</ele>
        <time>2013-09-21T07:48:47.000Z</time>
      </trkpt>
      <trkpt lat="44.99007" lon="5.56037">
        <ele>1292.4000244141</ele>
        <time>2013-09-21T07:48:53.000Z</time>
      </trkpt>
      <trkpt lat="44.99016" lon="5.56037">
        <ele>1294</ele>
        <time>2013-09-21T07:48:58.000Z</time>
      </trkpt>
      <trkpt lat="44.99027" lon="5.56037">
        <ele>1296.1999511719</ele>
        <time>2013-09-21T07:49:03.000Z</time>
      </trkpt>
      <trkpt lat="44.99042" lon="5.56032">
        <ele>1299.8000488281</ele>
        <time>2013-09-21T07:49:09.000Z</time>
      </trkpt>
      <trkpt lat="44.99055" lon="5.56032">
        <ele>1302.4000244141</ele>
        <time>2013-09-21T07:49:14.000Z</time>
      </trkpt>
      <trkpt lat="44.9907" lon="5.56035">
        <ele>1304.8000488281</ele>
        <time>2013-09-21T07:49:20.000Z</time>
      </trkpt>
      <trkpt lat="44.99078" lon="5.56039">
        <ele>1305.8000488281</ele>
        <time>2013-09-21T07:49:24.000Z</time>
      </trkpt>
      <trkpt lat="44.99084" lon="5.56037">
        <ele>1307.4000244141</ele>
        <time>2013-09-21T07:49:27.000Z</time>
      </trkpt>
      <trkpt lat="44.99088" lon="5.56028">
        <ele>1309.5999755859</ele>
        <time>2013-09-21T07:49:32.000Z</time>
      </trkpt>
      <trkpt lat="44.99081" lon="5.56019">
        <ele>1309.5999755859</ele>
        <time>2013-09-21T07:49:37.000Z</time>
      </trkpt>
      <trkpt lat="44.99066" lon="5.56016">
        <ele>1306.8000488281</ele>
        <time>2013-09-21T07:49:43.000Z</time>
      </trkpt>
      <trkpt lat="44.99052" lon="5.56008">
        <ele>1305.4000244141</ele>
        <time>2013-09-21T07:49:48.000Z</time>
      </trkpt>
      <trkpt lat="44.99044" lon="5.55993">
        <ele>1306</ele>
        <time>2013-09-21T07:49:53.000Z</time>
      </trkpt>
      <trkpt lat="44.99044" lon="5.55971">
        <ele>1309.4000244141</ele>
        <time>2013-09-21T07:49:58.000Z</time>
      </trkpt>
      <trkpt lat="44.99039" lon="5.55948">
        <ele>1312.1999511719</ele>
        <time>2013-09-21T07:50:05.000Z</time>
      </trkpt>
      <trkpt lat="44.99033" lon="5.55928">
        <ele>1313.8000488281</ele>
        <time>2013-09-21T07:50:11.000Z</time>
      </trkpt>
      <trkpt lat="44.99027" lon="5.55915">
        <ele>1314.5999755859</ele>
        <time>2013-09-21T07:50:16.000Z</time>
      </trkpt>
      <trkpt lat="44.99016" lon="5.55899">
        <ele>1314.5999755859</ele>
        <time>2013-09-21T07:50:23.000Z</time>
      </trkpt>
      <trkpt lat="44.99007" lon="5.55882">
        <ele>1315</ele>
        <time>2013-09-21T07:50:29.000Z</time>
      </trkpt>
      <trkpt lat="44.99" lon="5.55864">
        <ele>1316</ele>
        <time>2013-09-21T07:50:35.000Z</time>
      </trkpt>
      <trkpt lat="44.99002" lon="5.55848">
        <ele>1318.4000244141</ele>
        <time>2013-09-21T07:50:40.000Z</time>
      </trkpt>
      <trkpt lat="44.99007" lon="5.5584">
        <ele>1320.5999755859</ele>
        <time>2013-09-21T07:50:43.000Z</time>
      </trkpt>
      <trkpt lat="44.99022" lon="5.55826">
        <ele>1325.8000488281</ele>
        <time>2013-09-21T07:50:50.000Z</time>
      </trkpt>
      <trkpt lat="44.99036" lon="5.55815">
        <ele>1329.8000488281</ele>
        <time>2013-09-21T07:50:57.000Z</time>
      </trkpt>
      <trkpt lat="44.99047" lon="5.55804">
        <ele>1333.1999511719</ele>
        <time>2013-09-21T07:51:04.000Z</time>
      </trkpt>
      <trkpt lat="44.99054" lon="5.55794">
        <ele>1335.8000488281</ele>
        <time>2013-09-21T07:51:09.000Z</time>
      </trkpt>
      <trkpt lat="44.99055" lon="5.55776">
        <ele>1337.5999755859</ele>
        <time>2013-09-21T07:51:15.000Z</time>
      </trkpt>
      <trkpt lat="44.9905" lon="5.5576">
        <ele>1338.1999511719</ele>
        <time>2013-09-21T07:51:21.000Z</time>
      </trkpt>
      <trkpt lat="44.99041" lon="5.55747">
        <ele>1337.5999755859</ele>
        <time>2013-09-21T07:51:27.000Z</time>
      </trkpt>
      <trkpt lat="44.99029" lon="5.55729">
        <ele>1336.8000488281</ele>
        <time>2013-09-21T07:51:34.000Z</time>
      </trkpt>
      <trkpt lat="44.99027" lon="5.5572">
        <ele>1336.8000488281</ele>
        <time>2013-09-21T07:51:37.000Z</time>
      </trkpt>
      <trkpt lat="44.99031" lon="5.5571">
        <ele>1338.8000488281</ele>
        <time>2013-09-21T07:51:41.000Z</time>
      </trkpt>
      <trkpt lat="44.9904" lon="5.55699">
        <ele>1341.8000488281</ele>
        <time>2013-09-21T07:51:48.000Z</time>
      </trkpt>
      <trkpt lat="44.99043" lon="5.55694">
        <ele>1343</ele>
        <time>2013-09-21T07:51:51.000Z</time>
      </trkpt>
      <trkpt lat="44.99049" lon="5.55686">
        <ele>1345.4000244141</ele>
        <time>2013-09-21T07:51:56.000Z</time>
      </trkpt>
      <trkpt lat="44.99051" lon="5.55684">
        <ele>1346.1999511719</ele>
        <time>2013-09-21T07:51:58.000Z</time>
      </trkpt>
      <trkpt lat="44.99057" lon="5.55679">
        <ele>1348.1999511719</ele>
        <time>2013-09-21T07:52:05.000Z</time>
      </trkpt>
      <trkpt lat="44.9906" lon="5.55676">
        <ele>1349.4000244141</ele>
        <time>2013-09-21T07:52:07.000Z</time>
      </trkpt>
      <trkpt lat="44.99065" lon="5.55676">
        <ele>1350.8000488281</ele>
        <time>2013-09-21T07:52:11.000Z</time>
      </trkpt>
      <trkpt lat="44.99069" lon="5.55681">
        <ele>1351.4000244141</ele>
        <time>2013-09-21T07:52:14.000Z</time>
      </trkpt>
      <trkpt lat="44.99078" lon="5.55686">
        <ele>1353</ele>
        <time>2013-09-21T07:52:20.000Z</time>
      </trkpt>
      <trkpt lat="44.9908" lon="5.55684">
        <ele>1353.8000488281</ele>
        <time>2013-09-21T07:52:21.000Z</time>
      </trkpt>
      <trkpt lat="44.99094" lon="5.55687">
        <ele>1356.4000244141</ele>
        <time>2013-09-21T07:52:27.000Z</time>
      </trkpt>
      <trkpt lat="44.99106" lon="5.55693">
        <ele>1358.1999511719</ele>
        <time>2013-09-21T07:52:33.000Z</time>
      </trkpt>
      <trkpt lat="44.99115" lon="5.55696">
        <ele>1359.5999755859</ele>
        <time>2013-09-21T07:52:38.000Z</time>
      </trkpt>
      <trkpt lat="44.99118" lon="5.55698">
        <ele>1360</ele>
        <time>2013-09-21T07:52:40.000Z</time>
      </trkpt>
      <trkpt lat="44.99126" lon="5.55705">
        <ele>1361</ele>
        <time>2013-09-21T07:52:45.000Z</time>
      </trkpt>
      <trkpt lat="44.99132" lon="5.55713">
        <ele>1361.4000244141</ele>
        <time>2013-09-21T07:52:49.000Z</time>
      </trkpt>
      <trkpt lat="44.99136" lon="5.55718">
        <ele>1361.5999755859</ele>
        <time>2013-09-21T07:52:52.000Z</time>
      </trkpt>
      <trkpt lat="44.99145" lon="5.5573">
        <ele>1362.4000244141</ele>
        <time>2013-09-21T07:52:58.000Z</time>
      </trkpt>
      <trkpt lat="44.99155" lon="5.55734">
        <ele>1364</ele>
        <time>2013-09-21T07:53:03.000Z</time>
      </trkpt>
      <trkpt lat="44.99161" lon="5.55733">
        <ele>1365.4000244141</ele>
        <time>2013-09-21T07:53:06.000Z</time>
      </trkpt>
      <trkpt lat="44.9917" lon="5.5574">
        <ele>1366.5999755859</ele>
        <time>2013-09-21T07:53:12.000Z</time>
      </trkpt>
      <trkpt lat="44.99175" lon="5.55743">
        <ele>1367</ele>
        <time>2013-09-21T07:53:15.000Z</time>
      </trkpt>
      <trkpt lat="44.9918" lon="5.55743">
        <ele>1367.8000488281</ele>
        <time>2013-09-21T07:53:17.000Z</time>
      </trkpt>
      <trkpt lat="44.99188" lon="5.55751">
        <ele>1367.8000488281</ele>
        <time>2013-09-21T07:53:23.000Z</time>
      </trkpt>
      <trkpt lat="44.99194" lon="5.55753">
        <ele>1368.4000244141</ele>
        <time>2013-09-21T07:53:27.000Z</time>
      </trkpt>
      <trkpt lat="44.99203" lon="5.55756">
        <ele>1369.4000244141</ele>
        <time>2013-09-21T07:53:32.000Z</time>
      </trkpt>
      <trkpt lat="44.99204" lon="5.55756">
        <ele>1369.1999511719</ele>
        <time>2013-09-21T07:53:33.000Z</time>
      </trkpt>
      <trkpt lat="44.99214" lon="5.55761">
        <ele>1370.1999511719</ele>
        <time>2013-09-21T07:53:39.000Z</time>
      </trkpt>
      <trkpt lat="44.99224" lon="5.55771">
        <ele>1370</ele>
        <time>2013-09-21T07:53:45.000Z</time>
      </trkpt>
      <trkpt lat="44.99233" lon="5.55775">
        <ele>1370.5999755859</ele>
        <time>2013-09-21T07:53:50.000Z</time>
      </trkpt>
      <trkpt lat="44.99234" lon="5.55776">
        <ele>1370.8000488281</ele>
        <time>2013-09-21T07:53:51.000Z</time>
      </trkpt>
      <trkpt lat="44.99236" lon="5.55778">
        <ele>1370.8000488281</ele>
        <time>2013-09-21T07:53:53.000Z</time>
      </trkpt>
      <trkpt lat="44.99245" lon="5.55783">
        <ele>1371.4000244141</ele>
        <time>2013-09-21T07:53:59.000Z</time>
      </trkpt>
      <trkpt lat="44.99255" lon="5.55788">
        <ele>1372.5999755859</ele>
        <time>2013-09-21T07:54:05.000Z</time>
      </trkpt>
      <trkpt lat="44.99264" lon="5.55793">
        <ele>1373.8000488281</ele>
        <time>2013-09-21T07:54:10.000Z</time>
      </trkpt>
      <trkpt lat="44.99275" lon="5.5579">
        <ele>1376.4000244141</ele>
        <time>2013-09-21T07:54:15.000Z</time>
      </trkpt>
      <trkpt lat="44.99285" lon="5.55793">
        <ele>1378.4000244141</ele>
        <time>2013-09-21T07:54:20.000Z</time>
      </trkpt>
      <trkpt lat="44.99295" lon="5.558">
        <ele>1379.8000488281</ele>
        <time>2013-09-21T07:54:26.000Z</time>
      </trkpt>
      <trkpt lat="44.99298" lon="5.55798">
        <ele>1380.4000244141</ele>
        <time>2013-09-21T07:54:28.000Z</time>
      </trkpt>
      <trkpt lat="44.993" lon="5.55796">
        <ele>1381.1999511719</ele>
        <time>2013-09-21T07:54:31.000Z</time>
      </trkpt>
      <trkpt lat="44.99311" lon="5.55795">
        <ele>1383.5999755859</ele>
        <time>2013-09-21T07:54:39.000Z</time>
      </trkpt>
      <trkpt lat="44.99317" lon="5.55796">
        <ele>1385</ele>
        <time>2013-09-21T07:54:42.000Z</time>
      </trkpt>
      <trkpt lat="44.99324" lon="5.55799">
        <ele>1386.1999511719</ele>
        <time>2013-09-21T07:54:46.000Z</time>
      </trkpt>
      <trkpt lat="44.99327" lon="5.558">
        <ele>1386.8000488281</ele>
        <time>2013-09-21T07:54:48.000Z</time>
      </trkpt>
      <trkpt lat="44.9933" lon="5.55802">
        <ele>1387.4000244141</ele>
        <time>2013-09-21T07:54:52.000Z</time>
      </trkpt>
      <trkpt lat="44.99333" lon="5.55804">
        <ele>1387.8000488281</ele>
        <time>2013-09-21T07:54:56.000Z</time>
      </trkpt>
      <trkpt lat="44.99336" lon="5.55808">
        <ele>1388.8000488281</ele>
        <time>2013-09-21T07:54:59.000Z</time>
      </trkpt>
      <trkpt lat="44.99339" lon="5.55812">
        <ele>1389.4000244141</ele>
        <time>2013-09-21T07:55:02.000Z</time>
      </trkpt>
      <trkpt lat="44.99343" lon="5.55817">
        <ele>1390.8000488281</ele>
        <time>2013-09-21T07:55:06.000Z</time>
      </trkpt>
      <trkpt lat="44.99352" lon="5.55831">
        <ele>1393</ele>
        <time>2013-09-21T07:55:14.000Z</time>
      </trkpt>
      <trkpt lat="44.99353" lon="5.55834">
        <ele>1393</ele>
        <time>2013-09-21T07:55:16.000Z</time>
      </trkpt>
      <trkpt lat="44.99356" lon="5.55841">
        <ele>1393.4000244141</ele>
        <time>2013-09-21T07:55:20.000Z</time>
      </trkpt>
      <trkpt lat="44.99361" lon="5.55847">
        <ele>1394.8000488281</ele>
        <time>2013-09-21T07:55:25.000Z</time>
      </trkpt>
      <trkpt lat="44.99363" lon="5.55851">
        <ele>1395.1999511719</ele>
        <time>2013-09-21T07:55:29.000Z</time>
      </trkpt>
      <trkpt lat="44.99365" lon="5.55852">
        <ele>1396</ele>
        <time>2013-09-21T07:55:31.000Z</time>
      </trkpt>
      <trkpt lat="44.99369" lon="5.55855">
        <ele>1397.4000244141</ele>
        <time>2013-09-21T07:55:37.000Z</time>
      </trkpt>
      <trkpt lat="44.99371" lon="5.55856">
        <ele>1398.1999511719</ele>
        <time>2013-09-21T07:55:40.000Z</time>
      </trkpt>
      <trkpt lat="44.9938" lon="5.55856">
        <ele>1401.4000244141</ele>
        <time>2013-09-21T07:55:47.000Z</time>
      </trkpt>
      <trkpt lat="44.99385" lon="5.55858">
        <ele>1403</ele>
        <time>2013-09-21T07:55:52.000Z</time>
      </trkpt>
      <trkpt lat="44.99389" lon="5.55873">
        <ele>1403.8000488281</ele>
        <time>2013-09-21T07:55:59.000Z</time>
      </trkpt>
      <trkpt lat="44.99389" lon="5.55883">
        <ele>1403.1999511719</ele>
        <time>2013-09-21T07:56:03.000Z</time>
      </trkpt>
      <trkpt lat="44.99392" lon="5.55887">
        <ele>1404.4000244141</ele>
        <time>2013-09-21T07:56:06.000Z</time>
      </trkpt>
      <trkpt lat="44.99395" lon="5.5589">
        <ele>1405.1999511719</ele>
        <time>2013-09-21T07:56:08.000Z</time>
      </trkpt>
      <trkpt lat="44.99397" lon="5.55897">
        <ele>1405.8000488281</ele>
        <time>2013-09-21T07:56:12.000Z</time>
      </trkpt>
      <trkpt lat="44.99401" lon="5.55918">
        <ele>1406.4000244141</ele>
        <time>2013-09-21T07:56:20.000Z</time>
      </trkpt>
      <trkpt lat="44.99405" lon="5.55933">
        <ele>1406.1999511719</ele>
        <time>2013-09-21T07:56:26.000Z</time>
      </trkpt>
      <trkpt lat="44.99408" lon="5.55945">
        <ele>1405.8000488281</ele>
        <time>2013-09-21T07:56:31.000Z</time>
      </trkpt>
      <trkpt lat="44.99413" lon="5.5595">
        <ele>1407.1999511719</ele>
        <time>2013-09-21T07:56:36.000Z</time>
      </trkpt>
      <trkpt lat="44.99415" lon="5.5595">
        <ele>1408</ele>
        <time>2013-09-21T07:56:37.000Z</time>
      </trkpt>
      <trkpt lat="44.99422" lon="5.55948">
        <ele>1411</ele>
        <time>2013-09-21T07:56:41.000Z</time>
      </trkpt>
      <trkpt lat="44.99431" lon="5.55954">
        <ele>1413.4000244141</ele>
        <time>2013-09-21T07:56:46.000Z</time>
      </trkpt>
      <trkpt lat="44.99441" lon="5.55976">
        <ele>1413.8000488281</ele>
        <time>2013-09-21T07:56:53.000Z</time>
      </trkpt>
      <trkpt lat="44.99445" lon="5.55992">
        <ele>1412.8000488281</ele>
        <time>2013-09-21T07:56:59.000Z</time>
      </trkpt>
      <trkpt lat="44.99449" lon="5.55999">
        <ele>1412.8000488281</ele>
        <time>2013-09-21T07:57:02.000Z</time>
      </trkpt>
      <trkpt lat="44.99453" lon="5.56013">
        <ele>1412.1999511719</ele>
        <time>2013-09-21T07:57:08.000Z</time>
      </trkpt>
      <trkpt lat="44.99461" lon="5.56013">
        <ele>1415.1999511719</ele>
        <time>2013-09-21T07:57:13.000Z</time>
      </trkpt>
      <trkpt lat="44.99465" lon="5.56015">
        <ele>1416</ele>
        <time>2013-09-21T07:57:15.000Z</time>
      </trkpt>
      <trkpt lat="44.99474" lon="5.56021">
        <ele>1418</ele>
        <time>2013-09-21T07:57:20.000Z</time>
      </trkpt>
      <trkpt lat="44.99477" lon="5.56023">
        <ele>1418.8000488281</ele>
        <time>2013-09-21T07:57:22.000Z</time>
      </trkpt>
      <trkpt lat="44.99485" lon="5.5603">
        <ele>1420.1999511719</ele>
        <time>2013-09-21T07:57:27.000Z</time>
      </trkpt>
      <trkpt lat="44.9949" lon="5.56033">
        <ele>1421.4000244141</ele>
        <time>2013-09-21T07:57:30.000Z</time>
      </trkpt>
      <trkpt lat="44.99488" lon="5.56025">
        <ele>1422.1999511719</ele>
        <time>2013-09-21T07:57:36.000Z</time>
      </trkpt>
      <trkpt lat="44.99485" lon="5.56016">
        <ele>1422.5999755859</ele>
        <time>2013-09-21T07:57:41.000Z</time>
      </trkpt>
      <trkpt lat="44.99483" lon="5.56007">
        <ele>1423</ele>
        <time>2013-09-21T07:57:45.000Z</time>
      </trkpt>
      <trkpt lat="44.99482" lon="5.55997">
        <ele>1424.5999755859</ele>
        <time>2013-09-21T07:57:50.000Z</time>
      </trkpt>
      <trkpt lat="44.99482" lon="5.55995">
        <ele>1424.8000488281</ele>
        <time>2013-09-21T07:57:51.000Z</time>
      </trkpt>
      <trkpt lat="44.9948" lon="5.55987">
        <ele>1425.5999755859</ele>
        <time>2013-09-21T07:57:57.000Z</time>
      </trkpt>
      <trkpt lat="44.99477" lon="5.55979">
        <ele>1426.1999511719</ele>
        <time>2013-09-21T07:58:02.000Z</time>
      </trkpt>
      <trkpt lat="44.99474" lon="5.55968">
        <ele>1427.5999755859</ele>
        <time>2013-09-21T07:58:08.000Z</time>
      </trkpt>
      <trkpt lat="44.99475" lon="5.55964">
        <ele>1428.5999755859</ele>
        <time>2013-09-21T07:58:11.000Z</time>
      </trkpt>
      <trkpt lat="44.99474" lon="5.55953">
        <ele>1430.5999755859</ele>
        <time>2013-09-21T07:58:17.000Z</time>
      </trkpt>
      <trkpt lat="44.99474" lon="5.55945">
        <ele>1431.8000488281</ele>
        <time>2013-09-21T07:58:21.000Z</time>
      </trkpt>
      <trkpt lat="44.99474" lon="5.5594">
        <ele>1433.1999511719</ele>
        <time>2013-09-21T07:58:25.000Z</time>
      </trkpt>
      <trkpt lat="44.99471" lon="5.55931">
        <ele>1433.4000244141</ele>
        <time>2013-09-21T07:58:30.000Z</time>
      </trkpt>
      <trkpt lat="44.99467" lon="5.55915">
        <ele>1434.5999755859</ele>
        <time>2013-09-21T07:58:36.000Z</time>
      </trkpt>
      <trkpt lat="44.99467" lon="5.55903">
        <ele>1435.4000244141</ele>
        <time>2013-09-21T07:58:41.000Z</time>
      </trkpt>
      <trkpt lat="44.9947" lon="5.55887">
        <ele>1437.8000488281</ele>
        <time>2013-09-21T07:58:48.000Z</time>
      </trkpt>
      <trkpt lat="44.99469" lon="5.55883">
        <ele>1438</ele>
        <time>2013-09-21T07:58:50.000Z</time>
      </trkpt>
      <trkpt lat="44.99475" lon="5.55869">
        <ele>1441.4000244141</ele>
        <time>2013-09-21T07:58:57.000Z</time>
      </trkpt>
      <trkpt lat="44.9948" lon="5.55854">
        <ele>1445</ele>
        <time>2013-09-21T07:59:03.000Z</time>
      </trkpt>
      <trkpt lat="44.9948" lon="5.55846">
        <ele>1445.5999755859</ele>
        <time>2013-09-21T07:59:07.000Z</time>
      </trkpt>
      <trkpt lat="44.99481" lon="5.55836">
        <ele>1446.5999755859</ele>
        <time>2013-09-21T07:59:11.000Z</time>
      </trkpt>
      <trkpt lat="44.99482" lon="5.55823">
        <ele>1448</ele>
        <time>2013-09-21T07:59:17.000Z</time>
      </trkpt>
      <trkpt lat="44.99484" lon="5.55812">
        <ele>1449.5999755859</ele>
        <time>2013-09-21T07:59:23.000Z</time>
      </trkpt>
      <trkpt lat="44.99485" lon="5.55804">
        <ele>1450.8000488281</ele>
        <time>2013-09-21T07:59:26.000Z</time>
      </trkpt>
      <trkpt lat="44.99487" lon="5.55799">
        <ele>1451.8000488281</ele>
        <time>2013-09-21T07:59:29.000Z</time>
      </trkpt>
      <trkpt lat="44.9949" lon="5.55786">
        <ele>1453.8000488281</ele>
        <time>2013-09-21T07:59:35.000Z</time>
      </trkpt>
      <trkpt lat="44.9949" lon="5.55785">
        <ele>1454.1999511719</ele>
        <time>2013-09-21T07:59:36.000Z</time>
      </trkpt>
      <trkpt lat="44.99489" lon="5.55774">
        <ele>1454.1999511719</ele>
        <time>2013-09-21T07:59:42.000Z</time>
      </trkpt>
      <trkpt lat="44.99485" lon="5.55761">
        <ele>1453.1999511719</ele>
        <time>2013-09-21T07:59:50.000Z</time>
      </trkpt>
      <trkpt lat="44.99485" lon="5.55759">
        <ele>1453.1999511719</ele>
        <time>2013-09-21T07:59:51.000Z</time>
      </trkpt>
      <trkpt lat="44.99487" lon="5.55745">
        <ele>1455.4000244141</ele>
        <time>2013-09-21T07:59:58.000Z</time>
      </trkpt>
      <trkpt lat="44.99488" lon="5.55744">
        <ele>1455.5999755859</ele>
        <time>2013-09-21T07:59:59.000Z</time>
      </trkpt>
      <trkpt lat="44.99489" lon="5.5573">
        <ele>1457</ele>
        <time>2013-09-21T08:00:06.000Z</time>
      </trkpt>
      <trkpt lat="44.99489" lon="5.55728">
        <ele>1457.1999511719</ele>
        <time>2013-09-21T08:00:07.000Z</time>
      </trkpt>
      <trkpt lat="44.9949" lon="5.55712">
        <ele>1458.8000488281</ele>
        <time>2013-09-21T08:00:16.000Z</time>
      </trkpt>
      <trkpt lat="44.9949" lon="5.55702">
        <ele>1459.5999755859</ele>
        <time>2013-09-21T08:00:21.000Z</time>
      </trkpt>
      <trkpt lat="44.9949" lon="5.55697">
        <ele>1459.8000488281</ele>
        <time>2013-09-21T08:00:24.000Z</time>
      </trkpt>
      <trkpt lat="44.9949" lon="5.55683">
        <ele>1461</ele>
        <time>2013-09-21T08:00:31.000Z</time>
      </trkpt>
      <trkpt lat="44.9949" lon="5.55679">
        <ele>1461.4000244141</ele>
        <time>2013-09-21T08:00:33.000Z</time>
      </trkpt>
      <trkpt lat="44.99492" lon="5.55664">
        <ele>1463.5999755859</ele>
        <time>2013-09-21T08:00:40.000Z</time>
      </trkpt>
      <trkpt lat="44.99495" lon="5.55651">
        <ele>1467.4000244141</ele>
        <time>2013-09-21T08:00:46.000Z</time>
      </trkpt>
      <trkpt lat="44.99495" lon="5.55649">
        <ele>1467.8000488281</ele>
        <time>2013-09-21T08:00:47.000Z</time>
      </trkpt>
      <trkpt lat="44.99499" lon="5.55635">
        <ele>1472.1999511719</ele>
        <time>2013-09-21T08:00:56.000Z</time>
      </trkpt>
      <trkpt lat="44.99503" lon="5.55625">
        <ele>1475.8000488281</ele>
        <time>2013-09-21T08:01:01.000Z</time>
      </trkpt>
      <trkpt lat="44.99501" lon="5.55616">
        <ele>1476.5999755859</ele>
        <time>2013-09-21T08:01:06.000Z</time>
      </trkpt>
      <trkpt lat="44.99498" lon="5.55612">
        <ele>1476</ele>
        <time>2013-09-21T08:01:09.000Z</time>
      </trkpt>
      <trkpt lat="44.99492" lon="5.55601">
        <ele>1475.4000244141</ele>
        <time>2013-09-21T08:01:15.000Z</time>
      </trkpt>
      <trkpt lat="44.99494" lon="5.5559">
        <ele>1478.4000244141</ele>
        <time>2013-09-21T08:01:21.000Z</time>
      </trkpt>
      <trkpt lat="44.99496" lon="5.55584">
        <ele>1480.1999511719</ele>
        <time>2013-09-21T08:01:24.000Z</time>
      </trkpt>
      <trkpt lat="44.99498" lon="5.5557">
        <ele>1484</ele>
        <time>2013-09-21T08:01:31.000Z</time>
      </trkpt>
      <trkpt lat="44.99499" lon="5.55561">
        <ele>1486</ele>
        <time>2013-09-21T08:01:38.000Z</time>
      </trkpt>
      <trkpt lat="44.99499" lon="5.55556">
        <ele>1487</ele>
        <time>2013-09-21T08:01:42.000Z</time>
      </trkpt>
      <trkpt lat="44.99494" lon="5.55555">
        <ele>1485.5999755859</ele>
        <time>2013-09-21T08:01:46.000Z</time>
      </trkpt>
      <trkpt lat="44.99494" lon="5.55543">
        <ele>1488.1999511719</ele>
        <time>2013-09-21T08:01:52.000Z</time>
      </trkpt>
      <trkpt lat="44.99494" lon="5.55532">
        <ele>1490.1999511719</ele>
        <time>2013-09-21T08:01:58.000Z</time>
      </trkpt>
      <trkpt lat="44.9949" lon="5.55531">
        <ele>1489</ele>
        <time>2013-09-21T08:02:01.000Z</time>
      </trkpt>
      <trkpt lat="44.99481" lon="5.55528">
        <ele>1486.8000488281</ele>
        <time>2013-09-21T08:02:07.000Z</time>
      </trkpt>
      <trkpt lat="44.99475" lon="5.5552">
        <ele>1486.5999755859</ele>
        <time>2013-09-21T08:02:12.000Z</time>
      </trkpt>
      <trkpt lat="44.99475" lon="5.55518">
        <ele>1487.1999511719</ele>
        <time>2013-09-21T08:02:13.000Z</time>
      </trkpt>
      <trkpt lat="44.99474" lon="5.55506">
        <ele>1489.8000488281</ele>
        <time>2013-09-21T08:02:20.000Z</time>
      </trkpt>
      <trkpt lat="44.99474" lon="5.55503">
        <ele>1490.4000244141</ele>
        <time>2013-09-21T08:02:22.000Z</time>
      </trkpt>
      <trkpt lat="44.99475" lon="5.55493">
        <ele>1493.1999511719</ele>
        <time>2013-09-21T08:02:26.000Z</time>
      </trkpt>
      <trkpt lat="44.99473" lon="5.55485">
        <ele>1494.5999755859</ele>
        <time>2013-09-21T08:02:31.000Z</time>
      </trkpt>
      <trkpt lat="44.99473" lon="5.55478">
        <ele>1496.1999511719</ele>
        <time>2013-09-21T08:02:35.000Z</time>
      </trkpt>
      <trkpt lat="44.99473" lon="5.55475">
        <ele>1496.8000488281</ele>
        <time>2013-09-21T08:02:36.000Z</time>
      </trkpt>
      <trkpt lat="44.9947" lon="5.55472">
        <ele>1496.5999755859</ele>
        <time>2013-09-21T08:02:41.000Z</time>
      </trkpt>
      <trkpt lat="44.9947" lon="5.5547">
        <ele>1496.8000488281</ele>
        <time>2013-09-21T08:02:42.000Z</time>
      </trkpt>
      <trkpt lat="44.99464" lon="5.55462">
        <ele>1497.1999511719</ele>
        <time>2013-09-21T08:02:49.000Z</time>
      </trkpt>
      <trkpt lat="44.9946" lon="5.55454">
        <ele>1497.5999755859</ele>
        <time>2013-09-21T08:02:55.000Z</time>
      </trkpt>
      <trkpt lat="44.99455" lon="5.55447">
        <ele>1497.8000488281</ele>
        <time>2013-09-21T08:02:59.000Z</time>
      </trkpt>
      <trkpt lat="44.99455" lon="5.55431">
        <ele>1501.5999755859</ele>
        <time>2013-09-21T08:03:05.000Z</time>
      </trkpt>
      <trkpt lat="44.99458" lon="5.55419">
        <ele>1505.1999511719</ele>
        <time>2013-09-21T08:03:09.000Z</time>
      </trkpt>
      <trkpt lat="44.99455" lon="5.55408">
        <ele>1507.1999511719</ele>
        <time>2013-09-21T08:03:15.000Z</time>
      </trkpt>
      <trkpt lat="44.99455" lon="5.55401">
        <ele>1509.1999511719</ele>
        <time>2013-09-21T08:03:19.000Z</time>
      </trkpt>
      <trkpt lat="44.99455" lon="5.55393">
        <ele>1511.5999755859</ele>
        <time>2013-09-21T08:03:24.000Z</time>
      </trkpt>
      <trkpt lat="44.99445" lon="5.55382">
        <ele>1510.5999755859</ele>
        <time>2013-09-21T08:03:30.000Z</time>
      </trkpt>
      <trkpt lat="44.99435" lon="5.55373">
        <ele>1509.1999511719</ele>
        <time>2013-09-21T08:03:35.000Z</time>
      </trkpt>
      <trkpt lat="44.99431" lon="5.5537">
        <ele>1508.1999511719</ele>
        <time>2013-09-21T08:03:37.000Z</time>
      </trkpt>
      <trkpt lat="44.99416" lon="5.55374">
        <ele>1501</ele>
        <time>2013-09-21T08:03:43.000Z</time>
      </trkpt>
      <trkpt lat="44.99406" lon="5.55365">
        <ele>1500.4000244141</ele>
        <time>2013-09-21T08:03:49.000Z</time>
      </trkpt>
      <trkpt lat="44.99404" lon="5.55362">
        <ele>1500.5999755859</ele>
        <time>2013-09-21T08:03:50.000Z</time>
      </trkpt>
      <trkpt lat="44.99394" lon="5.55347">
        <ele>1501.1999511719</ele>
        <time>2013-09-21T08:03:56.000Z</time>
      </trkpt>
      <trkpt lat="44.99383" lon="5.55337">
        <ele>1500.1999511719</ele>
        <time>2013-09-21T08:04:02.000Z</time>
      </trkpt>
      <trkpt lat="44.99375" lon="5.55331">
        <ele>1499.5999755859</ele>
        <time>2013-09-21T08:04:06.000Z</time>
      </trkpt>
      <trkpt lat="44.99362" lon="5.5532">
        <ele>1498.8000488281</ele>
        <time>2013-09-21T08:04:12.000Z</time>
      </trkpt>
      <trkpt lat="44.99358" lon="5.55315">
        <ele>1498.8000488281</ele>
        <time>2013-09-21T08:04:14.000Z</time>
      </trkpt>
      <trkpt lat="44.99357" lon="5.55303">
        <ele>1501</ele>
        <time>2013-09-21T08:04:19.000Z</time>
      </trkpt>
      <trkpt lat="44.99355" lon="5.55296">
        <ele>1501.8000488281</ele>
        <time>2013-09-21T08:04:21.000Z</time>
      </trkpt>
      <trkpt lat="44.99357" lon="5.55276">
        <ele>1507.1999511719</ele>
        <time>2013-09-21T08:04:28.000Z</time>
      </trkpt>
      <trkpt lat="44.9936" lon="5.55262">
        <ele>1512.1999511719</ele>
        <time>2013-09-21T08:04:34.000Z</time>
      </trkpt>
      <trkpt lat="44.99361" lon="5.55252">
        <ele>1515</ele>
        <time>2013-09-21T08:04:38.000Z</time>
      </trkpt>
      <trkpt lat="44.9936" lon="5.55242">
        <ele>1516.1999511719</ele>
        <time>2013-09-21T08:04:42.000Z</time>
      </trkpt>
      <trkpt lat="44.99365" lon="5.55228">
        <ele>1521.8000488281</ele>
        <time>2013-09-21T08:04:48.000Z</time>
      </trkpt>
      <trkpt lat="44.99369" lon="5.55217">
        <ele>1525.5999755859</ele>
        <time>2013-09-21T08:04:53.000Z</time>
      </trkpt>
      <trkpt lat="44.9937" lon="5.55207">
        <ele>1527.8000488281</ele>
        <time>2013-09-21T08:04:58.000Z</time>
      </trkpt>
      <trkpt lat="44.99372" lon="5.55202">
        <ele>1529.8000488281</ele>
        <time>2013-09-21T08:05:01.000Z</time>
      </trkpt>
      <trkpt lat="44.99368" lon="5.55196">
        <ele>1529</ele>
        <time>2013-09-21T08:05:05.000Z</time>
      </trkpt>
      <trkpt lat="44.99364" lon="5.55195">
        <ele>1526.8000488281</ele>
        <time>2013-09-21T08:05:07.000Z</time>
      </trkpt>
      <trkpt lat="44.99356" lon="5.55182">
        <ele>1524.4000244141</ele>
        <time>2013-09-21T08:05:13.000Z</time>
      </trkpt>
      <trkpt lat="44.99357" lon="5.55172">
        <ele>1526.5999755859</ele>
        <time>2013-09-21T08:05:17.000Z</time>
      </trkpt>
      <trkpt lat="44.99361" lon="5.55163">
        <ele>1530.4000244141</ele>
        <time>2013-09-21T08:05:21.000Z</time>
      </trkpt>
      <trkpt lat="44.99357" lon="5.55157">
        <ele>1529.5999755859</ele>
        <time>2013-09-21T08:05:25.000Z</time>
      </trkpt>
      <trkpt lat="44.99353" lon="5.55146">
        <ele>1529.4000244141</ele>
        <time>2013-09-21T08:05:30.000Z</time>
      </trkpt>
      <trkpt lat="44.99348" lon="5.55135">
        <ele>1529</ele>
        <time>2013-09-21T08:05:35.000Z</time>
      </trkpt>
      <trkpt lat="44.9935" lon="5.5513">
        <ele>1530.8000488281</ele>
        <time>2013-09-21T08:05:37.000Z</time>
      </trkpt>
      <trkpt lat="44.99352" lon="5.55122">
        <ele>1533.5999755859</ele>
        <time>2013-09-21T08:05:40.000Z</time>
      </trkpt>
      <trkpt lat="44.99352" lon="5.55104">
        <ele>1537.8000488281</ele>
        <time>2013-09-21T08:05:46.000Z</time>
      </trkpt>
      <trkpt lat="44.99353" lon="5.55101">
        <ele>1538.5999755859</ele>
        <time>2013-09-21T08:05:47.000Z</time>
      </trkpt>
      <trkpt lat="44.99349" lon="5.55094">
        <ele>1537.5999755859</ele>
        <time>2013-09-21T08:05:52.000Z</time>
      </trkpt>
      <trkpt lat="44.99338" lon="5.55092">
        <ele>1532</ele>
        <time>2013-09-21T08:05:57.000Z</time>
      </trkpt>
      <trkpt lat="44.99329" lon="5.55086">
        <ele>1529.1999511719</ele>
        <time>2013-09-21T08:06:03.000Z</time>
      </trkpt>
      <trkpt lat="44.9933" lon="5.55074">
        <ele>1532.8000488281</ele>
        <time>2013-09-21T08:06:07.000Z</time>
      </trkpt>
      <trkpt lat="44.99331" lon="5.55057">
        <ele>1538.8000488281</ele>
        <time>2013-09-21T08:06:12.000Z</time>
      </trkpt>
      <trkpt lat="44.99335" lon="5.55039">
        <ele>1545.8000488281</ele>
        <time>2013-09-21T08:06:19.000Z</time>
      </trkpt>
      <trkpt lat="44.99336" lon="5.55035">
        <ele>1547.8000488281</ele>
        <time>2013-09-21T08:06:21.000Z</time>
      </trkpt>
      <trkpt lat="44.99327" lon="5.55031">
        <ele>1545.8000488281</ele>
        <time>2013-09-21T08:06:26.000Z</time>
      </trkpt>
      <trkpt lat="44.9932" lon="5.55025">
        <ele>1545.4000244141</ele>
        <time>2013-09-21T08:06:30.000Z</time>
      </trkpt>
      <trkpt lat="44.99311" lon="5.55012">
        <ele>1546.4000244141</ele>
        <time>2013-09-21T08:06:37.000Z</time>
      </trkpt>
      <trkpt lat="44.99303" lon="5.55006">
        <ele>1544.8000488281</ele>
        <time>2013-09-21T08:06:43.000Z</time>
      </trkpt>
      <trkpt lat="44.99294" lon="5.54997">
        <ele>1544.4000244141</ele>
        <time>2013-09-21T08:06:49.000Z</time>
      </trkpt>
      <trkpt lat="44.9929" lon="5.54991">
        <ele>1544.1999511719</ele>
        <time>2013-09-21T08:06:52.000Z</time>
      </trkpt>
      <trkpt lat="44.9928" lon="5.54986">
        <ele>1542</ele>
        <time>2013-09-21T08:06:57.000Z</time>
      </trkpt>
      <trkpt lat="44.9927" lon="5.54969">
        <ele>1542.4000244141</ele>
        <time>2013-09-21T08:07:04.000Z</time>
      </trkpt>
      <trkpt lat="44.99262" lon="5.54955">
        <ele>1542.4000244141</ele>
        <time>2013-09-21T08:07:10.000Z</time>
      </trkpt>
      <trkpt lat="44.99259" lon="5.54948">
        <ele>1543</ele>
        <time>2013-09-21T08:07:13.000Z</time>
      </trkpt>
      <trkpt lat="44.99252" lon="5.54943">
        <ele>1541.8000488281</ele>
        <time>2013-09-21T08:07:17.000Z</time>
      </trkpt>
      <trkpt lat="44.99245" lon="5.5493">
        <ele>1542</ele>
        <time>2013-09-21T08:07:23.000Z</time>
      </trkpt>
      <trkpt lat="44.99234" lon="5.54917">
        <ele>1541.4000244141</ele>
        <time>2013-09-21T08:07:29.000Z</time>
      </trkpt>
      <trkpt lat="44.99228" lon="5.54902">
        <ele>1544.1999511719</ele>
        <time>2013-09-21T08:07:34.000Z</time>
      </trkpt>
      <trkpt lat="44.99227" lon="5.54898">
        <ele>1545.1999511719</ele>
        <time>2013-09-21T08:07:35.000Z</time>
      </trkpt>
      <trkpt lat="44.99219" lon="5.5489">
        <ele>1544.5999755859</ele>
        <time>2013-09-21T08:07:39.000Z</time>
      </trkpt>
      <trkpt lat="44.99206" lon="5.54873">
        <ele>1544.1999511719</ele>
        <time>2013-09-21T08:07:46.000Z</time>
      </trkpt>
      <trkpt lat="44.992" lon="5.54861">
        <ele>1545</ele>
        <time>2013-09-21T08:07:50.000Z</time>
      </trkpt>
      <trkpt lat="44.99193" lon="5.54847">
        <ele>1545.4000244141</ele>
        <time>2013-09-21T08:07:55.000Z</time>
      </trkpt>
      <trkpt lat="44.99185" lon="5.54836">
        <ele>1544.5999755859</ele>
        <time>2013-09-21T08:07:59.000Z</time>
      </trkpt>
      <trkpt lat="44.99175" lon="5.5482">
        <ele>1541.5999755859</ele>
        <time>2013-09-21T08:08:05.000Z</time>
      </trkpt>
      <trkpt lat="44.99165" lon="5.54806">
        <ele>1537.8000488281</ele>
        <time>2013-09-21T08:08:11.000Z</time>
      </trkpt>
      <trkpt lat="44.99154" lon="5.54798">
        <ele>1536.5999755859</ele>
        <time>2013-09-21T08:08:16.000Z</time>
      </trkpt>
      <trkpt lat="44.99143" lon="5.54786">
        <ele>1536</ele>
        <time>2013-09-21T08:08:21.000Z</time>
      </trkpt>
      <trkpt lat="44.99133" lon="5.54773">
        <ele>1536.4000244141</ele>
        <time>2013-09-21T08:08:26.000Z</time>
      </trkpt>
      <trkpt lat="44.99124" lon="5.54759">
        <ele>1537.8000488281</ele>
        <time>2013-09-21T08:08:31.000Z</time>
      </trkpt>
      <trkpt lat="44.99111" lon="5.54748">
        <ele>1539</ele>
        <time>2013-09-21T08:08:36.000Z</time>
      </trkpt>
      <trkpt lat="44.99099" lon="5.54737">
        <ele>1541.8000488281</ele>
        <time>2013-09-21T08:08:41.000Z</time>
      </trkpt>
      <trkpt lat="44.99088" lon="5.54726">
        <ele>1543.8000488281</ele>
        <time>2013-09-21T08:08:46.000Z</time>
      </trkpt>
      <trkpt lat="44.99079" lon="5.54719">
        <ele>1544.5999755859</ele>
        <time>2013-09-21T08:08:50.000Z</time>
      </trkpt>
      <trkpt lat="44.99063" lon="5.54713">
        <ele>1543</ele>
        <time>2013-09-21T08:08:56.000Z</time>
      </trkpt>
      <trkpt lat="44.99051" lon="5.54701">
        <ele>1543.1999511719</ele>
        <time>2013-09-21T08:09:01.000Z</time>
      </trkpt>
      <trkpt lat="44.99041" lon="5.5469">
        <ele>1543.8000488281</ele>
        <time>2013-09-21T08:09:05.000Z</time>
      </trkpt>
      <trkpt lat="44.99027" lon="5.54689">
        <ele>1540.4000244141</ele>
        <time>2013-09-21T08:09:09.000Z</time>
      </trkpt>
      <trkpt lat="44.99011" lon="5.54691">
        <ele>1535.8000488281</ele>
        <time>2013-09-21T08:09:14.000Z</time>
      </trkpt>
      <trkpt lat="44.98994" lon="5.54687">
        <ele>1531.5999755859</ele>
        <time>2013-09-21T08:09:19.000Z</time>
      </trkpt>
      <trkpt lat="44.98975" lon="5.54678">
        <ele>1525.5999755859</ele>
        <time>2013-09-21T08:09:25.000Z</time>
      </trkpt>
      <trkpt lat="44.98972" lon="5.54676">
        <ele>1524.8000488281</ele>
        <time>2013-09-21T08:09:26.000Z</time>
      </trkpt>
      <trkpt lat="44.98975" lon="5.54682">
        <ele>1525</ele>
        <time>2013-09-21T08:09:30.000Z</time>
      </trkpt>
      <trkpt lat="44.98993" lon="5.54699">
        <ele>1528.8000488281</ele>
        <time>2013-09-21T08:09:36.000Z</time>
      </trkpt>
      <trkpt lat="44.99005" lon="5.54706">
        <ele>1531</ele>
        <time>2013-09-21T08:09:40.000Z</time>
      </trkpt>
      <trkpt lat="44.99018" lon="5.54712">
        <ele>1532.5999755859</ele>
        <time>2013-09-21T08:09:44.000Z</time>
      </trkpt>
      <trkpt lat="44.99024" lon="5.54716">
        <ele>1533.1999511719</ele>
        <time>2013-09-21T08:09:47.000Z</time>
      </trkpt>
      <trkpt lat="44.99012" lon="5.54717">
        <ele>1530.4000244141</ele>
        <time>2013-09-21T08:09:51.000Z</time>
      </trkpt>
      <trkpt lat="44.98994" lon="5.54715">
        <ele>1526</ele>
        <time>2013-09-21T08:09:56.000Z</time>
      </trkpt>
      <trkpt lat="44.98978" lon="5.54712">
        <ele>1521.4000244141</ele>
        <time>2013-09-21T08:10:00.000Z</time>
      </trkpt>
      <trkpt lat="44.98964" lon="5.54706">
        <ele>1517.1999511719</ele>
        <time>2013-09-21T08:10:04.000Z</time>
      </trkpt>
      <trkpt lat="44.98949" lon="5.54703">
        <ele>1512.5999755859</ele>
        <time>2013-09-21T08:10:08.000Z</time>
      </trkpt>
      <trkpt lat="44.98939" lon="5.54695">
        <ele>1509.5999755859</ele>
        <time>2013-09-21T08:10:11.000Z</time>
      </trkpt>
      <trkpt lat="44.98934" lon="5.54688">
        <ele>1508.4000244141</ele>
        <time>2013-09-21T08:10:13.000Z</time>
      </trkpt>
      <trkpt lat="44.98938" lon="5.54669">
        <ele>1511.5999755859</ele>
        <time>2013-09-21T08:10:17.000Z</time>
      </trkpt>
      <trkpt lat="44.98946" lon="5.54652">
        <ele>1516</ele>
        <time>2013-09-21T08:10:21.000Z</time>
      </trkpt>
      <trkpt lat="44.9895" lon="5.54629">
        <ele>1518.5999755859</ele>
        <time>2013-09-21T08:10:26.000Z</time>
      </trkpt>
      <trkpt lat="44.98951" lon="5.54605">
        <ele>1520.1999511719</ele>
        <time>2013-09-21T08:10:31.000Z</time>
      </trkpt>
      <trkpt lat="44.98956" lon="5.5459">
        <ele>1523.4000244141</ele>
        <time>2013-09-21T08:10:35.000Z</time>
      </trkpt>
      <trkpt lat="44.98953" lon="5.54573">
        <ele>1524.4000244141</ele>
        <time>2013-09-21T08:10:39.000Z</time>
      </trkpt>
      <trkpt lat="44.98948" lon="5.54556">
        <ele>1524.5999755859</ele>
        <time>2013-09-21T08:10:43.000Z</time>
      </trkpt>
      <trkpt lat="44.9895" lon="5.54538">
        <ele>1528.8000488281</ele>
        <time>2013-09-21T08:10:47.000Z</time>
      </trkpt>
      <trkpt lat="44.98944" lon="5.54528">
        <ele>1527.5999755859</ele>
        <time>2013-09-21T08:10:51.000Z</time>
      </trkpt>
      <trkpt lat="44.98939" lon="5.5452">
        <ele>1525.1999511719</ele>
        <time>2013-09-21T08:10:55.000Z</time>
      </trkpt>
      <trkpt lat="44.98936" lon="5.54517">
        <ele>1524</ele>
        <time>2013-09-21T08:10:56.000Z</time>
      </trkpt>
      <trkpt lat="44.98926" lon="5.54501">
        <ele>1520.1999511719</ele>
        <time>2013-09-21T08:11:01.000Z</time>
      </trkpt>
      <trkpt lat="44.98916" lon="5.54483">
        <ele>1517.1999511719</ele>
        <time>2013-09-21T08:11:06.000Z</time>
      </trkpt>
      <trkpt lat="44.98906" lon="5.54459">
        <ele>1516.8000488281</ele>
        <time>2013-09-21T08:11:12.000Z</time>
      </trkpt>
      <trkpt lat="44.98899" lon="5.54439">
        <ele>1516.8000488281</ele>
        <time>2013-09-21T08:11:17.000Z</time>
      </trkpt>
      <trkpt lat="44.98893" lon="5.54426">
        <ele>1516.1999511719</ele>
        <time>2013-09-21T08:11:21.000Z</time>
      </trkpt>
      <trkpt lat="44.98883" lon="5.54416">
        <ele>1512</ele>
        <time>2013-09-21T08:11:25.000Z</time>
      </trkpt>
      <trkpt lat="44.98874" lon="5.54403">
        <ele>1511</ele>
        <time>2013-09-21T08:11:30.000Z</time>
      </trkpt>
      <trkpt lat="44.98867" lon="5.54391">
        <ele>1510.1999511719</ele>
        <time>2013-09-21T08:11:34.000Z</time>
      </trkpt>
      <trkpt lat="44.98863" lon="5.54376">
        <ele>1512.5999755859</ele>
        <time>2013-09-21T08:11:38.000Z</time>
      </trkpt>
      <trkpt lat="44.98852" lon="5.54367">
        <ele>1508.5999755859</ele>
        <time>2013-09-21T08:11:43.000Z</time>
      </trkpt>
      <trkpt lat="44.98835" lon="5.54347">
        <ele>1505.1999511719</ele>
        <time>2013-09-21T08:11:50.000Z</time>
      </trkpt>
      <trkpt lat="44.98828" lon="5.54334">
        <ele>1506</ele>
        <time>2013-09-21T08:11:54.000Z</time>
      </trkpt>
      <trkpt lat="44.98819" lon="5.54319">
        <ele>1507.5999755859</ele>
        <time>2013-09-21T08:11:59.000Z</time>
      </trkpt>
      <trkpt lat="44.98807" lon="5.54301">
        <ele>1508.8000488281</ele>
        <time>2013-09-21T08:12:05.000Z</time>
      </trkpt>
      <trkpt lat="44.988" lon="5.54288">
        <ele>1510.5999755859</ele>
        <time>2013-09-21T08:12:09.000Z</time>
      </trkpt>
      <trkpt lat="44.98789" lon="5.54277">
        <ele>1508.8000488281</ele>
        <time>2013-09-21T08:12:14.000Z</time>
      </trkpt>
      <trkpt lat="44.98782" lon="5.54268">
        <ele>1508.8000488281</ele>
        <time>2013-09-21T08:12:18.000Z</time>
      </trkpt>
      <trkpt lat="44.98773" lon="5.54256">
        <ele>1508.5999755859</ele>
        <time>2013-09-21T08:12:23.000Z</time>
      </trkpt>
      <trkpt lat="44.98762" lon="5.54249">
        <ele>1506</ele>
        <time>2013-09-21T08:12:27.000Z</time>
      </trkpt>
      <trkpt lat="44.98752" lon="5.54238">
        <ele>1505.4000244141</ele>
        <time>2013-09-21T08:12:31.000Z</time>
      </trkpt>
      <trkpt lat="44.98743" lon="5.54226">
        <ele>1507.4000244141</ele>
        <time>2013-09-21T08:12:35.000Z</time>
      </trkpt>
      <trkpt lat="44.98737" lon="5.5422">
        <ele>1507.8000488281</ele>
        <time>2013-09-21T08:12:38.000Z</time>
      </trkpt>
      <trkpt lat="44.98725" lon="5.5422">
        <ele>1503.1999511719</ele>
        <time>2013-09-21T08:12:43.000Z</time>
      </trkpt>
      <trkpt lat="44.98715" lon="5.54212">
        <ele>1502.4000244141</ele>
        <time>2013-09-21T08:12:47.000Z</time>
      </trkpt>
      <trkpt lat="44.98706" lon="5.54192">
        <ele>1506</ele>
        <time>2013-09-21T08:12:53.000Z</time>
      </trkpt>
      <trkpt lat="44.98699" lon="5.54181">
        <ele>1506.5999755859</ele>
        <time>2013-09-21T08:12:57.000Z</time>
      </trkpt>
      <trkpt lat="44.98692" lon="5.54166">
        <ele>1508.8000488281</ele>
        <time>2013-09-21T08:13:02.000Z</time>
      </trkpt>
      <trkpt lat="44.98685" lon="5.54151">
        <ele>1511.1999511719</ele>
        <time>2013-09-21T08:13:07.000Z</time>
      </trkpt>
      <trkpt lat="44.98672" lon="5.54132">
        <ele>1513</ele>
        <time>2013-09-21T08:13:14.000Z</time>
      </trkpt>
      <trkpt lat="44.98662" lon="5.54119">
        <ele>1513</ele>
        <time>2013-09-21T08:13:19.000Z</time>
      </trkpt>
      <trkpt lat="44.98652" lon="5.54108">
        <ele>1512</ele>
        <time>2013-09-21T08:13:24.000Z</time>
      </trkpt>
      <trkpt lat="44.9865" lon="5.54107">
        <ele>1511.4000244141</ele>
        <time>2013-09-21T08:13:28.000Z</time>
      </trkpt>
      <trkpt lat="44.9865" lon="5.54107">
        <ele>1511.1999511719</ele>
        <time>2013-09-21T08:13:29.000Z</time>
      </trkpt>
      <trkpt lat="44.98645" lon="5.54101">
        <ele>1510.5999755859</ele>
        <time>2013-09-21T08:13:33.000Z</time>
      </trkpt>
      <trkpt lat="44.98631" lon="5.54086">
        <ele>1508.5999755859</ele>
        <time>2013-09-21T08:13:39.000Z</time>
      </trkpt>
      <trkpt lat="44.98617" lon="5.54074">
        <ele>1505.8000488281</ele>
        <time>2013-09-21T08:13:45.000Z</time>
      </trkpt>
      <trkpt lat="44.98608" lon="5.5406">
        <ele>1507.4000244141</ele>
        <time>2013-09-21T08:13:50.000Z</time>
      </trkpt>
      <trkpt lat="44.98607" lon="5.54058">
        <ele>1507.8000488281</ele>
        <time>2013-09-21T08:13:51.000Z</time>
      </trkpt>
      <trkpt lat="44.98596" lon="5.54047">
        <ele>1506.8000488281</ele>
        <time>2013-09-21T08:13:56.000Z</time>
      </trkpt>
      <trkpt lat="44.98589" lon="5.54037">
        <ele>1507.8000488281</ele>
        <time>2013-09-21T08:14:00.000Z</time>
      </trkpt>
      <trkpt lat="44.98582" lon="5.54027">
        <ele>1509</ele>
        <time>2013-09-21T08:14:04.000Z</time>
      </trkpt>
      <trkpt lat="44.9857" lon="5.54027">
        <ele>1505.8000488281</ele>
        <time>2013-09-21T08:14:09.000Z</time>
      </trkpt>
      <trkpt lat="44.98558" lon="5.54021">
        <ele>1505</ele>
        <time>2013-09-21T08:14:13.000Z</time>
      </trkpt>
      <trkpt lat="44.98554" lon="5.54015">
        <ele>1506.1999511719</ele>
        <time>2013-09-21T08:14:17.000Z</time>
      </trkpt>
      <trkpt lat="44.98554" lon="5.54026">
        <ele>1502</ele>
        <time>2013-09-21T08:14:23.000Z</time>
      </trkpt>
      <trkpt lat="44.9855" lon="5.54017">
        <ele>1504</ele>
        <time>2013-09-21T08:14:27.000Z</time>
      </trkpt>
      <trkpt lat="44.98543" lon="5.53999">
        <ele>1508.1999511719</ele>
        <time>2013-09-21T08:14:32.000Z</time>
      </trkpt>
      <trkpt lat="44.98535" lon="5.53987">
        <ele>1511</ele>
        <time>2013-09-21T08:14:36.000Z</time>
      </trkpt>
      <trkpt lat="44.98526" lon="5.53972">
        <ele>1514.8000488281</ele>
        <time>2013-09-21T08:14:41.000Z</time>
      </trkpt>
      <trkpt lat="44.98518" lon="5.53958">
        <ele>1518.4000244141</ele>
        <time>2013-09-21T08:14:46.000Z</time>
      </trkpt>
      <trkpt lat="44.98504" lon="5.53945">
        <ele>1518.4000244141</ele>
        <time>2013-09-21T08:14:53.000Z</time>
      </trkpt>
      <trkpt lat="44.98495" lon="5.53938">
        <ele>1518.5999755859</ele>
        <time>2013-09-21T08:14:57.000Z</time>
      </trkpt>
      <trkpt lat="44.98488" lon="5.53934">
        <ele>1518.5999755859</ele>
        <time>2013-09-21T08:15:00.000Z</time>
      </trkpt>
      <trkpt lat="44.98481" lon="5.53925">
        <ele>1520.5999755859</ele>
        <time>2013-09-21T08:15:04.000Z</time>
      </trkpt>
      <trkpt lat="44.98471" lon="5.53921">
        <ele>1519.8000488281</ele>
        <time>2013-09-21T08:15:08.000Z</time>
      </trkpt>
      <trkpt lat="44.98457" lon="5.53909">
        <ele>1520.1999511719</ele>
        <time>2013-09-21T08:15:15.000Z</time>
      </trkpt>
      <trkpt lat="44.98446" lon="5.53905">
        <ele>1518.1999511719</ele>
        <time>2013-09-21T08:15:20.000Z</time>
      </trkpt>
      <trkpt lat="44.98437" lon="5.53902">
        <ele>1516.5999755859</ele>
        <time>2013-09-21T08:15:24.000Z</time>
      </trkpt>
      <trkpt lat="44.98427" lon="5.53897">
        <ele>1514.8000488281</ele>
        <time>2013-09-21T08:15:29.000Z</time>
      </trkpt>
      <trkpt lat="44.98422" lon="5.53891">
        <ele>1515</ele>
        <time>2013-09-21T08:15:33.000Z</time>
      </trkpt>
      <trkpt lat="44.98417" lon="5.53884">
        <ele>1515</ele>
        <time>2013-09-21T08:15:39.000Z</time>
      </trkpt>
      <trkpt lat="44.9841" lon="5.53878">
        <ele>1515</ele>
        <time>2013-09-21T08:15:43.000Z</time>
      </trkpt>
      <trkpt lat="44.98394" lon="5.53871">
        <ele>1514.8000488281</ele>
        <time>2013-09-21T08:15:49.000Z</time>
      </trkpt>
      <trkpt lat="44.98382" lon="5.53865">
        <ele>1515.1999511719</ele>
        <time>2013-09-21T08:15:54.000Z</time>
      </trkpt>
      <trkpt lat="44.98375" lon="5.53861">
        <ele>1515.8000488281</ele>
        <time>2013-09-21T08:15:57.000Z</time>
      </trkpt>
      <trkpt lat="44.98364" lon="5.53849">
        <ele>1573</ele>
        <time>2013-09-21T08:16:03.000Z</time>
      </trkpt>
      <trkpt lat="44.98352" lon="5.53844">
        <ele>1591.4000244141</ele>
        <time>2013-09-21T08:16:08.000Z</time>
      </trkpt>
      <trkpt lat="44.98342" lon="5.5384">
        <ele>1609.4000244141</ele>
        <time>2013-09-21T08:16:13.000Z</time>
      </trkpt>
      <trkpt lat="44.98332" lon="5.53839">
        <ele>1618.5999755859</ele>
        <time>2013-09-21T08:16:17.000Z</time>
      </trkpt>
      <trkpt lat="44.98318" lon="5.53834">
        <ele>1606.4000244141</ele>
        <time>2013-09-21T08:16:23.000Z</time>
      </trkpt>
      <trkpt lat="44.98305" lon="5.53831">
        <ele>1590.4000244141</ele>
        <time>2013-09-21T08:16:28.000Z</time>
      </trkpt>
      <trkpt lat="44.98294" lon="5.5383">
        <ele>1573.4000244141</ele>
        <time>2013-09-21T08:16:33.000Z</time>
      </trkpt>
      <trkpt lat="44.98282" lon="5.53828">
        <ele>1558.5999755859</ele>
        <time>2013-09-21T08:16:38.000Z</time>
      </trkpt>
      <trkpt lat="44.98267" lon="5.53827">
        <ele>1538.8000488281</ele>
        <time>2013-09-21T08:16:44.000Z</time>
      </trkpt>
      <trkpt lat="44.98258" lon="5.53822">
        <ele>1535.1999511719</ele>
        <time>2013-09-21T08:16:48.000Z</time>
      </trkpt>
      <trkpt lat="44.98247" lon="5.53819">
        <ele>1529</ele>
        <time>2013-09-21T08:16:53.000Z</time>
      </trkpt>
      <trkpt lat="44.98235" lon="5.5382">
        <ele>1528.8000488281</ele>
        <time>2013-09-21T08:16:58.000Z</time>
      </trkpt>
      <trkpt lat="44.9822" lon="5.53816">
        <ele>1535.1999511719</ele>
        <time>2013-09-21T08:17:04.000Z</time>
      </trkpt>
      <trkpt lat="44.98209" lon="5.53817">
        <ele>1534.1999511719</ele>
        <time>2013-09-21T08:17:09.000Z</time>
      </trkpt>
      <trkpt lat="44.98197" lon="5.53816">
        <ele>1535</ele>
        <time>2013-09-21T08:17:14.000Z</time>
      </trkpt>
      <trkpt lat="44.98186" lon="5.53813">
        <ele>1537.1999511719</ele>
        <time>2013-09-21T08:17:19.000Z</time>
      </trkpt>
      <trkpt lat="44.98175" lon="5.53815">
        <ele>1535.1999511719</ele>
        <time>2013-09-21T08:17:24.000Z</time>
      </trkpt>
      <trkpt lat="44.98171" lon="5.53818">
        <ele>1533.8000488281</ele>
        <time>2013-09-21T08:17:27.000Z</time>
      </trkpt>
      <trkpt lat="44.98158" lon="5.53822">
        <ele>1531.8000488281</ele>
        <time>2013-09-21T08:17:33.000Z</time>
      </trkpt>
      <trkpt lat="44.98143" lon="5.53823">
        <ele>1532</ele>
        <time>2013-09-21T08:17:39.000Z</time>
      </trkpt>
      <trkpt lat="44.98126" lon="5.5382">
        <ele>1533.1999511719</ele>
        <time>2013-09-21T08:17:45.000Z</time>
      </trkpt>
      <trkpt lat="44.98111" lon="5.53819">
        <ele>1533.4000244141</ele>
        <time>2013-09-21T08:17:51.000Z</time>
      </trkpt>
      <trkpt lat="44.981" lon="5.5381">
        <ele>1537.5999755859</ele>
        <time>2013-09-21T08:17:56.000Z</time>
      </trkpt>
      <trkpt lat="44.98084" lon="5.53811">
        <ele>1537</ele>
        <time>2013-09-21T08:18:01.000Z</time>
      </trkpt>
      <trkpt lat="44.98072" lon="5.53807">
        <ele>1536.5999755859</ele>
        <time>2013-09-21T08:18:06.000Z</time>
      </trkpt>
      <trkpt lat="44.98057" lon="5.53806">
        <ele>1534.4000244141</ele>
        <time>2013-09-21T08:18:11.000Z</time>
      </trkpt>
      <trkpt lat="44.98043" lon="5.53804">
        <ele>1532.4000244141</ele>
        <time>2013-09-21T08:18:16.000Z</time>
      </trkpt>
      <trkpt lat="44.98031" lon="5.53802">
        <ele>1531.4000244141</ele>
        <time>2013-09-21T08:18:21.000Z</time>
      </trkpt>
      <trkpt lat="44.98016" lon="5.53786">
        <ele>1534.4000244141</ele>
        <time>2013-09-21T08:18:28.000Z</time>
      </trkpt>
      <trkpt lat="44.98006" lon="5.53778">
        <ele>1535.5999755859</ele>
        <time>2013-09-21T08:18:33.000Z</time>
      </trkpt>
      <trkpt lat="44.97991" lon="5.53773">
        <ele>1533.8000488281</ele>
        <time>2013-09-21T08:18:39.000Z</time>
      </trkpt>
      <trkpt lat="44.97974" lon="5.53766">
        <ele>1532</ele>
        <time>2013-09-21T08:18:46.000Z</time>
      </trkpt>
      <trkpt lat="44.9796" lon="5.53753">
        <ele>1532.8000488281</ele>
        <time>2013-09-21T08:18:52.000Z</time>
      </trkpt>
      <trkpt lat="44.97951" lon="5.53741">
        <ele>1534.4000244141</ele>
        <time>2013-09-21T08:18:57.000Z</time>
      </trkpt>
      <trkpt lat="44.97947" lon="5.53737">
        <ele>1534.5999755859</ele>
        <time>2013-09-21T08:18:59.000Z</time>
      </trkpt>
      <trkpt lat="44.97933" lon="5.5372">
        <ele>1536.1999511719</ele>
        <time>2013-09-21T08:19:06.000Z</time>
      </trkpt>
      <trkpt lat="44.97923" lon="5.53705">
        <ele>1538</ele>
        <time>2013-09-21T08:19:12.000Z</time>
      </trkpt>
      <trkpt lat="44.97913" lon="5.53694">
        <ele>1538.4000244141</ele>
        <time>2013-09-21T08:19:17.000Z</time>
      </trkpt>
      <trkpt lat="44.97905" lon="5.53685">
        <ele>1538</ele>
        <time>2013-09-21T08:19:21.000Z</time>
      </trkpt>
      <trkpt lat="44.97897" lon="5.53674">
        <ele>1537.8000488281</ele>
        <time>2013-09-21T08:19:25.000Z</time>
      </trkpt>
      <trkpt lat="44.97887" lon="5.53654">
        <ele>1539</ele>
        <time>2013-09-21T08:19:31.000Z</time>
      </trkpt>
      <trkpt lat="44.97877" lon="5.53642">
        <ele>1537.5999755859</ele>
        <time>2013-09-21T08:19:36.000Z</time>
      </trkpt>
      <trkpt lat="44.97871" lon="5.5363">
        <ele>1538</ele>
        <time>2013-09-21T08:19:40.000Z</time>
      </trkpt>
      <trkpt lat="44.97865" lon="5.53609">
        <ele>1540.4000244141</ele>
        <time>2013-09-21T08:19:46.000Z</time>
      </trkpt>
      <trkpt lat="44.97864" lon="5.53605">
        <ele>1540.5999755859</ele>
        <time>2013-09-21T08:19:47.000Z</time>
      </trkpt>
      <trkpt lat="44.97856" lon="5.53587">
        <ele>1541.1999511719</ele>
        <time>2013-09-21T08:19:53.000Z</time>
      </trkpt>
      <trkpt lat="44.97851" lon="5.53573">
        <ele>1541.5999755859</ele>
        <time>2013-09-21T08:19:59.000Z</time>
      </trkpt>
      <trkpt lat="44.9784" lon="5.53561">
        <ele>1537.5999755859</ele>
        <time>2013-09-21T08:20:04.000Z</time>
      </trkpt>
      <trkpt lat="44.97828" lon="5.53542">
        <ele>1534.5999755859</ele>
        <time>2013-09-21T08:20:10.000Z</time>
      </trkpt>
      <trkpt lat="44.9782" lon="5.5352">
        <ele>1533.8000488281</ele>
        <time>2013-09-21T08:20:16.000Z</time>
      </trkpt>
      <trkpt lat="44.97819" lon="5.53517">
        <ele>1534.1999511719</ele>
        <time>2013-09-21T08:20:17.000Z</time>
      </trkpt>
      <trkpt lat="44.97812" lon="5.53502">
        <ele>1533</ele>
        <time>2013-09-21T08:20:22.000Z</time>
      </trkpt>
      <trkpt lat="44.97804" lon="5.53493">
        <ele>1531.5999755859</ele>
        <time>2013-09-21T08:20:26.000Z</time>
      </trkpt>
      <trkpt lat="44.97804" lon="5.53476">
        <ele>1538</ele>
        <time>2013-09-21T08:20:30.000Z</time>
      </trkpt>
      <trkpt lat="44.97794" lon="5.53463">
        <ele>1538</ele>
        <time>2013-09-21T08:20:35.000Z</time>
      </trkpt>
      <trkpt lat="44.97783" lon="5.53449">
        <ele>1537</ele>
        <time>2013-09-21T08:20:40.000Z</time>
      </trkpt>
      <trkpt lat="44.97776" lon="5.53436">
        <ele>1538</ele>
        <time>2013-09-21T08:20:44.000Z</time>
      </trkpt>
      <trkpt lat="44.97766" lon="5.5342">
        <ele>1538.8000488281</ele>
        <time>2013-09-21T08:20:50.000Z</time>
      </trkpt>
      <trkpt lat="44.97756" lon="5.53406">
        <ele>1538.5999755859</ele>
        <time>2013-09-21T08:20:55.000Z</time>
      </trkpt>
      <trkpt lat="44.97745" lon="5.53391">
        <ele>1538.1999511719</ele>
        <time>2013-09-21T08:21:00.000Z</time>
      </trkpt>
      <trkpt lat="44.97742" lon="5.53374">
        <ele>1544.1999511719</ele>
        <time>2013-09-21T08:21:04.000Z</time>
      </trkpt>
      <trkpt lat="44.97742" lon="5.53367">
        <ele>1547</ele>
        <time>2013-09-21T08:21:06.000Z</time>
      </trkpt>
      <trkpt lat="44.97735" lon="5.53361">
        <ele>1546</ele>
        <time>2013-09-21T08:21:10.000Z</time>
      </trkpt>
      <trkpt lat="44.97722" lon="5.53349">
        <ele>1545.1999511719</ele>
        <time>2013-09-21T08:21:15.000Z</time>
      </trkpt>
      <trkpt lat="44.97716" lon="5.53344">
        <ele>1544.8000488281</ele>
        <time>2013-09-21T08:21:19.000Z</time>
      </trkpt>
      <trkpt lat="44.97706" lon="5.53339">
        <ele>1542.4000244141</ele>
        <time>2013-09-21T08:21:23.000Z</time>
      </trkpt>
      <trkpt lat="44.97697" lon="5.53328">
        <ele>1544.4000244141</ele>
        <time>2013-09-21T08:21:27.000Z</time>
      </trkpt>
      <trkpt lat="44.97685" lon="5.53324">
        <ele>1541</ele>
        <time>2013-09-21T08:21:32.000Z</time>
      </trkpt>
      <trkpt lat="44.97682" lon="5.53324">
        <ele>1539.8000488281</ele>
        <time>2013-09-21T08:21:33.000Z</time>
      </trkpt>
      <trkpt lat="44.97666" lon="5.53318">
        <ele>1536.1999511719</ele>
        <time>2013-09-21T08:21:39.000Z</time>
      </trkpt>
      <trkpt lat="44.9766" lon="5.53311">
        <ele>1537.8000488281</ele>
        <time>2013-09-21T08:21:42.000Z</time>
      </trkpt>
      <trkpt lat="44.97651" lon="5.53297">
        <ele>1542.4000244141</ele>
        <time>2013-09-21T08:21:47.000Z</time>
      </trkpt>
      <trkpt lat="44.97641" lon="5.53297">
        <ele>1539.5999755859</ele>
        <time>2013-09-21T08:21:51.000Z</time>
      </trkpt>
      <trkpt lat="44.97636" lon="5.53289">
        <ele>1541.5999755859</ele>
        <time>2013-09-21T08:21:54.000Z</time>
      </trkpt>
      <trkpt lat="44.97632" lon="5.53285">
        <ele>1541.5999755859</ele>
        <time>2013-09-21T08:21:57.000Z</time>
      </trkpt>
      <trkpt lat="44.97616" lon="5.53285">
        <ele>1536.5999755859</ele>
        <time>2013-09-21T08:22:03.000Z</time>
      </trkpt>
      <trkpt lat="44.97602" lon="5.53285">
        <ele>1531.8000488281</ele>
        <time>2013-09-21T08:22:08.000Z</time>
      </trkpt>
      <trkpt lat="44.97596" lon="5.53285">
        <ele>1530</ele>
        <time>2013-09-21T08:22:10.000Z</time>
      </trkpt>
      <trkpt lat="44.97589" lon="5.53273">
        <ele>1531.8000488281</ele>
        <time>2013-09-21T08:22:15.000Z</time>
      </trkpt>
      <trkpt lat="44.97584" lon="5.5326">
        <ele>1534.4000244141</ele>
        <time>2013-09-21T08:22:19.000Z</time>
      </trkpt>
      <trkpt lat="44.97576" lon="5.53251">
        <ele>1536</ele>
        <time>2013-09-21T08:22:23.000Z</time>
      </trkpt>
      <trkpt lat="44.97559" lon="5.53241">
        <ele>1538.4000244141</ele>
        <time>2013-09-21T08:22:30.000Z</time>
      </trkpt>
      <trkpt lat="44.97551" lon="5.53235">
        <ele>1539.5999755859</ele>
        <time>2013-09-21T08:22:34.000Z</time>
      </trkpt>
      <trkpt lat="44.97541" lon="5.53227">
        <ele>1541.1999511719</ele>
        <time>2013-09-21T08:22:39.000Z</time>
      </trkpt>
      <trkpt lat="44.97539" lon="5.53217">
        <ele>1545.1999511719</ele>
        <time>2013-09-21T08:22:42.000Z</time>
      </trkpt>
      <trkpt lat="44.97534" lon="5.53213">
        <ele>1545.8000488281</ele>
        <time>2013-09-21T08:22:46.000Z</time>
      </trkpt>
      <trkpt lat="44.9752" lon="5.53211">
        <ele>1542.8000488281</ele>
        <time>2013-09-21T08:22:52.000Z</time>
      </trkpt>
      <trkpt lat="44.97511" lon="5.53206">
        <ele>1542</ele>
        <time>2013-09-21T08:22:57.000Z</time>
      </trkpt>
      <trkpt lat="44.975" lon="5.53198">
        <ele>1541.5999755859</ele>
        <time>2013-09-21T08:23:02.000Z</time>
      </trkpt>
      <trkpt lat="44.97489" lon="5.53192">
        <ele>1541.8000488281</ele>
        <time>2013-09-21T08:23:07.000Z</time>
      </trkpt>
      <trkpt lat="44.97488" lon="5.53189">
        <ele>1542.4000244141</ele>
        <time>2013-09-21T08:23:08.000Z</time>
      </trkpt>
      <trkpt lat="44.97486" lon="5.53184">
        <ele>1543.8000488281</ele>
        <time>2013-09-21T08:23:10.000Z</time>
      </trkpt>
      <trkpt lat="44.97474" lon="5.53183">
        <ele>1542.1999511719</ele>
        <time>2013-09-21T08:23:15.000Z</time>
      </trkpt>
      <trkpt lat="44.97465" lon="5.53184">
        <ele>1540</ele>
        <time>2013-09-21T08:23:19.000Z</time>
      </trkpt>
      <trkpt lat="44.97455" lon="5.53173">
        <ele>1542.4000244141</ele>
        <time>2013-09-21T08:23:24.000Z</time>
      </trkpt>
      <trkpt lat="44.9745" lon="5.5316">
        <ele>1547.5999755859</ele>
        <time>2013-09-21T08:23:28.000Z</time>
      </trkpt>
      <trkpt lat="44.9744" lon="5.53157">
        <ele>1547.4000244141</ele>
        <time>2013-09-21T08:23:33.000Z</time>
      </trkpt>
      <trkpt lat="44.97432" lon="5.53145">
        <ele>1552.1999511719</ele>
        <time>2013-09-21T08:23:38.000Z</time>
      </trkpt>
      <trkpt lat="44.9743" lon="5.53139">
        <ele>1554.8000488281</ele>
        <time>2013-09-21T08:23:40.000Z</time>
      </trkpt>
      <trkpt lat="44.9742" lon="5.53142">
        <ele>1551.1999511719</ele>
        <time>2013-09-21T08:23:45.000Z</time>
      </trkpt>
      <trkpt lat="44.97418" lon="5.53141">
        <ele>1551.1999511719</ele>
        <time>2013-09-21T08:23:46.000Z</time>
      </trkpt>
      <trkpt lat="44.97399" lon="5.53135">
        <ele>1552</ele>
        <time>2013-09-21T08:23:54.000Z</time>
      </trkpt>
      <trkpt lat="44.97395" lon="5.53132">
        <ele>1552.4000244141</ele>
        <time>2013-09-21T08:23:56.000Z</time>
      </trkpt>
      <trkpt lat="44.97385" lon="5.53139">
        <ele>1548</ele>
        <time>2013-09-21T08:24:01.000Z</time>
      </trkpt>
      <trkpt lat="44.97378" lon="5.53146">
        <ele>1544</ele>
        <time>2013-09-21T08:24:05.000Z</time>
      </trkpt>
      <trkpt lat="44.97374" lon="5.53146">
        <ele>1543.5999755859</ele>
        <time>2013-09-21T08:24:07.000Z</time>
      </trkpt>
      <trkpt lat="44.97361" lon="5.53144">
        <ele>1542.8000488281</ele>
        <time>2013-09-21T08:24:12.000Z</time>
      </trkpt>
      <trkpt lat="44.97352" lon="5.53143">
        <ele>1542.4000244141</ele>
        <time>2013-09-21T08:24:16.000Z</time>
      </trkpt>
      <trkpt lat="44.97347" lon="5.5314">
        <ele>1542.8000488281</ele>
        <time>2013-09-21T08:24:18.000Z</time>
      </trkpt>
      <trkpt lat="44.97339" lon="5.53122">
        <ele>1550</ele>
        <time>2013-09-21T08:24:24.000Z</time>
      </trkpt>
      <trkpt lat="44.97336" lon="5.53111">
        <ele>1554.1999511719</ele>
        <time>2013-09-21T08:24:28.000Z</time>
      </trkpt>
      <trkpt lat="44.97327" lon="5.53114">
        <ele>1561.1999511719</ele>
        <time>2013-09-21T08:24:33.000Z</time>
      </trkpt>
      <trkpt lat="44.97316" lon="5.53117">
        <ele>1574</ele>
        <time>2013-09-21T08:24:38.000Z</time>
      </trkpt>
      <trkpt lat="44.97311" lon="5.53111">
        <ele>1584.1999511719</ele>
        <time>2013-09-21T08:24:41.000Z</time>
      </trkpt>
      <trkpt lat="44.97295" lon="5.53101">
        <ele>1612.4000244141</ele>
        <time>2013-09-21T08:24:49.000Z</time>
      </trkpt>
      <trkpt lat="44.97293" lon="5.531">
        <ele>1615.4000244141</ele>
        <time>2013-09-21T08:24:50.000Z</time>
      </trkpt>
      <trkpt lat="44.97284" lon="5.531">
        <ele>1627</ele>
        <time>2013-09-21T08:24:55.000Z</time>
      </trkpt>
      <trkpt lat="44.97272" lon="5.53102">
        <ele>1643.1999511719</ele>
        <time>2013-09-21T08:25:01.000Z</time>
      </trkpt>
      <trkpt lat="44.97258" lon="5.53108">
        <ele>1657.4000244141</ele>
        <time>2013-09-21T08:25:07.000Z</time>
      </trkpt>
      <trkpt lat="44.97246" lon="5.53112">
        <ele>1666</ele>
        <time>2013-09-21T08:25:12.000Z</time>
      </trkpt>
      <trkpt lat="44.97241" lon="5.53111">
        <ele>1668</ele>
        <time>2013-09-21T08:25:14.000Z</time>
      </trkpt>
      <trkpt lat="44.97231" lon="5.53102">
        <ele>1678</ele>
        <time>2013-09-21T08:25:20.000Z</time>
      </trkpt>
      <trkpt lat="44.9722" lon="5.53104">
        <ele>1678.8000488281</ele>
        <time>2013-09-21T08:25:25.000Z</time>
      </trkpt>
      <trkpt lat="44.97216" lon="5.53103">
        <ele>1680</ele>
        <time>2013-09-21T08:25:27.000Z</time>
      </trkpt>
      <trkpt lat="44.97201" lon="5.53102">
        <ele>1684.5999755859</ele>
        <time>2013-09-21T08:25:34.000Z</time>
      </trkpt>
      <trkpt lat="44.97199" lon="5.53102">
        <ele>1685</ele>
        <time>2013-09-21T08:25:35.000Z</time>
      </trkpt>
      <trkpt lat="44.97195" lon="5.53103">
        <ele>1684.8000488281</ele>
        <time>2013-09-21T08:25:37.000Z</time>
      </trkpt>
      <trkpt lat="44.97189" lon="5.53094">
        <ele>1693.8000488281</ele>
        <time>2013-09-21T08:25:42.000Z</time>
      </trkpt>
      <trkpt lat="44.97185" lon="5.53088">
        <ele>1700.8000488281</ele>
        <time>2013-09-21T08:25:45.000Z</time>
      </trkpt>
      <trkpt lat="44.97175" lon="5.53082">
        <ele>1708</ele>
        <time>2013-09-21T08:25:50.000Z</time>
      </trkpt>
      <trkpt lat="44.97171" lon="5.53075">
        <ele>1714.5999755859</ele>
        <time>2013-09-21T08:25:53.000Z</time>
      </trkpt>
      <trkpt lat="44.97169" lon="5.53071">
        <ele>1718.4000244141</ele>
        <time>2013-09-21T08:25:55.000Z</time>
      </trkpt>
      <trkpt lat="44.97163" lon="5.53079">
        <ele>1713.8000488281</ele>
        <time>2013-09-21T08:26:00.000Z</time>
      </trkpt>
      <trkpt lat="44.97155" lon="5.53095">
        <ele>1699.8000488281</ele>
        <time>2013-09-21T08:26:05.000Z</time>
      </trkpt>
      <trkpt lat="44.9714" lon="5.53105">
        <ele>1686.8000488281</ele>
        <time>2013-09-21T08:26:11.000Z</time>
      </trkpt>
      <trkpt lat="44.9713" lon="5.53107">
        <ele>1681.4000244141</ele>
        <time>2013-09-21T08:26:15.000Z</time>
      </trkpt>
      <trkpt lat="44.97115" lon="5.53114">
        <ele>1666.1999511719</ele>
        <time>2013-09-21T08:26:20.000Z</time>
      </trkpt>
      <trkpt lat="44.97099" lon="5.53115">
        <ele>1660.4000244141</ele>
        <time>2013-09-21T08:26:25.000Z</time>
      </trkpt>
      <trkpt lat="44.9709" lon="5.5311">
        <ele>1668.1999511719</ele>
        <time>2013-09-21T08:26:29.000Z</time>
      </trkpt>
      <trkpt lat="44.97079" lon="5.53115">
        <ele>1656.5999755859</ele>
        <time>2013-09-21T08:26:33.000Z</time>
      </trkpt>
      <trkpt lat="44.97068" lon="5.53128">
        <ele>1627</ele>
        <time>2013-09-21T08:26:38.000Z</time>
      </trkpt>
      <trkpt lat="44.97058" lon="5.53143">
        <ele>1591</ele>
        <time>2013-09-21T08:26:43.000Z</time>
      </trkpt>
      <trkpt lat="44.97042" lon="5.53149">
        <ele>1576.1999511719</ele>
        <time>2013-09-21T08:26:48.000Z</time>
      </trkpt>
      <trkpt lat="44.97029" lon="5.53159">
        <ele>1553</ele>
        <time>2013-09-21T08:26:53.000Z</time>
      </trkpt>
      <trkpt lat="44.97018" lon="5.53173">
        <ele>1532.5999755859</ele>
        <time>2013-09-21T08:26:58.000Z</time>
      </trkpt>
      <trkpt lat="44.97002" lon="5.53185">
        <ele>1531</ele>
        <time>2013-09-21T08:27:04.000Z</time>
      </trkpt>
      <trkpt lat="44.96991" lon="5.53192">
        <ele>1542.4000244141</ele>
        <time>2013-09-21T08:27:08.000Z</time>
      </trkpt>
      <trkpt lat="44.96973" lon="5.532">
        <ele>1558.5999755859</ele>
        <time>2013-09-21T08:27:14.000Z</time>
      </trkpt>
      <trkpt lat="44.96958" lon="5.53203">
        <ele>1572.8000488281</ele>
        <time>2013-09-21T08:27:19.000Z</time>
      </trkpt>
      <trkpt lat="44.96943" lon="5.53216">
        <ele>1567.5999755859</ele>
        <time>2013-09-21T08:27:25.000Z</time>
      </trkpt>
      <trkpt lat="44.9693" lon="5.53219">
        <ele>1571.5999755859</ele>
        <time>2013-09-21T08:27:29.000Z</time>
      </trkpt>
      <trkpt lat="44.96915" lon="5.53228">
        <ele>1562.8000488281</ele>
        <time>2013-09-21T08:27:34.000Z</time>
      </trkpt>
      <trkpt lat="44.9691" lon="5.53228">
        <ele>1569.1999511719</ele>
        <time>2013-09-21T08:27:36.000Z</time>
      </trkpt>
      <trkpt lat="44.96897" lon="5.53243">
        <ele>1553.1999511719</ele>
        <time>2013-09-21T08:27:42.000Z</time>
      </trkpt>
      <trkpt lat="44.96887" lon="5.53251">
        <ele>1556.4000244141</ele>
        <time>2013-09-21T08:27:46.000Z</time>
      </trkpt>
      <trkpt lat="44.96875" lon="5.53252">
        <ele>1575.5999755859</ele>
        <time>2013-09-21T08:27:51.000Z</time>
      </trkpt>
      <trkpt lat="44.96865" lon="5.5326">
        <ele>1583</ele>
        <time>2013-09-21T08:27:56.000Z</time>
      </trkpt>
      <trkpt lat="44.9686" lon="5.53263">
        <ele>1587.4000244141</ele>
        <time>2013-09-21T08:27:58.000Z</time>
      </trkpt>
      <trkpt lat="44.96855" lon="5.53266">
        <ele>1591.4000244141</ele>
        <time>2013-09-21T08:28:00.000Z</time>
      </trkpt>
      <trkpt lat="44.96847" lon="5.53278">
        <ele>1585.1999511719</ele>
        <time>2013-09-21T08:28:06.000Z</time>
      </trkpt>
      <trkpt lat="44.96839" lon="5.53285">
        <ele>1584.4000244141</ele>
        <time>2013-09-21T08:28:11.000Z</time>
      </trkpt>
      <trkpt lat="44.96835" lon="5.53294">
        <ele>1574.1999511719</ele>
        <time>2013-09-21T08:28:15.000Z</time>
      </trkpt>
      <trkpt lat="44.96822" lon="5.53299">
        <ele>1568.8000488281</ele>
        <time>2013-09-21T08:28:21.000Z</time>
      </trkpt>
      <trkpt lat="44.96814" lon="5.53298">
        <ele>1572</ele>
        <time>2013-09-21T08:28:25.000Z</time>
      </trkpt>
      <trkpt lat="44.96807" lon="5.53296">
        <ele>1575.5999755859</ele>
        <time>2013-09-21T08:28:28.000Z</time>
      </trkpt>
      <trkpt lat="44.96801" lon="5.533">
        <ele>1570.8000488281</ele>
        <time>2013-09-21T08:28:33.000Z</time>
      </trkpt>
      <trkpt lat="44.968" lon="5.53302">
        <ele>1568.1999511719</ele>
        <time>2013-09-21T08:28:34.000Z</time>
      </trkpt>
      <trkpt lat="44.96797" lon="5.53306">
        <ele>1564.1999511719</ele>
        <time>2013-09-21T08:28:36.000Z</time>
      </trkpt>
      <trkpt lat="44.96794" lon="5.53324">
        <ele>1544.8000488281</ele>
        <time>2013-09-21T08:28:42.000Z</time>
      </trkpt>
      <trkpt lat="44.9679" lon="5.5334">
        <ele>1534</ele>
        <time>2013-09-21T08:28:47.000Z</time>
      </trkpt>
      <trkpt lat="44.96778" lon="5.53349">
        <ele>1537.4000244141</ele>
        <time>2013-09-21T08:28:53.000Z</time>
      </trkpt>
      <trkpt lat="44.96767" lon="5.53347">
        <ele>1545.1999511719</ele>
        <time>2013-09-21T08:28:58.000Z</time>
      </trkpt>
      <trkpt lat="44.96756" lon="5.53346">
        <ele>1552</ele>
        <time>2013-09-21T08:29:03.000Z</time>
      </trkpt>
      <trkpt lat="44.9675" lon="5.53344">
        <ele>1556</ele>
        <time>2013-09-21T08:29:06.000Z</time>
      </trkpt>
      <trkpt lat="44.96746" lon="5.53351">
        <ele>1555.8000488281</ele>
        <time>2013-09-21T08:29:11.000Z</time>
      </trkpt>
      <trkpt lat="44.96745" lon="5.53361">
        <ele>1551.8000488281</ele>
        <time>2013-09-21T08:29:14.000Z</time>
      </trkpt>
      <trkpt lat="44.96744" lon="5.53379">
        <ele>1544.4000244141</ele>
        <time>2013-09-21T08:29:20.000Z</time>
      </trkpt>
      <trkpt lat="44.96742" lon="5.53384">
        <ele>1543.1999511719</ele>
        <time>2013-09-21T08:29:22.000Z</time>
      </trkpt>
      <trkpt lat="44.9673" lon="5.53395">
        <ele>1545.5999755859</ele>
        <time>2013-09-21T08:29:29.000Z</time>
      </trkpt>
      <trkpt lat="44.96722" lon="5.53395">
        <ele>1550</ele>
        <time>2013-09-21T08:29:33.000Z</time>
      </trkpt>
      <trkpt lat="44.96718" lon="5.53406">
        <ele>1547</ele>
        <time>2013-09-21T08:29:38.000Z</time>
      </trkpt>
      <trkpt lat="44.96717" lon="5.53408">
        <ele>1546.4000244141</ele>
        <time>2013-09-21T08:29:39.000Z</time>
      </trkpt>
      <trkpt lat="44.96707" lon="5.53423">
        <ele>1546.4000244141</ele>
        <time>2013-09-21T08:29:46.000Z</time>
      </trkpt>
      <trkpt lat="44.96696" lon="5.53441">
        <ele>1545.1999511719</ele>
        <time>2013-09-21T08:29:54.000Z</time>
      </trkpt>
      <trkpt lat="44.96686" lon="5.53455">
        <ele>1545</ele>
        <time>2013-09-21T08:30:00.000Z</time>
      </trkpt>
      <trkpt lat="44.96676" lon="5.53464">
        <ele>1546.4000244141</ele>
        <time>2013-09-21T08:30:06.000Z</time>
      </trkpt>
      <trkpt lat="44.96668" lon="5.53478">
        <ele>1544.4000244141</ele>
        <time>2013-09-21T08:30:11.000Z</time>
      </trkpt>
      <trkpt lat="44.96659" lon="5.53487">
        <ele>1541.5999755859</ele>
        <time>2013-09-21T08:30:16.000Z</time>
      </trkpt>
      <trkpt lat="44.96655" lon="5.53495">
        <ele>1538.5999755859</ele>
        <time>2013-09-21T08:30:19.000Z</time>
      </trkpt>
      <trkpt lat="44.9665" lon="5.53507">
        <ele>1535.1999511719</ele>
        <time>2013-09-21T08:30:23.000Z</time>
      </trkpt>
      <trkpt lat="44.96634" lon="5.53517">
        <ele>1533.5999755859</ele>
        <time>2013-09-21T08:30:30.000Z</time>
      </trkpt>
      <trkpt lat="44.9662" lon="5.53515">
        <ele>1534</ele>
        <time>2013-09-21T08:30:35.000Z</time>
      </trkpt>
      <trkpt lat="44.96609" lon="5.53506">
        <ele>1536.5999755859</ele>
        <time>2013-09-21T08:30:40.000Z</time>
      </trkpt>
      <trkpt lat="44.96602" lon="5.53487">
        <ele>1543.1999511719</ele>
        <time>2013-09-21T08:30:45.000Z</time>
      </trkpt>
      <trkpt lat="44.96591" lon="5.5347">
        <ele>1549.8000488281</ele>
        <time>2013-09-21T08:30:50.000Z</time>
      </trkpt>
      <trkpt lat="44.96578" lon="5.53459">
        <ele>1550.5999755859</ele>
        <time>2013-09-21T08:30:55.000Z</time>
      </trkpt>
      <trkpt lat="44.96569" lon="5.53441">
        <ele>1551.5999755859</ele>
        <time>2013-09-21T08:31:00.000Z</time>
      </trkpt>
      <trkpt lat="44.96565" lon="5.53425">
        <ele>1554.8000488281</ele>
        <time>2013-09-21T08:31:04.000Z</time>
      </trkpt>
      <trkpt lat="44.96556" lon="5.53398">
        <ele>1558.5999755859</ele>
        <time>2013-09-21T08:31:11.000Z</time>
      </trkpt>
      <trkpt lat="44.96549" lon="5.53386">
        <ele>1557.8000488281</ele>
        <time>2013-09-21T08:31:15.000Z</time>
      </trkpt>
      <trkpt lat="44.96546" lon="5.53374">
        <ele>1560</ele>
        <time>2013-09-21T08:31:18.000Z</time>
      </trkpt>
      <trkpt lat="44.96534" lon="5.53366">
        <ele>1556</ele>
        <time>2013-09-21T08:31:23.000Z</time>
      </trkpt>
      <trkpt lat="44.96531" lon="5.53361">
        <ele>1555.5999755859</ele>
        <time>2013-09-21T08:31:25.000Z</time>
      </trkpt>
      <trkpt lat="44.96522" lon="5.53345">
        <ele>1555.5999755859</ele>
        <time>2013-09-21T08:31:31.000Z</time>
      </trkpt>
      <trkpt lat="44.96515" lon="5.53335">
        <ele>1555.1999511719</ele>
        <time>2013-09-21T08:31:35.000Z</time>
      </trkpt>
      <trkpt lat="44.96506" lon="5.53323">
        <ele>1556.8000488281</ele>
        <time>2013-09-21T08:31:40.000Z</time>
      </trkpt>
      <trkpt lat="44.96497" lon="5.53314">
        <ele>1557.5999755859</ele>
        <time>2013-09-21T08:31:45.000Z</time>
      </trkpt>
      <trkpt lat="44.96486" lon="5.53308">
        <ele>1557.1999511719</ele>
        <time>2013-09-21T08:31:50.000Z</time>
      </trkpt>
      <trkpt lat="44.9648" lon="5.53298">
        <ele>1560.5999755859</ele>
        <time>2013-09-21T08:31:55.000Z</time>
      </trkpt>
      <trkpt lat="44.96475" lon="5.53289">
        <ele>1563.1999511719</ele>
        <time>2013-09-21T08:31:59.000Z</time>
      </trkpt>
      <trkpt lat="44.96464" lon="5.53287">
        <ele>1560.4000244141</ele>
        <time>2013-09-21T08:32:05.000Z</time>
      </trkpt>
      <trkpt lat="44.96454" lon="5.53282">
        <ele>1559.4000244141</ele>
        <time>2013-09-21T08:32:10.000Z</time>
      </trkpt>
      <trkpt lat="44.96447" lon="5.53272">
        <ele>1561.4000244141</ele>
        <time>2013-09-21T08:32:15.000Z</time>
      </trkpt>
      <trkpt lat="44.96445" lon="5.53271">
        <ele>1561.8000488281</ele>
        <time>2013-09-21T08:32:16.000Z</time>
      </trkpt>
      <trkpt lat="44.96435" lon="5.53261">
        <ele>1562</ele>
        <time>2013-09-21T08:32:22.000Z</time>
      </trkpt>
      <trkpt lat="44.96426" lon="5.53251">
        <ele>1563.1999511719</ele>
        <time>2013-09-21T08:32:27.000Z</time>
      </trkpt>
      <trkpt lat="44.96419" lon="5.53242">
        <ele>1564.1999511719</ele>
        <time>2013-09-21T08:32:32.000Z</time>
      </trkpt>
      <trkpt lat="44.96412" lon="5.53235">
        <ele>1564.4000244141</ele>
        <time>2013-09-21T08:32:36.000Z</time>
      </trkpt>
      <trkpt lat="44.96402" lon="5.53225">
        <ele>1565.4000244141</ele>
        <time>2013-09-21T08:32:42.000Z</time>
      </trkpt>
      <trkpt lat="44.96393" lon="5.53217">
        <ele>1566.5999755859</ele>
        <time>2013-09-21T08:32:48.000Z</time>
      </trkpt>
      <trkpt lat="44.96382" lon="5.53209">
        <ele>1567.4000244141</ele>
        <time>2013-09-21T08:32:54.000Z</time>
      </trkpt>
      <trkpt lat="44.96373" lon="5.53203">
        <ele>1568</ele>
        <time>2013-09-21T08:32:59.000Z</time>
      </trkpt>
      <trkpt lat="44.96365" lon="5.53196">
        <ele>1570</ele>
        <time>2013-09-21T08:33:04.000Z</time>
      </trkpt>
      <trkpt lat="44.96354" lon="5.53189">
        <ele>1571</ele>
        <time>2013-09-21T08:33:10.000Z</time>
      </trkpt>
      <trkpt lat="44.96344" lon="5.53184">
        <ele>1572</ele>
        <time>2013-09-21T08:33:16.000Z</time>
      </trkpt>
      <trkpt lat="44.96334" lon="5.53181">
        <ele>1571.5999755859</ele>
        <time>2013-09-21T08:33:21.000Z</time>
      </trkpt>
      <trkpt lat="44.96326" lon="5.53177">
        <ele>1571</ele>
        <time>2013-09-21T08:33:26.000Z</time>
      </trkpt>
      <trkpt lat="44.96317" lon="5.53172">
        <ele>1569.4000244141</ele>
        <time>2013-09-21T08:33:31.000Z</time>
      </trkpt>
      <trkpt lat="44.96305" lon="5.53164">
        <ele>1572</ele>
        <time>2013-09-21T08:33:38.000Z</time>
      </trkpt>
      <trkpt lat="44.96298" lon="5.53159">
        <ele>1578.4000244141</ele>
        <time>2013-09-21T08:33:42.000Z</time>
      </trkpt>
      <trkpt lat="44.9629" lon="5.53151">
        <ele>1588.1999511719</ele>
        <time>2013-09-21T08:33:47.000Z</time>
      </trkpt>
      <trkpt lat="44.9628" lon="5.53143">
        <ele>1600.1999511719</ele>
        <time>2013-09-21T08:33:53.000Z</time>
      </trkpt>
      <trkpt lat="44.96269" lon="5.53134">
        <ele>1611.1999511719</ele>
        <time>2013-09-21T08:33:59.000Z</time>
      </trkpt>
      <trkpt lat="44.96257" lon="5.53125">
        <ele>1623.8000488281</ele>
        <time>2013-09-21T08:34:06.000Z</time>
      </trkpt>
      <trkpt lat="44.9625" lon="5.53118">
        <ele>1634.4000244141</ele>
        <time>2013-09-21T08:34:10.000Z</time>
      </trkpt>
      <trkpt lat="44.96242" lon="5.53112">
        <ele>1644.1999511719</ele>
        <time>2013-09-21T08:34:14.000Z</time>
      </trkpt>
      <trkpt lat="44.96237" lon="5.53104">
        <ele>1657.8000488281</ele>
        <time>2013-09-21T08:34:18.000Z</time>
      </trkpt>
      <trkpt lat="44.9623" lon="5.53095">
        <ele>1672.8000488281</ele>
        <time>2013-09-21T08:34:23.000Z</time>
      </trkpt>
      <trkpt lat="44.96221" lon="5.53087">
        <ele>1684.5999755859</ele>
        <time>2013-09-21T08:34:29.000Z</time>
      </trkpt>
      <trkpt lat="44.96214" lon="5.53083">
        <ele>1689.5999755859</ele>
        <time>2013-09-21T08:34:33.000Z</time>
      </trkpt>
      <trkpt lat="44.96207" lon="5.53079">
        <ele>1690.5999755859</ele>
        <time>2013-09-21T08:34:37.000Z</time>
      </trkpt>
      <trkpt lat="44.96197" lon="5.53076">
        <ele>1689.5999755859</ele>
        <time>2013-09-21T08:34:42.000Z</time>
      </trkpt>
      <trkpt lat="44.96192" lon="5.53073">
        <ele>1691.1999511719</ele>
        <time>2013-09-21T08:34:45.000Z</time>
      </trkpt>
      <trkpt lat="44.96184" lon="5.53065">
        <ele>1695.4000244141</ele>
        <time>2013-09-21T08:34:51.000Z</time>
      </trkpt>
      <trkpt lat="44.96179" lon="5.53059">
        <ele>1699</ele>
        <time>2013-09-21T08:34:55.000Z</time>
      </trkpt>
      <trkpt lat="44.96168" lon="5.53051">
        <ele>1701.5999755859</ele>
        <time>2013-09-21T08:35:02.000Z</time>
      </trkpt>
      <trkpt lat="44.96164" lon="5.53049">
        <ele>1702.8000488281</ele>
        <time>2013-09-21T08:35:04.000Z</time>
      </trkpt>
      <trkpt lat="44.96156" lon="5.53047">
        <ele>1701.4000244141</ele>
        <time>2013-09-21T08:35:09.000Z</time>
      </trkpt>
      <trkpt lat="44.9615" lon="5.53047">
        <ele>1699.1999511719</ele>
        <time>2013-09-21T08:35:12.000Z</time>
      </trkpt>
      <trkpt lat="44.96141" lon="5.53046">
        <ele>1696.8000488281</ele>
        <time>2013-09-21T08:35:17.000Z</time>
      </trkpt>
      <trkpt lat="44.96131" lon="5.53047">
        <ele>1692.1999511719</ele>
        <time>2013-09-21T08:35:22.000Z</time>
      </trkpt>
      <trkpt lat="44.96122" lon="5.53046">
        <ele>1689.4000244141</ele>
        <time>2013-09-21T08:35:27.000Z</time>
      </trkpt>
      <trkpt lat="44.96113" lon="5.53048">
        <ele>1684.4000244141</ele>
        <time>2013-09-21T08:35:31.000Z</time>
      </trkpt>
      <trkpt lat="44.96107" lon="5.53046">
        <ele>1684</ele>
        <time>2013-09-21T08:35:34.000Z</time>
      </trkpt>
      <trkpt lat="44.96097" lon="5.53044">
        <ele>1682.8000488281</ele>
        <time>2013-09-21T08:35:39.000Z</time>
      </trkpt>
      <trkpt lat="44.96088" lon="5.53042">
        <ele>1681</ele>
        <time>2013-09-21T08:35:43.000Z</time>
      </trkpt>
      <trkpt lat="44.9608" lon="5.53039">
        <ele>1676.1999511719</ele>
        <time>2013-09-21T08:35:47.000Z</time>
      </trkpt>
      <trkpt lat="44.96076" lon="5.53038">
        <ele>1671.5999755859</ele>
        <time>2013-09-21T08:35:49.000Z</time>
      </trkpt>
      <trkpt lat="44.96066" lon="5.53033">
        <ele>1658.5999755859</ele>
        <time>2013-09-21T08:35:55.000Z</time>
      </trkpt>
      <trkpt lat="44.96056" lon="5.53031">
        <ele>1644.5999755859</ele>
        <time>2013-09-21T08:35:59.000Z</time>
      </trkpt>
      <trkpt lat="44.96045" lon="5.53025">
        <ele>1629.1999511719</ele>
        <time>2013-09-21T08:36:05.000Z</time>
      </trkpt>
      <trkpt lat="44.96036" lon="5.53023">
        <ele>1615.4000244141</ele>
        <time>2013-09-21T08:36:09.000Z</time>
      </trkpt>
      <trkpt lat="44.96027" lon="5.53022">
        <ele>1601.1999511719</ele>
        <time>2013-09-21T08:36:13.000Z</time>
      </trkpt>
      <trkpt lat="44.96017" lon="5.5302">
        <ele>1583.5999755859</ele>
        <time>2013-09-21T08:36:18.000Z</time>
      </trkpt>
      <trkpt lat="44.96006" lon="5.53019">
        <ele>1565.5999755859</ele>
        <time>2013-09-21T08:36:23.000Z</time>
      </trkpt>
      <trkpt lat="44.95996" lon="5.5302">
        <ele>1556</ele>
        <time>2013-09-21T08:36:28.000Z</time>
      </trkpt>
      <trkpt lat="44.95987" lon="5.53022">
        <ele>1557.5999755859</ele>
        <time>2013-09-21T08:36:33.000Z</time>
      </trkpt>
      <trkpt lat="44.95978" lon="5.53024">
        <ele>1559</ele>
        <time>2013-09-21T08:36:37.000Z</time>
      </trkpt>
      <trkpt lat="44.95968" lon="5.53023">
        <ele>1561.5999755859</ele>
        <time>2013-09-21T08:36:42.000Z</time>
      </trkpt>
      <trkpt lat="44.95958" lon="5.53023">
        <ele>1563.8000488281</ele>
        <time>2013-09-21T08:36:46.000Z</time>
      </trkpt>
      <trkpt lat="44.95944" lon="5.53021">
        <ele>1568</ele>
        <time>2013-09-21T08:36:53.000Z</time>
      </trkpt>
      <trkpt lat="44.95931" lon="5.53021">
        <ele>1570.8000488281</ele>
        <time>2013-09-21T08:36:58.000Z</time>
      </trkpt>
      <trkpt lat="44.95924" lon="5.53015">
        <ele>1575.1999511719</ele>
        <time>2013-09-21T08:37:02.000Z</time>
      </trkpt>
      <trkpt lat="44.95913" lon="5.53005">
        <ele>1581.8000488281</ele>
        <time>2013-09-21T08:37:08.000Z</time>
      </trkpt>
      <trkpt lat="44.95902" lon="5.52997">
        <ele>1587.8000488281</ele>
        <time>2013-09-21T08:37:13.000Z</time>
      </trkpt>
      <trkpt lat="44.9589" lon="5.5299">
        <ele>1593.8000488281</ele>
        <time>2013-09-21T08:37:19.000Z</time>
      </trkpt>
      <trkpt lat="44.95888" lon="5.52988">
        <ele>1595.1999511719</ele>
        <time>2013-09-21T08:37:20.000Z</time>
      </trkpt>
      <trkpt lat="44.95881" lon="5.52975">
        <ele>1606.5999755859</ele>
        <time>2013-09-21T08:37:26.000Z</time>
      </trkpt>
      <trkpt lat="44.95879" lon="5.52974">
        <ele>1607.4000244141</ele>
        <time>2013-09-21T08:37:27.000Z</time>
      </trkpt>
      <trkpt lat="44.95865" lon="5.52966">
        <ele>1606.1999511719</ele>
        <time>2013-09-21T08:37:34.000Z</time>
      </trkpt>
      <trkpt lat="44.95853" lon="5.5296">
        <ele>1602.1999511719</ele>
        <time>2013-09-21T08:37:40.000Z</time>
      </trkpt>
      <trkpt lat="44.95848" lon="5.52957">
        <ele>1600.4000244141</ele>
        <time>2013-09-21T08:37:42.000Z</time>
      </trkpt>
      <trkpt lat="44.95843" lon="5.52949">
        <ele>1600.4000244141</ele>
        <time>2013-09-21T08:37:46.000Z</time>
      </trkpt>
      <trkpt lat="44.95834" lon="5.52936">
        <ele>1596.1999511719</ele>
        <time>2013-09-21T08:37:53.000Z</time>
      </trkpt>
      <trkpt lat="44.95833" lon="5.52934">
        <ele>1596.1999511719</ele>
        <time>2013-09-21T08:37:54.000Z</time>
      </trkpt>
      <trkpt lat="44.95822" lon="5.5293">
        <ele>1604</ele>
        <time>2013-09-21T08:38:00.000Z</time>
      </trkpt>
      <trkpt lat="44.95806" lon="5.52923">
        <ele>1617.1999511719</ele>
        <time>2013-09-21T08:38:07.000Z</time>
      </trkpt>
      <trkpt lat="44.95795" lon="5.52918">
        <ele>1628.5999755859</ele>
        <time>2013-09-21T08:38:12.000Z</time>
      </trkpt>
      <trkpt lat="44.95783" lon="5.52911">
        <ele>1645.5999755859</ele>
        <time>2013-09-21T08:38:18.000Z</time>
      </trkpt>
      <trkpt lat="44.95772" lon="5.52904">
        <ele>1660.4000244141</ele>
        <time>2013-09-21T08:38:23.000Z</time>
      </trkpt>
      <trkpt lat="44.95764" lon="5.52899">
        <ele>1670.1999511719</ele>
        <time>2013-09-21T08:38:27.000Z</time>
      </trkpt>
      <trkpt lat="44.9576" lon="5.52896">
        <ele>1675</ele>
        <time>2013-09-21T08:38:29.000Z</time>
      </trkpt>
      <trkpt lat="44.95746" lon="5.52887">
        <ele>1686.4000244141</ele>
        <time>2013-09-21T08:38:36.000Z</time>
      </trkpt>
      <trkpt lat="44.95735" lon="5.5288">
        <ele>1688.1999511719</ele>
        <time>2013-09-21T08:38:41.000Z</time>
      </trkpt>
      <trkpt lat="44.95726" lon="5.52875">
        <ele>1689.5999755859</ele>
        <time>2013-09-21T08:38:45.000Z</time>
      </trkpt>
      <trkpt lat="44.95714" lon="5.52867">
        <ele>1692.8000488281</ele>
        <time>2013-09-21T08:38:50.000Z</time>
      </trkpt>
      <trkpt lat="44.95703" lon="5.52858">
        <ele>1696.1999511719</ele>
        <time>2013-09-21T08:38:55.000Z</time>
      </trkpt>
      <trkpt lat="44.95692" lon="5.52848">
        <ele>1701.1999511719</ele>
        <time>2013-09-21T08:39:00.000Z</time>
      </trkpt>
      <trkpt lat="44.95686" lon="5.5284">
        <ele>1706.1999511719</ele>
        <time>2013-09-21T08:39:04.000Z</time>
      </trkpt>
      <trkpt lat="44.95674" lon="5.52834">
        <ele>1707.4000244141</ele>
        <time>2013-09-21T08:39:09.000Z</time>
      </trkpt>
      <trkpt lat="44.95663" lon="5.52832">
        <ele>1705.8000488281</ele>
        <time>2013-09-21T08:39:14.000Z</time>
      </trkpt>
      <trkpt lat="44.95647" lon="5.52827">
        <ele>1704.4000244141</ele>
        <time>2013-09-21T08:39:21.000Z</time>
      </trkpt>
      <trkpt lat="44.95632" lon="5.52821">
        <ele>1704.4000244141</ele>
        <time>2013-09-21T08:39:27.000Z</time>
      </trkpt>
      <trkpt lat="44.95628" lon="5.52818">
        <ele>1705.1999511719</ele>
        <time>2013-09-21T08:39:29.000Z</time>
      </trkpt>
      <trkpt lat="44.95614" lon="5.52812">
        <ele>1705</ele>
        <time>2013-09-21T08:39:35.000Z</time>
      </trkpt>
      <trkpt lat="44.95611" lon="5.52811">
        <ele>1705.1999511719</ele>
        <time>2013-09-21T08:39:36.000Z</time>
      </trkpt>
      <trkpt lat="44.95595" lon="5.52808">
        <ele>1702.5999755859</ele>
        <time>2013-09-21T08:39:43.000Z</time>
      </trkpt>
      <trkpt lat="44.9558" lon="5.52805">
        <ele>1697.5999755859</ele>
        <time>2013-09-21T08:39:49.000Z</time>
      </trkpt>
      <trkpt lat="44.95568" lon="5.52802">
        <ele>1687.8000488281</ele>
        <time>2013-09-21T08:39:54.000Z</time>
      </trkpt>
      <trkpt lat="44.95554" lon="5.52799">
        <ele>1678.5999755859</ele>
        <time>2013-09-21T08:39:59.000Z</time>
      </trkpt>
      <trkpt lat="44.95542" lon="5.52795">
        <ele>1671.4000244141</ele>
        <time>2013-09-21T08:40:04.000Z</time>
      </trkpt>
      <trkpt lat="44.95532" lon="5.52793">
        <ele>1665.5999755859</ele>
        <time>2013-09-21T08:40:08.000Z</time>
      </trkpt>
      <trkpt lat="44.9553" lon="5.52793">
        <ele>1663.4000244141</ele>
        <time>2013-09-21T08:40:09.000Z</time>
      </trkpt>
      <trkpt lat="44.95513" lon="5.52788">
        <ele>1657.4000244141</ele>
        <time>2013-09-21T08:40:16.000Z</time>
      </trkpt>
      <trkpt lat="44.955" lon="5.52784">
        <ele>1655</ele>
        <time>2013-09-21T08:40:21.000Z</time>
      </trkpt>
      <trkpt lat="44.95487" lon="5.52779">
        <ele>1657.8000488281</ele>
        <time>2013-09-21T08:40:26.000Z</time>
      </trkpt>
      <trkpt lat="44.95475" lon="5.52773">
        <ele>1663.5999755859</ele>
        <time>2013-09-21T08:40:31.000Z</time>
      </trkpt>
      <trkpt lat="44.95461" lon="5.52768">
        <ele>1666</ele>
        <time>2013-09-21T08:40:36.000Z</time>
      </trkpt>
      <trkpt lat="44.95448" lon="5.52762">
        <ele>1671.1999511719</ele>
        <time>2013-09-21T08:40:41.000Z</time>
      </trkpt>
      <trkpt lat="44.95437" lon="5.52757">
        <ele>1675.1999511719</ele>
        <time>2013-09-21T08:40:46.000Z</time>
      </trkpt>
      <trkpt lat="44.95425" lon="5.5275">
        <ele>1682.4000244141</ele>
        <time>2013-09-21T08:40:51.000Z</time>
      </trkpt>
      <trkpt lat="44.95413" lon="5.52741">
        <ele>1681</ele>
        <time>2013-09-21T08:40:56.000Z</time>
      </trkpt>
      <trkpt lat="44.95406" lon="5.52732">
        <ele>1676.8000488281</ele>
        <time>2013-09-21T08:41:00.000Z</time>
      </trkpt>
      <trkpt lat="44.95398" lon="5.52723">
        <ele>1673.4000244141</ele>
        <time>2013-09-21T08:41:04.000Z</time>
      </trkpt>
      <trkpt lat="44.95386" lon="5.52719">
        <ele>1660.4000244141</ele>
        <time>2013-09-21T08:41:09.000Z</time>
      </trkpt>
      <trkpt lat="44.95378" lon="5.52716">
        <ele>1651.1999511719</ele>
        <time>2013-09-21T08:41:12.000Z</time>
      </trkpt>
      <trkpt lat="44.95376" lon="5.52713">
        <ele>1651</ele>
        <time>2013-09-21T08:41:15.000Z</time>
      </trkpt>
      <trkpt lat="44.95368" lon="5.52716">
        <ele>1636.5999755859</ele>
        <time>2013-09-21T08:41:20.000Z</time>
      </trkpt>
      <trkpt lat="44.95354" lon="5.52715">
        <ele>1617.8000488281</ele>
        <time>2013-09-21T08:41:25.000Z</time>
      </trkpt>
      <trkpt lat="44.95349" lon="5.52716">
        <ele>1609.8000488281</ele>
        <time>2013-09-21T08:41:27.000Z</time>
      </trkpt>
      <trkpt lat="44.95333" lon="5.52714">
        <ele>1589.8000488281</ele>
        <time>2013-09-21T08:41:33.000Z</time>
      </trkpt>
      <trkpt lat="44.95322" lon="5.52714">
        <ele>1588</ele>
        <time>2013-09-21T08:41:37.000Z</time>
      </trkpt>
      <trkpt lat="44.9531" lon="5.52713">
        <ele>1587.8000488281</ele>
        <time>2013-09-21T08:41:41.000Z</time>
      </trkpt>
      <trkpt lat="44.95298" lon="5.52712">
        <ele>1587.8000488281</ele>
        <time>2013-09-21T08:41:45.000Z</time>
      </trkpt>
      <trkpt lat="44.95279" lon="5.52708">
        <ele>1588.4000244141</ele>
        <time>2013-09-21T08:41:52.000Z</time>
      </trkpt>
      <trkpt lat="44.95268" lon="5.52706">
        <ele>1588.5999755859</ele>
        <time>2013-09-21T08:41:56.000Z</time>
      </trkpt>
      <trkpt lat="44.95256" lon="5.527">
        <ele>1590.1999511719</ele>
        <time>2013-09-21T08:42:01.000Z</time>
      </trkpt>
      <trkpt lat="44.95245" lon="5.52699">
        <ele>1588.8000488281</ele>
        <time>2013-09-21T08:42:05.000Z</time>
      </trkpt>
      <trkpt lat="44.95233" lon="5.52693">
        <ele>1590.5999755859</ele>
        <time>2013-09-21T08:42:10.000Z</time>
      </trkpt>
      <trkpt lat="44.95218" lon="5.52685">
        <ele>1592.8000488281</ele>
        <time>2013-09-21T08:42:16.000Z</time>
      </trkpt>
      <trkpt lat="44.95208" lon="5.52688">
        <ele>1590</ele>
        <time>2013-09-21T08:42:20.000Z</time>
      </trkpt>
      <trkpt lat="44.95198" lon="5.52686">
        <ele>1589.4000244141</ele>
        <time>2013-09-21T08:42:24.000Z</time>
      </trkpt>
      <trkpt lat="44.95187" lon="5.52682">
        <ele>1590</ele>
        <time>2013-09-21T08:42:28.000Z</time>
      </trkpt>
      <trkpt lat="44.95176" lon="5.52672">
        <ele>1592.8000488281</ele>
        <time>2013-09-21T08:42:33.000Z</time>
      </trkpt>
      <trkpt lat="44.95161" lon="5.52663">
        <ele>1594.8000488281</ele>
        <time>2013-09-21T08:42:39.000Z</time>
      </trkpt>
      <trkpt lat="44.95149" lon="5.52654">
        <ele>1596.8000488281</ele>
        <time>2013-09-21T08:42:44.000Z</time>
      </trkpt>
      <trkpt lat="44.95139" lon="5.52647">
        <ele>1598.5999755859</ele>
        <time>2013-09-21T08:42:48.000Z</time>
      </trkpt>
      <trkpt lat="44.95124" lon="5.52642">
        <ele>1597</ele>
        <time>2013-09-21T08:42:54.000Z</time>
      </trkpt>
      <trkpt lat="44.95115" lon="5.52632">
        <ele>1600.1999511719</ele>
        <time>2013-09-21T08:42:59.000Z</time>
      </trkpt>
      <trkpt lat="44.95103" lon="5.52622">
        <ele>1601.4000244141</ele>
        <time>2013-09-21T08:43:05.000Z</time>
      </trkpt>
      <trkpt lat="44.95089" lon="5.52617">
        <ele>1600</ele>
        <time>2013-09-21T08:43:10.000Z</time>
      </trkpt>
      <trkpt lat="44.95075" lon="5.52611">
        <ele>1599</ele>
        <time>2013-09-21T08:43:15.000Z</time>
      </trkpt>
      <trkpt lat="44.95062" lon="5.52608">
        <ele>1597.4000244141</ele>
        <time>2013-09-21T08:43:20.000Z</time>
      </trkpt>
      <trkpt lat="44.95051" lon="5.52604">
        <ele>1596.5999755859</ele>
        <time>2013-09-21T08:43:24.000Z</time>
      </trkpt>
      <trkpt lat="44.9504" lon="5.52598">
        <ele>1597</ele>
        <time>2013-09-21T08:43:28.000Z</time>
      </trkpt>
      <trkpt lat="44.95028" lon="5.52593">
        <ele>1596.4000244141</ele>
        <time>2013-09-21T08:43:33.000Z</time>
      </trkpt>
      <trkpt lat="44.95011" lon="5.52596">
        <ele>1590.8000488281</ele>
        <time>2013-09-21T08:43:39.000Z</time>
      </trkpt>
      <trkpt lat="44.94997" lon="5.52592">
        <ele>1588.4000244141</ele>
        <time>2013-09-21T08:43:44.000Z</time>
      </trkpt>
      <trkpt lat="44.94984" lon="5.52588">
        <ele>1582.8000488281</ele>
        <time>2013-09-21T08:43:49.000Z</time>
      </trkpt>
      <trkpt lat="44.94971" lon="5.52584">
        <ele>1577</ele>
        <time>2013-09-21T08:43:54.000Z</time>
      </trkpt>
      <trkpt lat="44.94958" lon="5.52581">
        <ele>1572.4000244141</ele>
        <time>2013-09-21T08:43:59.000Z</time>
      </trkpt>
      <trkpt lat="44.94949" lon="5.52574">
        <ele>1575.8000488281</ele>
        <time>2013-09-21T08:44:03.000Z</time>
      </trkpt>
      <trkpt lat="44.94936" lon="5.52573">
        <ele>1572.8000488281</ele>
        <time>2013-09-21T08:44:08.000Z</time>
      </trkpt>
      <trkpt lat="44.9492" lon="5.52574">
        <ele>1563.8000488281</ele>
        <time>2013-09-21T08:44:14.000Z</time>
      </trkpt>
      <trkpt lat="44.94909" lon="5.5257">
        <ele>1572.1999511719</ele>
        <time>2013-09-21T08:44:18.000Z</time>
      </trkpt>
      <trkpt lat="44.94907" lon="5.52572">
        <ele>1570.8000488281</ele>
        <time>2013-09-21T08:44:19.000Z</time>
      </trkpt>
      <trkpt lat="44.94893" lon="5.52577">
        <ele>1565</ele>
        <time>2013-09-21T08:44:24.000Z</time>
      </trkpt>
      <trkpt lat="44.94891" lon="5.52577">
        <ele>1567.4000244141</ele>
        <time>2013-09-21T08:44:25.000Z</time>
      </trkpt>
      <trkpt lat="44.94878" lon="5.52575">
        <ele>1575.4000244141</ele>
        <time>2013-09-21T08:44:30.000Z</time>
      </trkpt>
      <trkpt lat="44.94871" lon="5.52573">
        <ele>1581.8000488281</ele>
        <time>2013-09-21T08:44:33.000Z</time>
      </trkpt>
      <trkpt lat="44.94865" lon="5.52579">
        <ele>1573.5999755859</ele>
        <time>2013-09-21T08:44:36.000Z</time>
      </trkpt>
      <trkpt lat="44.94847" lon="5.52585">
        <ele>1573.8000488281</ele>
        <time>2013-09-21T08:44:43.000Z</time>
      </trkpt>
      <trkpt lat="44.94833" lon="5.52586">
        <ele>1579.8000488281</ele>
        <time>2013-09-21T08:44:48.000Z</time>
      </trkpt>
      <trkpt lat="44.94829" lon="5.52584">
        <ele>1582</ele>
        <time>2013-09-21T08:44:50.000Z</time>
      </trkpt>
      <trkpt lat="44.94817" lon="5.52588">
        <ele>1585.5999755859</ele>
        <time>2013-09-21T08:44:56.000Z</time>
      </trkpt>
      <trkpt lat="44.94809" lon="5.52595">
        <ele>1585.8000488281</ele>
        <time>2013-09-21T08:45:00.000Z</time>
      </trkpt>
      <trkpt lat="44.94799" lon="5.52604">
        <ele>1585.5999755859</ele>
        <time>2013-09-21T08:45:04.000Z</time>
      </trkpt>
      <trkpt lat="44.94784" lon="5.52617">
        <ele>1586.4000244141</ele>
        <time>2013-09-21T08:45:11.000Z</time>
      </trkpt>
      <trkpt lat="44.94781" lon="5.52619">
        <ele>1586.5999755859</ele>
        <time>2013-09-21T08:45:13.000Z</time>
      </trkpt>
      <trkpt lat="44.94772" lon="5.52632">
        <ele>1584.5999755859</ele>
        <time>2013-09-21T08:45:19.000Z</time>
      </trkpt>
      <trkpt lat="44.94764" lon="5.52649">
        <ele>1580.4000244141</ele>
        <time>2013-09-21T08:45:25.000Z</time>
      </trkpt>
      <trkpt lat="44.94757" lon="5.52657">
        <ele>1580</ele>
        <time>2013-09-21T08:45:30.000Z</time>
      </trkpt>
      <trkpt lat="44.94746" lon="5.52665">
        <ele>1580.4000244141</ele>
        <time>2013-09-21T08:45:37.000Z</time>
      </trkpt>
      <trkpt lat="44.94736" lon="5.52669">
        <ele>1581</ele>
        <time>2013-09-21T08:45:43.000Z</time>
      </trkpt>
      <trkpt lat="44.94726" lon="5.52674">
        <ele>1581.4000244141</ele>
        <time>2013-09-21T08:45:49.000Z</time>
      </trkpt>
      <trkpt lat="44.94714" lon="5.5268">
        <ele>1581.5999755859</ele>
        <time>2013-09-21T08:45:55.000Z</time>
      </trkpt>
      <trkpt lat="44.94701" lon="5.52682">
        <ele>1583.4000244141</ele>
        <time>2013-09-21T08:46:01.000Z</time>
      </trkpt>
      <trkpt lat="44.94699" lon="5.52683">
        <ele>1583.4000244141</ele>
        <time>2013-09-21T08:46:02.000Z</time>
      </trkpt>
      <trkpt lat="44.94688" lon="5.52682">
        <ele>1585.5999755859</ele>
        <time>2013-09-21T08:46:09.000Z</time>
      </trkpt>
      <trkpt lat="44.94677" lon="5.52685">
        <ele>1586.8000488281</ele>
        <time>2013-09-21T08:46:15.000Z</time>
      </trkpt>
      <trkpt lat="44.94665" lon="5.5269">
        <ele>1587.1999511719</ele>
        <time>2013-09-21T08:46:21.000Z</time>
      </trkpt>
      <trkpt lat="44.94653" lon="5.52696">
        <ele>1584.5999755859</ele>
        <time>2013-09-21T08:46:26.000Z</time>
      </trkpt>
      <trkpt lat="44.94641" lon="5.52702">
        <ele>1582.4000244141</ele>
        <time>2013-09-21T08:46:31.000Z</time>
      </trkpt>
      <trkpt lat="44.94644" lon="5.52707">
        <ele>1580.5999755859</ele>
        <time>2013-09-21T08:46:36.000Z</time>
      </trkpt>
      <trkpt lat="44.94656" lon="5.52712">
        <ele>1579.4000244141</ele>
        <time>2013-09-21T08:46:41.000Z</time>
      </trkpt>
      <trkpt lat="44.94671" lon="5.52714">
        <ele>1578.4000244141</ele>
        <time>2013-09-21T08:46:45.000Z</time>
      </trkpt>
      <trkpt lat="44.94686" lon="5.52708">
        <ele>1577.8000488281</ele>
        <time>2013-09-21T08:46:48.000Z</time>
      </trkpt>
      <trkpt lat="44.94697" lon="5.52706">
        <ele>1576.4000244141</ele>
        <time>2013-09-21T08:46:51.000Z</time>
      </trkpt>
      <trkpt lat="44.94708" lon="5.52707">
        <ele>1574.1999511719</ele>
        <time>2013-09-21T08:46:54.000Z</time>
      </trkpt>
      <trkpt lat="44.94725" lon="5.52709">
        <ele>1570.5999755859</ele>
        <time>2013-09-21T08:46:59.000Z</time>
      </trkpt>
      <trkpt lat="44.94728" lon="5.52709">
        <ele>1570.1999511719</ele>
        <time>2013-09-21T08:47:00.000Z</time>
      </trkpt>
      <trkpt lat="44.9474" lon="5.52711">
        <ele>1567.4000244141</ele>
        <time>2013-09-21T08:47:05.000Z</time>
      </trkpt>
      <trkpt lat="44.94751" lon="5.52705">
        <ele>1566.8000488281</ele>
        <time>2013-09-21T08:47:09.000Z</time>
      </trkpt>
      <trkpt lat="44.94764" lon="5.52694">
        <ele>1564.1999511719</ele>
        <time>2013-09-21T08:47:14.000Z</time>
      </trkpt>
      <trkpt lat="44.94773" lon="5.52685">
        <ele>1563</ele>
        <time>2013-09-21T08:47:17.000Z</time>
      </trkpt>
      <trkpt lat="44.94779" lon="5.52676">
        <ele>1562.5999755859</ele>
        <time>2013-09-21T08:47:21.000Z</time>
      </trkpt>
      <trkpt lat="44.94785" lon="5.52669">
        <ele>1562</ele>
        <time>2013-09-21T08:47:23.000Z</time>
      </trkpt>
      <trkpt lat="44.94784" lon="5.52684">
        <ele>1557.8000488281</ele>
        <time>2013-09-21T08:47:27.000Z</time>
      </trkpt>
      <trkpt lat="44.94784" lon="5.52697">
        <ele>1554.1999511719</ele>
        <time>2013-09-21T08:47:30.000Z</time>
      </trkpt>
      <trkpt lat="44.94784" lon="5.52698">
        <ele>1553.5999755859</ele>
        <time>2013-09-21T08:47:33.000Z</time>
      </trkpt>
      <trkpt lat="44.94792" lon="5.52687">
        <ele>1553.4000244141</ele>
        <time>2013-09-21T08:47:37.000Z</time>
      </trkpt>
      <trkpt lat="44.94803" lon="5.52679">
        <ele>1550.8000488281</ele>
        <time>2013-09-21T08:47:41.000Z</time>
      </trkpt>
      <trkpt lat="44.94801" lon="5.52688">
        <ele>1548.8000488281</ele>
        <time>2013-09-21T08:47:45.000Z</time>
      </trkpt>
      <trkpt lat="44.94794" lon="5.52711">
        <ele>1544.5999755859</ele>
        <time>2013-09-21T08:47:50.000Z</time>
      </trkpt>
      <trkpt lat="44.94794" lon="5.52722">
        <ele>1541</ele>
        <time>2013-09-21T08:47:54.000Z</time>
      </trkpt>
      <trkpt lat="44.94796" lon="5.5272">
        <ele>1540.5999755859</ele>
        <time>2013-09-21T08:47:55.000Z</time>
      </trkpt>
      <trkpt lat="44.94808" lon="5.52706">
        <ele>1539.5999755859</ele>
        <time>2013-09-21T08:48:00.000Z</time>
      </trkpt>
      <trkpt lat="44.94816" lon="5.52699">
        <ele>1538.1999511719</ele>
        <time>2013-09-21T08:48:03.000Z</time>
      </trkpt>
      <trkpt lat="44.94817" lon="5.52703">
        <ele>1536.5999755859</ele>
        <time>2013-09-21T08:48:06.000Z</time>
      </trkpt>
      <trkpt lat="44.94811" lon="5.52715">
        <ele>1535.1999511719</ele>
        <time>2013-09-21T08:48:09.000Z</time>
      </trkpt>
      <trkpt lat="44.94805" lon="5.52739">
        <ele>1530.1999511719</ele>
        <time>2013-09-21T08:48:15.000Z</time>
      </trkpt>
      <trkpt lat="44.94799" lon="5.52756">
        <ele>1527.4000244141</ele>
        <time>2013-09-21T08:48:19.000Z</time>
      </trkpt>
      <trkpt lat="44.94798" lon="5.5276">
        <ele>1526.1999511719</ele>
        <time>2013-09-21T08:48:20.000Z</time>
      </trkpt>
      <trkpt lat="44.94809" lon="5.52749">
        <ele>1525.1999511719</ele>
        <time>2013-09-21T08:48:23.000Z</time>
      </trkpt>
      <trkpt lat="44.94819" lon="5.52739">
        <ele>1523.5999755859</ele>
        <time>2013-09-21T08:48:27.000Z</time>
      </trkpt>
      <trkpt lat="44.94832" lon="5.52732">
        <ele>1519.4000244141</ele>
        <time>2013-09-21T08:48:33.000Z</time>
      </trkpt>
      <trkpt lat="44.94836" lon="5.52732">
        <ele>1518.5999755859</ele>
        <time>2013-09-21T08:48:35.000Z</time>
      </trkpt>
      <trkpt lat="44.94828" lon="5.52745">
        <ele>1517</ele>
        <time>2013-09-21T08:48:39.000Z</time>
      </trkpt>
      <trkpt lat="44.94822" lon="5.52757">
        <ele>1515.4000244141</ele>
        <time>2013-09-21T08:48:42.000Z</time>
      </trkpt>
      <trkpt lat="44.94815" lon="5.52786">
        <ele>1507.8000488281</ele>
        <time>2013-09-21T08:48:49.000Z</time>
      </trkpt>
      <trkpt lat="44.94813" lon="5.52789">
        <ele>1507.8000488281</ele>
        <time>2013-09-21T08:48:52.000Z</time>
      </trkpt>
      <trkpt lat="44.94826" lon="5.5278">
        <ele>1505.5999755859</ele>
        <time>2013-09-21T08:48:57.000Z</time>
      </trkpt>
      <trkpt lat="44.94837" lon="5.52771">
        <ele>1504.4000244141</ele>
        <time>2013-09-21T08:49:01.000Z</time>
      </trkpt>
      <trkpt lat="44.94845" lon="5.52766">
        <ele>1505.1999511719</ele>
        <time>2013-09-21T08:49:04.000Z</time>
      </trkpt>
      <trkpt lat="44.94845" lon="5.52773">
        <ele>1502.5999755859</ele>
        <time>2013-09-21T08:49:07.000Z</time>
      </trkpt>
      <trkpt lat="44.94839" lon="5.52792">
        <ele>1496.4000244141</ele>
        <time>2013-09-21T08:49:12.000Z</time>
      </trkpt>
      <trkpt lat="44.94832" lon="5.52807">
        <ele>1492.4000244141</ele>
        <time>2013-09-21T08:49:16.000Z</time>
      </trkpt>
      <trkpt lat="44.94827" lon="5.52815">
        <ele>1491.5999755859</ele>
        <time>2013-09-21T08:49:19.000Z</time>
      </trkpt>
      <trkpt lat="44.94827" lon="5.52817">
        <ele>1491</ele>
        <time>2013-09-21T08:49:21.000Z</time>
      </trkpt>
      <trkpt lat="44.9484" lon="5.52812">
        <ele>1489</ele>
        <time>2013-09-21T08:49:26.000Z</time>
      </trkpt>
      <trkpt lat="44.94852" lon="5.52804">
        <ele>1490</ele>
        <time>2013-09-21T08:49:30.000Z</time>
      </trkpt>
      <trkpt lat="44.94857" lon="5.52801">
        <ele>1490.4000244141</ele>
        <time>2013-09-21T08:49:32.000Z</time>
      </trkpt>
      <trkpt lat="44.94858" lon="5.52811">
        <ele>1486.8000488281</ele>
        <time>2013-09-21T08:49:36.000Z</time>
      </trkpt>
      <trkpt lat="44.94857" lon="5.52814">
        <ele>1485.5999755859</ele>
        <time>2013-09-21T08:49:37.000Z</time>
      </trkpt>
      <trkpt lat="44.94848" lon="5.52833">
        <ele>1479.8000488281</ele>
        <time>2013-09-21T08:49:42.000Z</time>
      </trkpt>
      <trkpt lat="44.94844" lon="5.52838">
        <ele>1478.4000244141</ele>
        <time>2013-09-21T08:49:44.000Z</time>
      </trkpt>
      <trkpt lat="44.94853" lon="5.52836">
        <ele>1478.1999511719</ele>
        <time>2013-09-21T08:49:48.000Z</time>
      </trkpt>
      <trkpt lat="44.94867" lon="5.52826">
        <ele>1479.8000488281</ele>
        <time>2013-09-21T08:49:53.000Z</time>
      </trkpt>
      <trkpt lat="44.94864" lon="5.52838">
        <ele>1475.5999755859</ele>
        <time>2013-09-21T08:49:57.000Z</time>
      </trkpt>
      <trkpt lat="44.94853" lon="5.52855">
        <ele>1470.5999755859</ele>
        <time>2013-09-21T08:50:02.000Z</time>
      </trkpt>
      <trkpt lat="44.94854" lon="5.52856">
        <ele>1470.1999511719</ele>
        <time>2013-09-21T08:50:03.000Z</time>
      </trkpt>
      <trkpt lat="44.94864" lon="5.52845">
        <ele>1472.5999755859</ele>
        <time>2013-09-21T08:50:08.000Z</time>
      </trkpt>
      <trkpt lat="44.94861" lon="5.52855">
        <ele>1469.1999511719</ele>
        <time>2013-09-21T08:50:13.000Z</time>
      </trkpt>
      <trkpt lat="44.94856" lon="5.52863">
        <ele>1466.8000488281</ele>
        <time>2013-09-21T08:50:15.000Z</time>
      </trkpt>
      <trkpt lat="44.94838" lon="5.52881">
        <ele>1462.8000488281</ele>
        <time>2013-09-21T08:50:22.000Z</time>
      </trkpt>
      <trkpt lat="44.9483" lon="5.52889">
        <ele>1461.8000488281</ele>
        <time>2013-09-21T08:50:27.000Z</time>
      </trkpt>
      <trkpt lat="44.94837" lon="5.5289">
        <ele>1459.4000244141</ele>
        <time>2013-09-21T08:50:32.000Z</time>
      </trkpt>
      <trkpt lat="44.94848" lon="5.5289">
        <ele>1457.8000488281</ele>
        <time>2013-09-21T08:50:36.000Z</time>
      </trkpt>
      <trkpt lat="44.94848" lon="5.52894">
        <ele>1456.1999511719</ele>
        <time>2013-09-21T08:50:38.000Z</time>
      </trkpt>
      <trkpt lat="44.94829" lon="5.52905">
        <ele>1455.4000244141</ele>
        <time>2013-09-21T08:50:43.000Z</time>
      </trkpt>
      <trkpt lat="44.94821" lon="5.52913">
        <ele>1454.4000244141</ele>
        <time>2013-09-21T08:50:47.000Z</time>
      </trkpt>
      <trkpt lat="44.94824" lon="5.5291">
        <ele>1455</ele>
        <time>2013-09-21T08:50:49.000Z</time>
      </trkpt>
      <trkpt lat="44.94839" lon="5.52915">
        <ele>1449.5999755859</ele>
        <time>2013-09-21T08:50:53.000Z</time>
      </trkpt>
      <trkpt lat="44.94863" lon="5.52922">
        <ele>1442.5999755859</ele>
        <time>2013-09-21T08:51:00.000Z</time>
      </trkpt>
      <trkpt lat="44.94874" lon="5.52929">
        <ele>1438.5999755859</ele>
        <time>2013-09-21T08:51:03.000Z</time>
      </trkpt>
      <trkpt lat="44.94874" lon="5.52937">
        <ele>1435.8000488281</ele>
        <time>2013-09-21T08:51:07.000Z</time>
      </trkpt>
      <trkpt lat="44.94857" lon="5.52942">
        <ele>1437</ele>
        <time>2013-09-21T08:51:12.000Z</time>
      </trkpt>
      <trkpt lat="44.9485" lon="5.52945">
        <ele>1437</ele>
        <time>2013-09-21T08:51:16.000Z</time>
      </trkpt>
      <trkpt lat="44.9486" lon="5.52957">
        <ele>1431.1999511719</ele>
        <time>2013-09-21T08:51:20.000Z</time>
      </trkpt>
      <trkpt lat="44.94868" lon="5.52965">
        <ele>1427.4000244141</ele>
        <time>2013-09-21T08:51:22.000Z</time>
      </trkpt>
      <trkpt lat="44.94872" lon="5.52971">
        <ele>1424.8000488281</ele>
        <time>2013-09-21T08:51:24.000Z</time>
      </trkpt>
      <trkpt lat="44.94871" lon="5.52981">
        <ele>1421.8000488281</ele>
        <time>2013-09-21T08:51:28.000Z</time>
      </trkpt>
      <trkpt lat="44.94856" lon="5.52975">
        <ele>1425.8000488281</ele>
        <time>2013-09-21T08:51:33.000Z</time>
      </trkpt>
      <trkpt lat="44.94856" lon="5.52981">
        <ele>1423.5999755859</ele>
        <time>2013-09-21T08:51:36.000Z</time>
      </trkpt>
      <trkpt lat="44.94865" lon="5.52988">
        <ele>1420.1999511719</ele>
        <time>2013-09-21T08:51:39.000Z</time>
      </trkpt>
      <trkpt lat="44.94873" lon="5.52992">
        <ele>1417.5999755859</ele>
        <time>2013-09-21T08:51:41.000Z</time>
      </trkpt>
      <trkpt lat="44.94882" lon="5.52993">
        <ele>1416.1999511719</ele>
        <time>2013-09-21T08:51:45.000Z</time>
      </trkpt>
      <trkpt lat="44.94874" lon="5.53001">
        <ele>1414.4000244141</ele>
        <time>2013-09-21T08:51:49.000Z</time>
      </trkpt>
      <trkpt lat="44.94871" lon="5.53002">
        <ele>1414.4000244141</ele>
        <time>2013-09-21T08:51:50.000Z</time>
      </trkpt>
      <trkpt lat="44.94859" lon="5.53005">
        <ele>1414.8000488281</ele>
        <time>2013-09-21T08:51:54.000Z</time>
      </trkpt>
      <trkpt lat="44.94839" lon="5.53008">
        <ele>1415.8000488281</ele>
        <time>2013-09-21T08:52:00.000Z</time>
      </trkpt>
      <trkpt lat="44.94836" lon="5.53011">
        <ele>1415.1999511719</ele>
        <time>2013-09-21T08:52:01.000Z</time>
      </trkpt>
      <trkpt lat="44.9483" lon="5.53015">
        <ele>1414.1999511719</ele>
        <time>2013-09-21T08:52:04.000Z</time>
      </trkpt>
      <trkpt lat="44.94832" lon="5.53013">
        <ele>1414.8000488281</ele>
        <time>2013-09-21T08:52:06.000Z</time>
      </trkpt>
      <trkpt lat="44.94848" lon="5.53014">
        <ele>1412.4000244141</ele>
        <time>2013-09-21T08:52:11.000Z</time>
      </trkpt>
      <trkpt lat="44.94863" lon="5.53028">
        <ele>1404.1999511719</ele>
        <time>2013-09-21T08:52:16.000Z</time>
      </trkpt>
      <trkpt lat="44.94877" lon="5.53038">
        <ele>1397.8000488281</ele>
        <time>2013-09-21T08:52:21.000Z</time>
      </trkpt>
      <trkpt lat="44.94891" lon="5.53036">
        <ele>1396.4000244141</ele>
        <time>2013-09-21T08:52:25.000Z</time>
      </trkpt>
      <trkpt lat="44.94908" lon="5.53035">
        <ele>1394.1999511719</ele>
        <time>2013-09-21T08:52:30.000Z</time>
      </trkpt>
      <trkpt lat="44.94921" lon="5.53041">
        <ele>1390.8000488281</ele>
        <time>2013-09-21T08:52:34.000Z</time>
      </trkpt>
      <trkpt lat="44.94926" lon="5.53045">
        <ele>1389.4000244141</ele>
        <time>2013-09-21T08:52:36.000Z</time>
      </trkpt>
      <trkpt lat="44.94937" lon="5.53048">
        <ele>1389.5999755859</ele>
        <time>2013-09-21T08:52:40.000Z</time>
      </trkpt>
      <trkpt lat="44.94939" lon="5.5305">
        <ele>1388.5999755859</ele>
        <time>2013-09-21T08:52:41.000Z</time>
      </trkpt>
      <trkpt lat="44.94942" lon="5.53069">
        <ele>1379.8000488281</ele>
        <time>2013-09-21T08:52:48.000Z</time>
      </trkpt>
      <trkpt lat="44.94953" lon="5.53085">
        <ele>1374</ele>
        <time>2013-09-21T08:52:53.000Z</time>
      </trkpt>
      <trkpt lat="44.94959" lon="5.53096">
        <ele>1371.1999511719</ele>
        <time>2013-09-21T08:52:56.000Z</time>
      </trkpt>
      <trkpt lat="44.94964" lon="5.53117">
        <ele>1364.8000488281</ele>
        <time>2013-09-21T08:53:01.000Z</time>
      </trkpt>
      <trkpt lat="44.94967" lon="5.53138">
        <ele>1357.5999755859</ele>
        <time>2013-09-21T08:53:05.000Z</time>
      </trkpt>
      <trkpt lat="44.94979" lon="5.53152">
        <ele>1353.4000244141</ele>
        <time>2013-09-21T08:53:09.000Z</time>
      </trkpt>
      <trkpt lat="44.94985" lon="5.53172">
        <ele>1347.4000244141</ele>
        <time>2013-09-21T08:53:13.000Z</time>
      </trkpt>
      <trkpt lat="44.94994" lon="5.53192">
        <ele>1344.1999511719</ele>
        <time>2013-09-21T08:53:18.000Z</time>
      </trkpt>
      <trkpt lat="44.94996" lon="5.53196">
        <ele>1343.4000244141</ele>
        <time>2013-09-21T08:53:19.000Z</time>
      </trkpt>
      <trkpt lat="44.95" lon="5.53219">
        <ele>1339.4000244141</ele>
        <time>2013-09-21T08:53:24.000Z</time>
      </trkpt>
      <trkpt lat="44.95002" lon="5.53232">
        <ele>1338</ele>
        <time>2013-09-21T08:53:27.000Z</time>
      </trkpt>
      <trkpt lat="44.9501" lon="5.53257">
        <ele>1335.4000244141</ele>
        <time>2013-09-21T08:53:32.000Z</time>
      </trkpt>
      <trkpt lat="44.95011" lon="5.53263">
        <ele>1334.1999511719</ele>
        <time>2013-09-21T08:53:33.000Z</time>
      </trkpt>
      <trkpt lat="44.95011" lon="5.53284">
        <ele>1329.5999755859</ele>
        <time>2013-09-21T08:53:36.000Z</time>
      </trkpt>
      <trkpt lat="44.95015" lon="5.53316">
        <ele>1323.1999511719</ele>
        <time>2013-09-21T08:53:42.000Z</time>
      </trkpt>
      <trkpt lat="44.95016" lon="5.53351">
        <ele>1316.1999511719</ele>
        <time>2013-09-21T08:53:48.000Z</time>
      </trkpt>
      <trkpt lat="44.95016" lon="5.53357">
        <ele>1315.1999511719</ele>
        <time>2013-09-21T08:53:49.000Z</time>
      </trkpt>
      <trkpt lat="44.95018" lon="5.53384">
        <ele>1311</ele>
        <time>2013-09-21T08:53:54.000Z</time>
      </trkpt>
      <trkpt lat="44.95016" lon="5.53409">
        <ele>1306</ele>
        <time>2013-09-21T08:53:59.000Z</time>
      </trkpt>
      <trkpt lat="44.95011" lon="5.53418">
        <ele>1303</ele>
        <time>2013-09-21T08:54:02.000Z</time>
      </trkpt>
      <trkpt lat="44.95001" lon="5.53435">
        <ele>1297.4000244141</ele>
        <time>2013-09-21T08:54:07.000Z</time>
      </trkpt>
      <trkpt lat="44.94997" lon="5.53453">
        <ele>1293.1999511719</ele>
        <time>2013-09-21T08:54:11.000Z</time>
      </trkpt>
      <trkpt lat="44.94996" lon="5.53472">
        <ele>1289</ele>
        <time>2013-09-21T08:54:15.000Z</time>
      </trkpt>
      <trkpt lat="44.94995" lon="5.53483">
        <ele>1286.5999755859</ele>
        <time>2013-09-21T08:54:18.000Z</time>
      </trkpt>
      <trkpt lat="44.94992" lon="5.53501">
        <ele>1282.4000244141</ele>
        <time>2013-09-21T08:54:22.000Z</time>
      </trkpt>
      <trkpt lat="44.94989" lon="5.53525">
        <ele>1278.1999511719</ele>
        <time>2013-09-21T08:54:27.000Z</time>
      </trkpt>
      <trkpt lat="44.94991" lon="5.53553">
        <ele>1274.1999511719</ele>
        <time>2013-09-21T08:54:32.000Z</time>
      </trkpt>
      <trkpt lat="44.94993" lon="5.53573">
        <ele>1271.4000244141</ele>
        <time>2013-09-21T08:54:36.000Z</time>
      </trkpt>
      <trkpt lat="44.94998" lon="5.53594">
        <ele>1269.8000488281</ele>
        <time>2013-09-21T08:54:41.000Z</time>
      </trkpt>
      <trkpt lat="44.95" lon="5.53617">
        <ele>1268.1999511719</ele>
        <time>2013-09-21T08:54:46.000Z</time>
      </trkpt>
      <trkpt lat="44.95002" lon="5.53632">
        <ele>1266.8000488281</ele>
        <time>2013-09-21T08:54:50.000Z</time>
      </trkpt>
      <trkpt lat="44.95004" lon="5.53637">
        <ele>1266.4000244141</ele>
        <time>2013-09-21T08:54:51.000Z</time>
      </trkpt>
      <trkpt lat="44.95012" lon="5.53661">
        <ele>1264</ele>
        <time>2013-09-21T08:54:56.000Z</time>
      </trkpt>
      <trkpt lat="44.95025" lon="5.53682">
        <ele>1259.5999755859</ele>
        <time>2013-09-21T08:55:01.000Z</time>
      </trkpt>
      <trkpt lat="44.95037" lon="5.53693">
        <ele>1256</ele>
        <time>2013-09-21T08:55:05.000Z</time>
      </trkpt>
      <trkpt lat="44.95058" lon="5.53702">
        <ele>1251.4000244141</ele>
        <time>2013-09-21T08:55:11.000Z</time>
      </trkpt>
      <trkpt lat="44.95074" lon="5.53706">
        <ele>1248.4000244141</ele>
        <time>2013-09-21T08:55:15.000Z</time>
      </trkpt>
      <trkpt lat="44.95094" lon="5.53706">
        <ele>1244</ele>
        <time>2013-09-21T08:55:20.000Z</time>
      </trkpt>
      <trkpt lat="44.9511" lon="5.53705">
        <ele>1239.8000488281</ele>
        <time>2013-09-21T08:55:24.000Z</time>
      </trkpt>
      <trkpt lat="44.95124" lon="5.53699">
        <ele>1237.1999511719</ele>
        <time>2013-09-21T08:55:29.000Z</time>
      </trkpt>
      <trkpt lat="44.95137" lon="5.53693">
        <ele>1234.8000488281</ele>
        <time>2013-09-21T08:55:33.000Z</time>
      </trkpt>
      <trkpt lat="44.95139" lon="5.53691">
        <ele>1234.4000244141</ele>
        <time>2013-09-21T08:55:34.000Z</time>
      </trkpt>
      <trkpt lat="44.95154" lon="5.53685">
        <ele>1231.1999511719</ele>
        <time>2013-09-21T08:55:39.000Z</time>
      </trkpt>
      <trkpt lat="44.95172" lon="5.53677">
        <ele>1228.4000244141</ele>
        <time>2013-09-21T08:55:44.000Z</time>
      </trkpt>
      <trkpt lat="44.95187" lon="5.53677">
        <ele>1228</ele>
        <time>2013-09-21T08:55:49.000Z</time>
      </trkpt>
      <trkpt lat="44.95203" lon="5.5368">
        <ele>1226.5999755859</ele>
        <time>2013-09-21T08:55:52.000Z</time>
      </trkpt>
      <trkpt lat="44.95211" lon="5.53701">
        <ele>1221.4000244141</ele>
        <time>2013-09-21T08:55:56.000Z</time>
      </trkpt>
      <trkpt lat="44.95217" lon="5.53715">
        <ele>1218</ele>
        <time>2013-09-21T08:55:59.000Z</time>
      </trkpt>
      <trkpt lat="44.95227" lon="5.53737">
        <ele>1212.4000244141</ele>
        <time>2013-09-21T08:56:03.000Z</time>
      </trkpt>
      <trkpt lat="44.95245" lon="5.53759">
        <ele>1206.4000244141</ele>
        <time>2013-09-21T08:56:08.000Z</time>
      </trkpt>
      <trkpt lat="44.95259" lon="5.53778">
        <ele>1202</ele>
        <time>2013-09-21T08:56:14.000Z</time>
      </trkpt>
      <trkpt lat="44.9526" lon="5.53805">
        <ele>1196.1999511719</ele>
        <time>2013-09-21T08:56:19.000Z</time>
      </trkpt>
      <trkpt lat="44.95256" lon="5.53825">
        <ele>1191.8000488281</ele>
        <time>2013-09-21T08:56:23.000Z</time>
      </trkpt>
      <trkpt lat="44.95257" lon="5.5384">
        <ele>1189</ele>
        <time>2013-09-21T08:56:26.000Z</time>
      </trkpt>
      <trkpt lat="44.95261" lon="5.53853">
        <ele>1186.5999755859</ele>
        <time>2013-09-21T08:56:29.000Z</time>
      </trkpt>
      <trkpt lat="44.95274" lon="5.53874">
        <ele>1182.8000488281</ele>
        <time>2013-09-21T08:56:34.000Z</time>
      </trkpt>
      <trkpt lat="44.95282" lon="5.53899">
        <ele>1177.8000488281</ele>
        <time>2013-09-21T08:56:40.000Z</time>
      </trkpt>
      <trkpt lat="44.95291" lon="5.53917">
        <ele>1174</ele>
        <time>2013-09-21T08:56:45.000Z</time>
      </trkpt>
      <trkpt lat="44.95299" lon="5.53932">
        <ele>1170.8000488281</ele>
        <time>2013-09-21T08:56:48.000Z</time>
      </trkpt>
      <trkpt lat="44.95316" lon="5.53953">
        <ele>1165.8000488281</ele>
        <time>2013-09-21T08:56:54.000Z</time>
      </trkpt>
      <trkpt lat="44.95322" lon="5.53973">
        <ele>1161.8000488281</ele>
        <time>2013-09-21T08:56:58.000Z</time>
      </trkpt>
      <trkpt lat="44.95331" lon="5.53989">
        <ele>1158.1999511719</ele>
        <time>2013-09-21T08:57:02.000Z</time>
      </trkpt>
      <trkpt lat="44.95341" lon="5.54006">
        <ele>1154.1999511719</ele>
        <time>2013-09-21T08:57:06.000Z</time>
      </trkpt>
      <trkpt lat="44.95358" lon="5.54027">
        <ele>1148.8000488281</ele>
        <time>2013-09-21T08:57:11.000Z</time>
      </trkpt>
      <trkpt lat="44.95363" lon="5.54035">
        <ele>1146.5999755859</ele>
        <time>2013-09-21T08:57:13.000Z</time>
      </trkpt>
      <trkpt lat="44.95369" lon="5.54056">
        <ele>1142</ele>
        <time>2013-09-21T08:57:18.000Z</time>
      </trkpt>
      <trkpt lat="44.95372" lon="5.54082">
        <ele>1136.1999511719</ele>
        <time>2013-09-21T08:57:23.000Z</time>
      </trkpt>
      <trkpt lat="44.95375" lon="5.54106">
        <ele>1131</ele>
        <time>2013-09-21T08:57:28.000Z</time>
      </trkpt>
      <trkpt lat="44.95372" lon="5.54125">
        <ele>1127</ele>
        <time>2013-09-21T08:57:32.000Z</time>
      </trkpt>
      <trkpt lat="44.95369" lon="5.54148">
        <ele>1122</ele>
        <time>2013-09-21T08:57:37.000Z</time>
      </trkpt>
      <trkpt lat="44.95368" lon="5.54179">
        <ele>1115.4000244141</ele>
        <time>2013-09-21T08:57:43.000Z</time>
      </trkpt>
      <trkpt lat="44.95369" lon="5.54193">
        <ele>1111.8000488281</ele>
        <time>2013-09-21T08:57:46.000Z</time>
      </trkpt>
      <trkpt lat="44.9536" lon="5.54211">
        <ele>1107.8000488281</ele>
        <time>2013-09-21T08:57:51.000Z</time>
      </trkpt>
      <trkpt lat="44.95355" lon="5.54242">
        <ele>1100.4000244141</ele>
        <time>2013-09-21T08:57:57.000Z</time>
      </trkpt>
      <trkpt lat="44.95354" lon="5.54266">
        <ele>1096</ele>
        <time>2013-09-21T08:58:01.000Z</time>
      </trkpt>
      <trkpt lat="44.95353" lon="5.54285">
        <ele>1093</ele>
        <time>2013-09-21T08:58:05.000Z</time>
      </trkpt>
      <trkpt lat="44.95353" lon="5.54309">
        <ele>1088.8000488281</ele>
        <time>2013-09-21T08:58:10.000Z</time>
      </trkpt>
      <trkpt lat="44.95354" lon="5.54335">
        <ele>1084.4000244141</ele>
        <time>2013-09-21T08:58:15.000Z</time>
      </trkpt>
      <trkpt lat="44.95354" lon="5.5436">
        <ele>1080.1999511719</ele>
        <time>2013-09-21T08:58:20.000Z</time>
      </trkpt>
      <trkpt lat="44.95347" lon="5.54383">
        <ele>1076.4000244141</ele>
        <time>2013-09-21T08:58:25.000Z</time>
      </trkpt>
      <trkpt lat="44.95347" lon="5.54408">
        <ele>1072</ele>
        <time>2013-09-21T08:58:30.000Z</time>
      </trkpt>
      <trkpt lat="44.95347" lon="5.54427">
        <ele>1068.5999755859</ele>
        <time>2013-09-21T08:58:34.000Z</time>
      </trkpt>
      <trkpt lat="44.95351" lon="5.54456">
        <ele>1063</ele>
        <time>2013-09-21T08:58:39.000Z</time>
      </trkpt>
      <trkpt lat="44.95354" lon="5.54483">
        <ele>1057.8000488281</ele>
        <time>2013-09-21T08:58:44.000Z</time>
      </trkpt>
      <trkpt lat="44.95355" lon="5.54516">
        <ele>1052.4000244141</ele>
        <time>2013-09-21T08:58:50.000Z</time>
      </trkpt>
      <trkpt lat="44.9536" lon="5.54528">
        <ele>1050.5999755859</ele>
        <time>2013-09-21T08:58:53.000Z</time>
      </trkpt>
      <trkpt lat="44.95373" lon="5.54538">
        <ele>1049.5999755859</ele>
        <time>2013-09-21T08:58:57.000Z</time>
      </trkpt>
      <trkpt lat="44.95389" lon="5.54554">
        <ele>1047.5999755859</ele>
        <time>2013-09-21T08:59:02.000Z</time>
      </trkpt>
      <trkpt lat="44.95402" lon="5.5457">
        <ele>1045.5999755859</ele>
        <time>2013-09-21T08:59:07.000Z</time>
      </trkpt>
      <trkpt lat="44.95415" lon="5.54584">
        <ele>1043.5999755859</ele>
        <time>2013-09-21T08:59:11.000Z</time>
      </trkpt>
      <trkpt lat="44.95426" lon="5.54594">
        <ele>1041.8000488281</ele>
        <time>2013-09-21T08:59:15.000Z</time>
      </trkpt>
      <trkpt lat="44.95426" lon="5.54597">
        <ele>1041.1999511719</ele>
        <time>2013-09-21T08:59:16.000Z</time>
      </trkpt>
      <trkpt lat="44.95417" lon="5.54616">
        <ele>1037.5999755859</ele>
        <time>2013-09-21T08:59:21.000Z</time>
      </trkpt>
      <trkpt lat="44.95409" lon="5.54632">
        <ele>1034.4000244141</ele>
        <time>2013-09-21T08:59:25.000Z</time>
      </trkpt>
      <trkpt lat="44.95401" lon="5.54652">
        <ele>1030.5999755859</ele>
        <time>2013-09-21T08:59:29.000Z</time>
      </trkpt>
      <trkpt lat="44.9539" lon="5.54676">
        <ele>1025.5999755859</ele>
        <time>2013-09-21T08:59:34.000Z</time>
      </trkpt>
      <trkpt lat="44.95391" lon="5.5469">
        <ele>1022.5999755859</ele>
        <time>2013-09-21T08:59:37.000Z</time>
      </trkpt>
      <trkpt lat="44.95389" lon="5.54709">
        <ele>1019</ele>
        <time>2013-09-21T08:59:41.000Z</time>
      </trkpt>
      <trkpt lat="44.95385" lon="5.54738">
        <ele>1013.200012207</ele>
        <time>2013-09-21T08:59:46.000Z</time>
      </trkpt>
      <trkpt lat="44.95384" lon="5.54767">
        <ele>1007.799987793</ele>
        <time>2013-09-21T08:59:52.000Z</time>
      </trkpt>
      <trkpt lat="44.9538" lon="5.54787">
        <ele>1004.799987793</ele>
        <time>2013-09-21T08:59:56.000Z</time>
      </trkpt>
      <trkpt lat="44.95377" lon="5.54806">
        <ele>1002</ele>
        <time>2013-09-21T09:00:00.000Z</time>
      </trkpt>
      <trkpt lat="44.95377" lon="5.54825">
        <ele>999</ele>
        <time>2013-09-21T09:00:04.000Z</time>
      </trkpt>
      <trkpt lat="44.95373" lon="5.54848">
        <ele>996</ele>
        <time>2013-09-21T09:00:09.000Z</time>
      </trkpt>
      <trkpt lat="44.95368" lon="5.54868">
        <ele>994</ele>
        <time>2013-09-21T09:00:13.000Z</time>
      </trkpt>
      <trkpt lat="44.95358" lon="5.5489">
        <ele>992.79998779297</ele>
        <time>2013-09-21T09:00:18.000Z</time>
      </trkpt>
      <trkpt lat="44.95347" lon="5.54903">
        <ele>993</ele>
        <time>2013-09-21T09:00:21.000Z</time>
      </trkpt>
      <trkpt lat="44.95331" lon="5.54919">
        <ele>993.20001220703</ele>
        <time>2013-09-21T09:00:26.000Z</time>
      </trkpt>
      <trkpt lat="44.95324" lon="5.54925">
        <ele>991.59997558594</ele>
        <time>2013-09-21T09:00:28.000Z</time>
      </trkpt>
      <trkpt lat="44.95311" lon="5.54943">
        <ele>987.59997558594</ele>
        <time>2013-09-21T09:00:33.000Z</time>
      </trkpt>
      <trkpt lat="44.9531" lon="5.54953">
        <ele>986</ele>
        <time>2013-09-21T09:00:36.000Z</time>
      </trkpt>
      <trkpt lat="44.95308" lon="5.54979">
        <ele>981.40002441406</ele>
        <time>2013-09-21T09:00:42.000Z</time>
      </trkpt>
      <trkpt lat="44.95301" lon="5.55002">
        <ele>977.79998779297</ele>
        <time>2013-09-21T09:00:47.000Z</time>
      </trkpt>
      <trkpt lat="44.95294" lon="5.55028">
        <ele>973.40002441406</ele>
        <time>2013-09-21T09:00:52.000Z</time>
      </trkpt>
      <trkpt lat="44.95284" lon="5.55052">
        <ele>970.40002441406</ele>
        <time>2013-09-21T09:00:57.000Z</time>
      </trkpt>
      <trkpt lat="44.9527" lon="5.55071">
        <ele>969</ele>
        <time>2013-09-21T09:01:02.000Z</time>
      </trkpt>
      <trkpt lat="44.95259" lon="5.55087">
        <ele>967.79998779297</ele>
        <time>2013-09-21T09:01:06.000Z</time>
      </trkpt>
      <trkpt lat="44.95254" lon="5.55099">
        <ele>966</ele>
        <time>2013-09-21T09:01:10.000Z</time>
      </trkpt>
      <trkpt lat="44.95244" lon="5.5512">
        <ele>961</ele>
        <time>2013-09-21T09:01:15.000Z</time>
      </trkpt>
      <trkpt lat="44.95237" lon="5.55147">
        <ele>954.40002441406</ele>
        <time>2013-09-21T09:01:21.000Z</time>
      </trkpt>
      <trkpt lat="44.95234" lon="5.55165">
        <ele>950.40002441406</ele>
        <time>2013-09-21T09:01:25.000Z</time>
      </trkpt>
      <trkpt lat="44.95229" lon="5.552">
        <ele>943.40002441406</ele>
        <time>2013-09-21T09:01:32.000Z</time>
      </trkpt>
      <trkpt lat="44.95232" lon="5.55222">
        <ele>939.59997558594</ele>
        <time>2013-09-21T09:01:37.000Z</time>
      </trkpt>
      <trkpt lat="44.95238" lon="5.55228">
        <ele>939.20001220703</ele>
        <time>2013-09-21T09:01:40.000Z</time>
      </trkpt>
      <trkpt lat="44.9525" lon="5.5522">
        <ele>942.40002441406</ele>
        <time>2013-09-21T09:01:45.000Z</time>
      </trkpt>
      <trkpt lat="44.95263" lon="5.55202">
        <ele>943.59997558594</ele>
        <time>2013-09-21T09:01:50.000Z</time>
      </trkpt>
      <trkpt lat="44.95275" lon="5.55182">
        <ele>945.20001220703</ele>
        <time>2013-09-21T09:01:56.000Z</time>
      </trkpt>
      <trkpt lat="44.95283" lon="5.55167">
        <ele>947</ele>
        <time>2013-09-21T09:02:01.000Z</time>
      </trkpt>
      <trkpt lat="44.95292" lon="5.55153">
        <ele>949</ele>
        <time>2013-09-21T09:02:06.000Z</time>
      </trkpt>
      <trkpt lat="44.95293" lon="5.55145">
        <ele>950.40002441406</ele>
        <time>2013-09-21T09:02:08.000Z</time>
      </trkpt>
      <trkpt lat="44.95295" lon="5.55133">
        <ele>953</ele>
        <time>2013-09-21T09:02:12.000Z</time>
      </trkpt>
      <trkpt lat="44.95314" lon="5.55123">
        <ele>952.59997558594</ele>
        <time>2013-09-21T09:02:18.000Z</time>
      </trkpt>
      <trkpt lat="44.95327" lon="5.55114">
        <ele>952.79998779297</ele>
        <time>2013-09-21T09:02:23.000Z</time>
      </trkpt>
      <trkpt lat="44.95335" lon="5.55103">
        <ele>954.40002441406</ele>
        <time>2013-09-21T09:02:28.000Z</time>
      </trkpt>
      <trkpt lat="44.95346" lon="5.55095">
        <ele>954.79998779297</ele>
        <time>2013-09-21T09:02:31.000Z</time>
      </trkpt>
      <trkpt lat="44.95368" lon="5.55082">
        <ele>955.20001220703</ele>
        <time>2013-09-21T09:02:38.000Z</time>
      </trkpt>
      <trkpt lat="44.95381" lon="5.55066">
        <ele>956.79998779297</ele>
        <time>2013-09-21T09:02:43.000Z</time>
      </trkpt>
      <trkpt lat="44.95394" lon="5.55054">
        <ele>957.79998779297</ele>
        <time>2013-09-21T09:02:49.000Z</time>
      </trkpt>
      <trkpt lat="44.95417" lon="5.55039">
        <ele>958</ele>
        <time>2013-09-21T09:02:54.000Z</time>
      </trkpt>
      <trkpt lat="44.95429" lon="5.55044">
        <ele>957.40002441406</ele>
        <time>2013-09-21T09:02:59.000Z</time>
      </trkpt>
      <trkpt lat="44.95428" lon="5.55063">
        <ele>953.79998779297</ele>
        <time>2013-09-21T09:03:05.000Z</time>
      </trkpt>
      <trkpt lat="44.95435" lon="5.55079">
        <ele>951.40002441406</ele>
        <time>2013-09-21T09:03:11.000Z</time>
      </trkpt>
      <trkpt lat="44.95442" lon="5.55087">
        <ele>951</ele>
        <time>2013-09-21T09:03:16.000Z</time>
      </trkpt>
      <trkpt lat="44.95453" lon="5.55094">
        <ele>951.59997558594</ele>
        <time>2013-09-21T09:03:22.000Z</time>
      </trkpt>
      <trkpt lat="44.95463" lon="5.55105">
        <ele>951.79998779297</ele>
        <time>2013-09-21T09:03:28.000Z</time>
      </trkpt>
      <trkpt lat="44.95469" lon="5.55123">
        <ele>951.40002441406</ele>
        <time>2013-09-21T09:03:34.000Z</time>
      </trkpt>
      <trkpt lat="44.95472" lon="5.5514">
        <ele>950.79998779297</ele>
        <time>2013-09-21T09:03:40.000Z</time>
      </trkpt>
      <trkpt lat="44.9548" lon="5.55157">
        <ele>951</ele>
        <time>2013-09-21T09:03:47.000Z</time>
      </trkpt>
      <trkpt lat="44.95489" lon="5.55171">
        <ele>952</ele>
        <time>2013-09-21T09:03:54.000Z</time>
      </trkpt>
      <trkpt lat="44.95497" lon="5.55183">
        <ele>953.20001220703</ele>
        <time>2013-09-21T09:04:01.000Z</time>
      </trkpt>
      <trkpt lat="44.95504" lon="5.55189">
        <ele>954.40002441406</ele>
        <time>2013-09-21T09:04:07.000Z</time>
      </trkpt>
      <trkpt lat="44.95514" lon="5.55196">
        <ele>956.40002441406</ele>
        <time>2013-09-21T09:04:15.000Z</time>
      </trkpt>
      <trkpt lat="44.95521" lon="5.55198">
        <ele>957.59997558594</ele>
        <time>2013-09-21T09:04:20.000Z</time>
      </trkpt>
      <trkpt lat="44.9553" lon="5.55194">
        <ele>959.59997558594</ele>
        <time>2013-09-21T09:04:27.000Z</time>
      </trkpt>
      <trkpt lat="44.95538" lon="5.55188">
        <ele>961.20001220703</ele>
        <time>2013-09-21T09:04:33.000Z</time>
      </trkpt>
      <trkpt lat="44.95547" lon="5.55178">
        <ele>963.40002441406</ele>
        <time>2013-09-21T09:04:41.000Z</time>
      </trkpt>
      <trkpt lat="44.95552" lon="5.5517">
        <ele>965</ele>
        <time>2013-09-21T09:04:47.000Z</time>
      </trkpt>
      <trkpt lat="44.95558" lon="5.55159">
        <ele>966.59997558594</ele>
        <time>2013-09-21T09:04:54.000Z</time>
      </trkpt>
      <trkpt lat="44.95563" lon="5.55148">
        <ele>968</ele>
        <time>2013-09-21T09:05:01.000Z</time>
      </trkpt>
      <trkpt lat="44.9557" lon="5.55135">
        <ele>970</ele>
        <time>2013-09-21T09:05:11.000Z</time>
      </trkpt>
      <trkpt lat="44.95577" lon="5.55127">
        <ele>971.59997558594</ele>
        <time>2013-09-21T09:05:18.000Z</time>
      </trkpt>
      <trkpt lat="44.95586" lon="5.55125">
        <ele>973.20001220703</ele>
        <time>2013-09-21T09:05:25.000Z</time>
      </trkpt>
      <trkpt lat="44.95593" lon="5.55127">
        <ele>974.40002441406</ele>
        <time>2013-09-21T09:05:31.000Z</time>
      </trkpt>
      <trkpt lat="44.956" lon="5.55135">
        <ele>975.20001220703</ele>
        <time>2013-09-21T09:05:36.000Z</time>
      </trkpt>
      <trkpt lat="44.95607" lon="5.55145">
        <ele>975.79998779297</ele>
        <time>2013-09-21T09:05:41.000Z</time>
      </trkpt>
      <trkpt lat="44.95619" lon="5.55153">
        <ele>977</ele>
        <time>2013-09-21T09:05:48.000Z</time>
      </trkpt>
      <trkpt lat="44.95632" lon="5.55154">
        <ele>978.79998779297</ele>
        <time>2013-09-21T09:05:55.000Z</time>
      </trkpt>
      <trkpt lat="44.95643" lon="5.55155">
        <ele>980.20001220703</ele>
        <time>2013-09-21T09:06:01.000Z</time>
      </trkpt>
      <trkpt lat="44.95654" lon="5.55156">
        <ele>981.59997558594</ele>
        <time>2013-09-21T09:06:06.000Z</time>
      </trkpt>
      <trkpt lat="44.95668" lon="5.55156">
        <ele>983.40002441406</ele>
        <time>2013-09-21T09:06:13.000Z</time>
      </trkpt>
      <trkpt lat="44.95681" lon="5.55157">
        <ele>984.79998779297</ele>
        <time>2013-09-21T09:06:19.000Z</time>
      </trkpt>
      <trkpt lat="44.95695" lon="5.55157">
        <ele>986.79998779297</ele>
        <time>2013-09-21T09:06:26.000Z</time>
      </trkpt>
      <trkpt lat="44.95707" lon="5.55158">
        <ele>988</ele>
        <time>2013-09-21T09:06:32.000Z</time>
      </trkpt>
      <trkpt lat="44.95715" lon="5.55162">
        <ele>988.79998779297</ele>
        <time>2013-09-21T09:06:37.000Z</time>
      </trkpt>
      <trkpt lat="44.95723" lon="5.55165">
        <ele>989.40002441406</ele>
        <time>2013-09-21T09:06:41.000Z</time>
      </trkpt>
      <trkpt lat="44.95736" lon="5.55172">
        <ele>990.59997558594</ele>
        <time>2013-09-21T09:06:48.000Z</time>
      </trkpt>
      <trkpt lat="44.95739" lon="5.55174">
        <ele>990.79998779297</ele>
        <time>2013-09-21T09:06:50.000Z</time>
      </trkpt>
      <trkpt lat="44.95748" lon="5.5517">
        <ele>992.20001220703</ele>
        <time>2013-09-21T09:06:56.000Z</time>
      </trkpt>
      <trkpt lat="44.95751" lon="5.55157">
        <ele>993.79998779297</ele>
        <time>2013-09-21T09:07:03.000Z</time>
      </trkpt>
      <trkpt lat="44.95755" lon="5.55147">
        <ele>994.79998779297</ele>
        <time>2013-09-21T09:07:08.000Z</time>
      </trkpt>
      <trkpt lat="44.95756" lon="5.55143">
        <ele>995.20001220703</ele>
        <time>2013-09-21T09:07:10.000Z</time>
      </trkpt>
      <trkpt lat="44.95765" lon="5.55135">
        <ele>996.40002441406</ele>
        <time>2013-09-21T09:07:17.000Z</time>
      </trkpt>
      <trkpt lat="44.95771" lon="5.55134">
        <ele>996.59997558594</ele>
        <time>2013-09-21T09:07:22.000Z</time>
      </trkpt>
      <trkpt lat="44.9578" lon="5.55137">
        <ele>996.79998779297</ele>
        <time>2013-09-21T09:07:30.000Z</time>
      </trkpt>
      <trkpt lat="44.95787" lon="5.55142">
        <ele>996.79998779297</ele>
        <time>2013-09-21T09:07:36.000Z</time>
      </trkpt>
      <trkpt lat="44.95796" lon="5.55141">
        <ele>997.40002441406</ele>
        <time>2013-09-21T09:07:40.000Z</time>
      </trkpt>
      <trkpt lat="44.95798" lon="5.5514">
        <ele>997.40002441406</ele>
        <time>2013-09-21T09:07:41.000Z</time>
      </trkpt>
      <trkpt lat="44.95816" lon="5.55132">
        <ele>999</ele>
        <time>2013-09-21T09:07:50.000Z</time>
      </trkpt>
      <trkpt lat="44.95828" lon="5.55128">
        <ele>999.79998779297</ele>
        <time>2013-09-21T09:07:57.000Z</time>
      </trkpt>
      <trkpt lat="44.95837" lon="5.55125">
        <ele>1000.799987793</ele>
        <time>2013-09-21T09:08:02.000Z</time>
      </trkpt>
      <trkpt lat="44.95851" lon="5.55121">
        <ele>1002.5999755859</ele>
        <time>2013-09-21T09:08:10.000Z</time>
      </trkpt>
      <trkpt lat="44.95863" lon="5.55118">
        <ele>1004</ele>
        <time>2013-09-21T09:08:16.000Z</time>
      </trkpt>
      <trkpt lat="44.95874" lon="5.55115">
        <ele>1005.200012207</ele>
        <time>2013-09-21T09:08:22.000Z</time>
      </trkpt>
      <trkpt lat="44.95887" lon="5.55109">
        <ele>1007.200012207</ele>
        <time>2013-09-21T09:08:29.000Z</time>
      </trkpt>
      <trkpt lat="44.95898" lon="5.55105">
        <ele>1008.5999755859</ele>
        <time>2013-09-21T09:08:35.000Z</time>
      </trkpt>
      <trkpt lat="44.95907" lon="5.55101">
        <ele>1010</ele>
        <time>2013-09-21T09:08:41.000Z</time>
      </trkpt>
      <trkpt lat="44.95917" lon="5.55096">
        <ele>1011.5999755859</ele>
        <time>2013-09-21T09:08:47.000Z</time>
      </trkpt>
      <trkpt lat="44.95928" lon="5.55091">
        <ele>1012.799987793</ele>
        <time>2013-09-21T09:08:53.000Z</time>
      </trkpt>
      <trkpt lat="44.95939" lon="5.55086">
        <ele>1014.200012207</ele>
        <time>2013-09-21T09:08:59.000Z</time>
      </trkpt>
      <trkpt lat="44.95952" lon="5.55098">
        <ele>1013.799987793</ele>
        <time>2013-09-21T09:09:04.000Z</time>
      </trkpt>
      <trkpt lat="44.95967" lon="5.55114">
        <ele>1012.799987793</ele>
        <time>2013-09-21T09:09:10.000Z</time>
      </trkpt>
      <trkpt lat="44.95985" lon="5.55129">
        <ele>1012</ele>
        <time>2013-09-21T09:09:17.000Z</time>
      </trkpt>
      <trkpt lat="44.96" lon="5.5514">
        <ele>1011.4000244141</ele>
        <time>2013-09-21T09:09:22.000Z</time>
      </trkpt>
      <trkpt lat="44.96016" lon="5.55153">
        <ele>1012.4000244141</ele>
        <time>2013-09-21T09:09:28.000Z</time>
      </trkpt>
      <trkpt lat="44.96025" lon="5.55165">
        <ele>1012.200012207</ele>
        <time>2013-09-21T09:09:32.000Z</time>
      </trkpt>
      <trkpt lat="44.96035" lon="5.55183">
        <ele>1012</ele>
        <time>2013-09-21T09:09:37.000Z</time>
      </trkpt>
      <trkpt lat="44.96048" lon="5.55203">
        <ele>1011.799987793</ele>
        <time>2013-09-21T09:09:43.000Z</time>
      </trkpt>
      <trkpt lat="44.96057" lon="5.55224">
        <ele>1010.799987793</ele>
        <time>2013-09-21T09:09:49.000Z</time>
      </trkpt>
      <trkpt lat="44.96069" lon="5.55253">
        <ele>1009.799987793</ele>
        <time>2013-09-21T09:09:57.000Z</time>
      </trkpt>
      <trkpt lat="44.96075" lon="5.55271">
        <ele>1011.799987793</ele>
        <time>2013-09-21T09:10:02.000Z</time>
      </trkpt>
      <trkpt lat="44.96079" lon="5.5529">
        <ele>1013.5999755859</ele>
        <time>2013-09-21T09:10:08.000Z</time>
      </trkpt>
      <trkpt lat="44.96087" lon="5.55307">
        <ele>1015.799987793</ele>
        <time>2013-09-21T09:10:14.000Z</time>
      </trkpt>
      <trkpt lat="44.96091" lon="5.55315">
        <ele>1016.799987793</ele>
        <time>2013-09-21T09:10:19.000Z</time>
      </trkpt>
      <trkpt lat="44.96092" lon="5.55316">
        <ele>1017</ele>
        <time>2013-09-21T09:10:20.000Z</time>
      </trkpt>
      <trkpt lat="44.96097" lon="5.55316">
        <ele>1017.5999755859</ele>
        <time>2013-09-21T09:10:24.000Z</time>
      </trkpt>
      <trkpt lat="44.96101" lon="5.55316">
        <ele>1018.200012207</ele>
        <time>2013-09-21T09:10:30.000Z</time>
      </trkpt>
      <trkpt lat="44.96113" lon="5.55313">
        <ele>1019.799987793</ele>
        <time>2013-09-21T09:10:36.000Z</time>
      </trkpt>
      <trkpt lat="44.96121" lon="5.55313">
        <ele>1021</ele>
        <time>2013-09-21T09:10:41.000Z</time>
      </trkpt>
      <trkpt lat="44.9613" lon="5.55319">
        <ele>1022</ele>
        <time>2013-09-21T09:10:45.000Z</time>
      </trkpt>
      <trkpt lat="44.96138" lon="5.55324">
        <ele>1023</ele>
        <time>2013-09-21T09:10:48.000Z</time>
      </trkpt>
      <trkpt lat="44.96149" lon="5.55328">
        <ele>1024.1999511719</ele>
        <time>2013-09-21T09:10:54.000Z</time>
      </trkpt>
      <trkpt lat="44.96151" lon="5.55332">
        <ele>1024.1999511719</ele>
        <time>2013-09-21T09:11:03.000Z</time>
      </trkpt>
      <trkpt lat="44.96151" lon="5.55332">
        <ele>1024.1999511719</ele>
        <time>2013-09-21T09:11:03.000Z</time>
      </trkpt>
      <trkpt lat="44.96151" lon="5.55333">
        <ele>1024.1999511719</ele>
        <time>2013-09-21T09:11:10.000Z</time>
      </trkpt>
    </trkseg>
  </trk>
</gpx>